<?xml version='1.0' encoding='UTF-8'?>
<gpx version="1.1" creator="https://www.komoot.de" xmlns="http://www.topografix.com/GPX/1/1" xmlns:xsi="http://www.w3.org/2001/XMLSchema-instance" xsi:schemaLocation="http://www.topografix.com/GPX/1/1 http://www.topografix.com/GPX/1/1/gpx.xsd">
  <metadata>
    <name>79_1060BaenkerjBuerenstei</name>
    <author>
      <link href="https://www.komoot.de">
        <text>komoot</text>
        <type>text/html</type>
      </link>
    </author>
  </metadata>
  <trk>
    <name>79_1060BaenkerjBuerenstei</name>
    <trkseg>
      <trkpt lat="47.541357" lon="7.870835">
        <ele>341.000812</ele>
        <time>2021-11-21T22:01:42.689Z</time>
      </trkpt>
      <trkpt lat="47.541410" lon="7.870791">
        <ele>341.000812</ele>
        <time>2021-11-21T22:01:43.579Z</time>
      </trkpt>
      <trkpt lat="47.541576" lon="7.870664">
        <ele>341.000812</ele>
        <time>2021-11-21T22:01:47.722Z</time>
      </trkpt>
      <trkpt lat="47.541796" lon="7.871042">
        <ele>341.000812</ele>
        <time>2021-11-21T22:01:54.824Z</time>
      </trkpt>
      <trkpt lat="47.541953" lon="7.871286">
        <ele>341.000812</ele>
        <time>2021-11-21T22:01:59.646Z</time>
      </trkpt>
      <trkpt lat="47.542039" lon="7.871556">
        <ele>341.431878</ele>
        <time>2021-11-21T22:02:04.030Z</time>
      </trkpt>
      <trkpt lat="47.542067" lon="7.871664">
        <ele>341.726500</ele>
        <time>2021-11-21T22:02:05.709Z</time>
      </trkpt>
      <trkpt lat="47.542091" lon="7.871721">
        <ele>341.897579</ele>
        <time>2021-11-21T22:02:06.303Z</time>
      </trkpt>
      <trkpt lat="47.542218" lon="7.871866">
        <ele>342.502473</ele>
        <time>2021-11-21T22:02:11.410Z</time>
      </trkpt>
      <trkpt lat="47.542394" lon="7.872341">
        <ele>343.882355</ele>
        <time>2021-11-21T22:02:21.462Z</time>
      </trkpt>
      <trkpt lat="47.542436" lon="7.872494">
        <ele>344.302969</ele>
        <time>2021-11-21T22:02:24.853Z</time>
      </trkpt>
      <trkpt lat="47.542537" lon="7.872430">
        <ele>344.717387</ele>
        <time>2021-11-21T22:02:26.965Z</time>
      </trkpt>
      <trkpt lat="47.542714" lon="7.872334">
        <ele>345.428466</ele>
        <time>2021-11-21T22:02:33.922Z</time>
      </trkpt>
      <trkpt lat="47.542814" lon="7.872280">
        <ele>345.829999</ele>
        <time>2021-11-21T22:02:36.936Z</time>
      </trkpt>
      <trkpt lat="47.542919" lon="7.872226">
        <ele>346.249302</ele>
        <time>2021-11-21T22:02:40.774Z</time>
      </trkpt>
      <trkpt lat="47.543013" lon="7.872182">
        <ele>346.621199</ele>
        <time>2021-11-21T22:02:44.281Z</time>
      </trkpt>
      <trkpt lat="47.543233" lon="7.872082">
        <ele>347.489339</ele>
        <time>2021-11-21T22:02:51.519Z</time>
      </trkpt>
      <trkpt lat="47.543251" lon="7.872152">
        <ele>347.680095</ele>
        <time>2021-11-21T22:02:54.893Z</time>
      </trkpt>
      <trkpt lat="47.543332" lon="7.872237">
        <ele>348.240680</ele>
        <time>2021-11-21T22:02:58.198Z</time>
      </trkpt>
      <trkpt lat="47.544390" lon="7.872423">
        <ele>355.047399</ele>
        <time>2021-11-21T22:03:39.917Z</time>
      </trkpt>
      <trkpt lat="47.544883" lon="7.872555">
        <ele>358.248077</ele>
        <time>2021-11-21T22:04:02.326Z</time>
      </trkpt>
      <trkpt lat="47.545131" lon="7.872664">
        <ele>359.919284</ele>
        <time>2021-11-21T22:04:13.330Z</time>
      </trkpt>
      <trkpt lat="47.545375" lon="7.872836">
        <ele>361.696948</ele>
        <time>2021-11-21T22:04:24.271Z</time>
      </trkpt>
      <trkpt lat="47.545478" lon="7.872968">
        <ele>362.592911</ele>
        <time>2021-11-21T22:04:31.079Z</time>
      </trkpt>
      <trkpt lat="47.545515" lon="7.873015">
        <ele>362.913551</ele>
        <time>2021-11-21T22:04:33.035Z</time>
      </trkpt>
      <trkpt lat="47.545746" lon="7.873302">
        <ele>364.896912</ele>
        <time>2021-11-21T22:04:46.235Z</time>
      </trkpt>
      <trkpt lat="47.545934" lon="7.873549">
        <ele>366.550010</ele>
        <time>2021-11-21T22:04:56.335Z</time>
      </trkpt>
      <trkpt lat="47.546077" lon="7.873763">
        <ele>367.887204</ele>
        <time>2021-11-21T22:05:05.531Z</time>
      </trkpt>
      <trkpt lat="47.546135" lon="7.873859">
        <ele>368.459326</ele>
        <time>2021-11-21T22:05:08.770Z</time>
      </trkpt>
      <trkpt lat="47.546309" lon="7.874154">
        <ele>370.198977</ele>
        <time>2021-11-21T22:05:19.885Z</time>
      </trkpt>
      <trkpt lat="47.547126" lon="7.875801">
        <ele>375.885403</ele>
        <time>2021-11-21T22:06:05.646Z</time>
      </trkpt>
      <trkpt lat="47.547574" lon="7.876801">
        <ele>377.843264</ele>
        <time>2021-11-21T22:06:24.642Z</time>
      </trkpt>
      <trkpt lat="47.547992" lon="7.877974">
        <ele>377.180001</ele>
        <time>2021-11-21T22:06:37.443Z</time>
      </trkpt>
      <trkpt lat="47.548234" lon="7.878638">
        <ele>376.802672</ele>
        <time>2021-11-21T22:06:42.757Z</time>
      </trkpt>
      <trkpt lat="47.548422" lon="7.878959">
        <ele>376.109003</ele>
        <time>2021-11-21T22:06:45.606Z</time>
      </trkpt>
      <trkpt lat="47.548718" lon="7.879258">
        <ele>374.658844</ele>
        <time>2021-11-21T22:06:49.159Z</time>
      </trkpt>
      <trkpt lat="47.549140" lon="7.879391">
        <ele>372.912422</ele>
        <time>2021-11-21T22:06:53.352Z</time>
      </trkpt>
      <trkpt lat="47.549318" lon="7.879398">
        <ele>372.191648</ele>
        <time>2021-11-21T22:06:54.973Z</time>
      </trkpt>
      <trkpt lat="47.549327" lon="7.879547">
        <ele>371.782934</ele>
        <time>2021-11-21T22:06:55.963Z</time>
      </trkpt>
      <trkpt lat="47.549628" lon="7.880482">
        <ele>369.008536</ele>
        <time>2021-11-21T22:07:02.735Z</time>
      </trkpt>
      <trkpt lat="47.549698" lon="7.880701">
        <ele>368.426053</ele>
        <time>2021-11-21T22:07:04.403Z</time>
      </trkpt>
      <trkpt lat="47.549726" lon="7.880786">
        <ele>368.198693</ele>
        <time>2021-11-21T22:07:05.000Z</time>
      </trkpt>
      <trkpt lat="47.549927" lon="7.881490">
        <ele>366.361232</ele>
        <time>2021-11-21T22:07:10.064Z</time>
      </trkpt>
      <trkpt lat="47.550233" lon="7.883217">
        <ele>361.855842</ele>
        <time>2021-11-21T22:07:22.449Z</time>
      </trkpt>
      <trkpt lat="47.550234" lon="7.883221">
        <ele>361.843267</ele>
        <time>2021-11-21T22:07:22.476Z</time>
      </trkpt>
      <trkpt lat="47.550332" lon="7.884727">
        <ele>357.382824</ele>
        <time>2021-11-21T22:07:32.344Z</time>
      </trkpt>
      <trkpt lat="47.550391" lon="7.885109">
        <ele>356.227536</ele>
        <time>2021-11-21T22:07:34.838Z</time>
      </trkpt>
      <trkpt lat="47.550548" lon="7.885799">
        <ele>353.748600</ele>
        <time>2021-11-21T22:07:39.405Z</time>
      </trkpt>
      <trkpt lat="47.550677" lon="7.886476">
        <ele>351.033277</ele>
        <time>2021-11-21T22:07:43.835Z</time>
      </trkpt>
      <trkpt lat="47.550758" lon="7.887295">
        <ele>347.838232</ele>
        <time>2021-11-21T22:07:48.977Z</time>
      </trkpt>
      <trkpt lat="47.550789" lon="7.887816">
        <ele>345.819409</ele>
        <time>2021-11-21T22:07:52.209Z</time>
      </trkpt>
      <trkpt lat="47.550831" lon="7.888611">
        <ele>342.538098</ele>
        <time>2021-11-21T22:07:57.165Z</time>
      </trkpt>
      <trkpt lat="47.550833" lon="7.889069">
        <ele>340.601283</ele>
        <time>2021-11-21T22:07:59.975Z</time>
      </trkpt>
      <trkpt lat="47.550915" lon="7.890600">
        <ele>334.106697</ele>
        <time>2021-11-21T22:08:09.368Z</time>
      </trkpt>
      <trkpt lat="47.550904" lon="7.891725">
        <ele>330.736603</ele>
        <time>2021-11-21T22:08:16.372Z</time>
      </trkpt>
      <trkpt lat="47.550892" lon="7.893176">
        <ele>326.603640</ele>
        <time>2021-11-21T22:08:25.984Z</time>
      </trkpt>
      <trkpt lat="47.550908" lon="7.894308">
        <ele>325.207915</ele>
        <time>2021-11-21T22:08:35.189Z</time>
      </trkpt>
      <trkpt lat="47.550878" lon="7.895158">
        <ele>324.469281</ele>
        <time>2021-11-21T22:08:42.374Z</time>
      </trkpt>
      <trkpt lat="47.550838" lon="7.895509">
        <ele>324.160372</ele>
        <time>2021-11-21T22:08:45.538Z</time>
      </trkpt>
      <trkpt lat="47.550660" lon="7.896255">
        <ele>323.239759</ele>
        <time>2021-11-21T22:08:52.026Z</time>
      </trkpt>
      <trkpt lat="47.550639" lon="7.896345">
        <ele>323.070453</ele>
        <time>2021-11-21T22:08:53.214Z</time>
      </trkpt>
      <trkpt lat="47.550648" lon="7.896481">
        <ele>322.827496</ele>
        <time>2021-11-21T22:08:54.169Z</time>
      </trkpt>
      <trkpt lat="47.550819" lon="7.898109">
        <ele>319.898202</ele>
        <time>2021-11-21T22:09:05.917Z</time>
      </trkpt>
      <trkpt lat="47.550801" lon="7.900244">
        <ele>314.342348</ele>
        <time>2021-11-21T22:09:19.754Z</time>
      </trkpt>
      <trkpt lat="47.550769" lon="7.901362">
        <ele>311.151718</ele>
        <time>2021-11-21T22:09:27.026Z</time>
      </trkpt>
      <trkpt lat="47.550757" lon="7.901591">
        <ele>310.583618</ele>
        <time>2021-11-21T22:09:29.162Z</time>
      </trkpt>
      <trkpt lat="47.550688" lon="7.902451">
        <ele>308.441566</ele>
        <time>2021-11-21T22:09:37.596Z</time>
      </trkpt>
      <trkpt lat="47.550498" lon="7.903445">
        <ele>305.886365</ele>
        <time>2021-11-21T22:09:47.846Z</time>
      </trkpt>
      <trkpt lat="47.550302" lon="7.904164">
        <ele>303.959885</ele>
        <time>2021-11-21T22:09:55.106Z</time>
      </trkpt>
      <trkpt lat="47.550025" lon="7.904774">
        <ele>302.120472</ele>
        <time>2021-11-21T22:10:02.031Z</time>
      </trkpt>
      <trkpt lat="47.549868" lon="7.905010">
        <ele>301.291426</ele>
        <time>2021-11-21T22:10:05.162Z</time>
      </trkpt>
      <trkpt lat="47.549867" lon="7.905155">
        <ele>300.928630</ele>
        <time>2021-11-21T22:10:06.559Z</time>
      </trkpt>
      <trkpt lat="47.550067" lon="7.905245">
        <ele>300.153827</ele>
        <time>2021-11-21T22:10:09.484Z</time>
      </trkpt>
      <trkpt lat="47.550283" lon="7.905413">
        <ele>299.249536</ele>
        <time>2021-11-21T22:10:12.934Z</time>
      </trkpt>
      <trkpt lat="47.550497" lon="7.905558">
        <ele>298.377262</ele>
        <time>2021-11-21T22:10:16.293Z</time>
      </trkpt>
      <trkpt lat="47.549539" lon="7.908625">
        <ele>293.151337</ele>
        <time>2021-11-21T22:10:40.741Z</time>
      </trkpt>
      <trkpt lat="47.549520" lon="7.908678">
        <ele>293.093775</ele>
        <time>2021-11-21T22:10:41.234Z</time>
      </trkpt>
      <trkpt lat="47.549378" lon="7.909148">
        <ele>292.599857</ele>
        <time>2021-11-21T22:10:45.445Z</time>
      </trkpt>
      <trkpt lat="47.549248" lon="7.909580">
        <ele>292.146173</ele>
        <time>2021-11-21T22:10:49.308Z</time>
      </trkpt>
      <trkpt lat="47.549195" lon="7.909756">
        <ele>291.961317</ele>
        <time>2021-11-21T22:10:50.864Z</time>
      </trkpt>
      <trkpt lat="47.549102" lon="7.910058">
        <ele>291.642918</ele>
        <time>2021-11-21T22:10:53.584Z</time>
      </trkpt>
      <trkpt lat="47.549012" lon="7.910340">
        <ele>291.343714</ele>
        <time>2021-11-21T22:10:56.084Z</time>
      </trkpt>
      <trkpt lat="47.548412" lon="7.912168">
        <ele>289.793832</ele>
        <time>2021-11-21T22:11:12.419Z</time>
      </trkpt>
      <trkpt lat="47.548027" lon="7.913334">
        <ele>289.065375</ele>
        <time>2021-11-21T22:11:23.180Z</time>
      </trkpt>
      <trkpt lat="47.547994" lon="7.913433">
        <ele>289.038764</ele>
        <time>2021-11-21T22:11:24.101Z</time>
      </trkpt>
      <trkpt lat="47.547423" lon="7.915080">
        <ele>288.592523</ele>
        <time>2021-11-21T22:11:41.577Z</time>
      </trkpt>
      <trkpt lat="47.547113" lon="7.915971">
        <ele>288.751878</ele>
        <time>2021-11-21T22:11:52.024Z</time>
      </trkpt>
      <trkpt lat="47.547091" lon="7.916039">
        <ele>288.773140</ele>
        <time>2021-11-21T22:11:53.049Z</time>
      </trkpt>
      <trkpt lat="47.547032" lon="7.916218">
        <ele>288.829308</ele>
        <time>2021-11-21T22:11:55.252Z</time>
      </trkpt>
      <trkpt lat="47.546821" lon="7.916867">
        <ele>289.032425</ele>
        <time>2021-11-21T22:12:03.361Z</time>
      </trkpt>
      <trkpt lat="47.546262" lon="7.919081">
        <ele>289.675971</ele>
        <time>2021-11-21T22:12:30.872Z</time>
      </trkpt>
      <trkpt lat="47.546128" lon="7.919617">
        <ele>289.828150</ele>
        <time>2021-11-21T22:12:36.340Z</time>
      </trkpt>
      <trkpt lat="47.545973" lon="7.920313">
        <ele>290.078089</ele>
        <time>2021-11-21T22:12:44.804Z</time>
      </trkpt>
      <trkpt lat="47.545913" lon="7.920765">
        <ele>290.451857</ele>
        <time>2021-11-21T22:12:48.977Z</time>
      </trkpt>
      <trkpt lat="47.545881" lon="7.921096">
        <ele>290.723164</ele>
        <time>2021-11-21T22:12:52.994Z</time>
      </trkpt>
      <trkpt lat="47.545810" lon="7.921755">
        <ele>291.264632</ele>
        <time>2021-11-21T22:13:01.902Z</time>
      </trkpt>
      <trkpt lat="47.545778" lon="7.921947">
        <ele>291.425096</ele>
        <time>2021-11-21T22:13:05.511Z</time>
      </trkpt>
      <trkpt lat="47.545714" lon="7.922249">
        <ele>291.681926</ele>
        <time>2021-11-21T22:13:08.710Z</time>
      </trkpt>
      <trkpt lat="47.545699" lon="7.922325">
        <ele>291.746173</ele>
        <time>2021-11-21T22:13:09.907Z</time>
      </trkpt>
      <trkpt lat="47.545690" lon="7.922369">
        <ele>291.783477</ele>
        <time>2021-11-21T22:13:12.005Z</time>
      </trkpt>
      <trkpt lat="47.545641" lon="7.922610">
        <ele>291.987699</ele>
        <time>2021-11-21T22:13:14.359Z</time>
      </trkpt>
      <trkpt lat="47.545587" lon="7.922895">
        <ele>292.359769</ele>
        <time>2021-11-21T22:13:20.155Z</time>
      </trkpt>
      <trkpt lat="47.545553" lon="7.923142">
        <ele>292.953460</ele>
        <time>2021-11-21T22:13:22.802Z</time>
      </trkpt>
      <trkpt lat="47.545536" lon="7.923407">
        <ele>293.580383</ele>
        <time>2021-11-21T22:13:28.692Z</time>
      </trkpt>
      <trkpt lat="47.545521" lon="7.923709">
        <ele>294.293557</ele>
        <time>2021-11-21T22:13:32.846Z</time>
      </trkpt>
      <trkpt lat="47.545481" lon="7.924396">
        <ele>295.917544</ele>
        <time>2021-11-21T22:13:47.449Z</time>
      </trkpt>
      <trkpt lat="47.545466" lon="7.924880">
        <ele>297.058633</ele>
        <time>2021-11-21T22:13:58.755Z</time>
      </trkpt>
      <trkpt lat="47.545446" lon="7.925350">
        <ele>298.167746</ele>
        <time>2021-11-21T22:14:09.130Z</time>
      </trkpt>
      <trkpt lat="47.545417" lon="7.925848">
        <ele>299.069728</ele>
        <time>2021-11-21T22:14:19.609Z</time>
      </trkpt>
      <trkpt lat="47.545409" lon="7.926773">
        <ele>300.590043</ele>
        <time>2021-11-21T22:14:36.810Z</time>
      </trkpt>
      <trkpt lat="47.545407" lon="7.927001">
        <ele>300.964781</ele>
        <time>2021-11-21T22:14:40.619Z</time>
      </trkpt>
      <trkpt lat="47.545406" lon="7.927306">
        <ele>301.466039</ele>
        <time>2021-11-21T22:14:45.224Z</time>
      </trkpt>
      <trkpt lat="47.545421" lon="7.927686">
        <ele>302.091617</ele>
        <time>2021-11-21T22:14:50.759Z</time>
      </trkpt>
      <trkpt lat="47.545475" lon="7.928419">
        <ele>302.554454</ele>
        <time>2021-11-21T22:15:00.077Z</time>
      </trkpt>
      <trkpt lat="47.545563" lon="7.929641">
        <ele>301.487515</ele>
        <time>2021-11-21T22:15:09.956Z</time>
      </trkpt>
      <trkpt lat="47.545661" lon="7.930955">
        <ele>300.334597</ele>
        <time>2021-11-21T22:15:19.352Z</time>
      </trkpt>
      <trkpt lat="47.545696" lon="7.931497">
        <ele>299.846590</ele>
        <time>2021-11-21T22:15:23.321Z</time>
      </trkpt>
      <trkpt lat="47.545721" lon="7.931992">
        <ele>299.401686</ele>
        <time>2021-11-21T22:15:27.113Z</time>
      </trkpt>
      <trkpt lat="47.545724" lon="7.932758">
        <ele>298.715116</ele>
        <time>2021-11-21T22:15:33.323Z</time>
      </trkpt>
      <trkpt lat="47.545702" lon="7.933290">
        <ele>298.237396</ele>
        <time>2021-11-21T22:15:37.966Z</time>
      </trkpt>
      <trkpt lat="47.545674" lon="7.933625">
        <ele>298.225578</ele>
        <time>2021-11-21T22:15:41.166Z</time>
      </trkpt>
      <trkpt lat="47.545457" lon="7.935110">
        <ele>299.103063</ele>
        <time>2021-11-21T22:15:59.301Z</time>
      </trkpt>
      <trkpt lat="47.545074" lon="7.936484">
        <ele>300.282553</ele>
        <time>2021-11-21T22:16:20.828Z</time>
      </trkpt>
      <trkpt lat="47.544903" lon="7.936917">
        <ele>300.871253</ele>
        <time>2021-11-21T22:16:28.145Z</time>
      </trkpt>
      <trkpt lat="47.544705" lon="7.937395">
        <ele>301.529384</ele>
        <time>2021-11-21T22:16:36.329Z</time>
      </trkpt>
      <trkpt lat="47.544472" lon="7.937932">
        <ele>302.278516</ele>
        <time>2021-11-21T22:16:45.736Z</time>
      </trkpt>
      <trkpt lat="47.543826" lon="7.939433">
        <ele>304.340673</ele>
        <time>2021-11-21T22:17:12.618Z</time>
      </trkpt>
      <trkpt lat="47.543435" lon="7.940670">
        <ele>305.875253</ele>
        <time>2021-11-21T22:17:32.578Z</time>
      </trkpt>
      <trkpt lat="47.543161" lon="7.942213">
        <ele>306.546468</ele>
        <time>2021-11-21T22:17:53.427Z</time>
      </trkpt>
      <trkpt lat="47.543007" lon="7.943867">
        <ele>306.382357</ele>
        <time>2021-11-21T22:18:08.972Z</time>
      </trkpt>
      <trkpt lat="47.542913" lon="7.945267">
        <ele>305.118451</ele>
        <time>2021-11-21T22:18:19.878Z</time>
      </trkpt>
      <trkpt lat="47.542872" lon="7.945781">
        <ele>304.653482</ele>
        <time>2021-11-21T22:18:23.694Z</time>
      </trkpt>
      <trkpt lat="47.542875" lon="7.946089">
        <ele>304.333021</ele>
        <time>2021-11-21T22:18:25.929Z</time>
      </trkpt>
      <trkpt lat="47.542902" lon="7.946514">
        <ele>303.866529</ele>
        <time>2021-11-21T22:18:29.023Z</time>
      </trkpt>
      <trkpt lat="47.542943" lon="7.946806">
        <ele>303.540601</ele>
        <time>2021-11-21T22:18:31.233Z</time>
      </trkpt>
      <trkpt lat="47.542974" lon="7.946965">
        <ele>303.359744</ele>
        <time>2021-11-21T22:18:32.541Z</time>
      </trkpt>
      <trkpt lat="47.542979" lon="7.946989">
        <ele>303.332296</ele>
        <time>2021-11-21T22:18:32.698Z</time>
      </trkpt>
      <trkpt lat="47.542989" lon="7.947104">
        <ele>303.205586</ele>
        <time>2021-11-21T22:18:33.569Z</time>
      </trkpt>
      <trkpt lat="47.542984" lon="7.947304">
        <ele>302.986876</ele>
        <time>2021-11-21T22:18:35.144Z</time>
      </trkpt>
      <trkpt lat="47.542979" lon="7.947370">
        <ele>302.914299</ele>
        <time>2021-11-21T22:18:35.645Z</time>
      </trkpt>
      <trkpt lat="47.542935" lon="7.947564">
        <ele>302.690649</ele>
        <time>2021-11-21T22:18:37.213Z</time>
      </trkpt>
      <trkpt lat="47.542892" lon="7.947789">
        <ele>302.435105</ele>
        <time>2021-11-21T22:18:39.131Z</time>
      </trkpt>
      <trkpt lat="47.542875" lon="7.948001">
        <ele>302.201803</ele>
        <time>2021-11-21T22:18:40.947Z</time>
      </trkpt>
      <trkpt lat="47.542838" lon="7.948225">
        <ele>301.949793</ele>
        <time>2021-11-21T22:18:42.731Z</time>
      </trkpt>
      <trkpt lat="47.542826" lon="7.948298">
        <ele>301.867688</ele>
        <time>2021-11-21T22:18:43.353Z</time>
      </trkpt>
      <trkpt lat="47.542719" lon="7.949175">
        <ele>301.418518</ele>
        <time>2021-11-21T22:18:50.576Z</time>
      </trkpt>
      <trkpt lat="47.542609" lon="7.949914">
        <ele>301.152716</ele>
        <time>2021-11-21T22:18:57.352Z</time>
      </trkpt>
      <trkpt lat="47.542560" lon="7.950202">
        <ele>301.048395</ele>
        <time>2021-11-21T22:19:00.220Z</time>
      </trkpt>
      <trkpt lat="47.542554" lon="7.950231">
        <ele>301.037741</ele>
        <time>2021-11-21T22:19:00.496Z</time>
      </trkpt>
      <trkpt lat="47.542546" lon="7.950274">
        <ele>301.022075</ele>
        <time>2021-11-21T22:19:00.900Z</time>
      </trkpt>
      <trkpt lat="47.542444" lon="7.950687">
        <ele>300.867608</ele>
        <time>2021-11-21T22:19:05.363Z</time>
      </trkpt>
      <trkpt lat="47.542357" lon="7.951037">
        <ele>300.736604</ele>
        <time>2021-11-21T22:19:09.007Z</time>
      </trkpt>
      <trkpt lat="47.542192" lon="7.951713">
        <ele>300.609531</ele>
        <time>2021-11-21T22:19:15.955Z</time>
      </trkpt>
      <trkpt lat="47.542169" lon="7.951815">
        <ele>300.590932</ele>
        <time>2021-11-21T22:19:16.882Z</time>
      </trkpt>
      <trkpt lat="47.541991" lon="7.952667">
        <ele>300.436683</ele>
        <time>2021-11-21T22:19:25.163Z</time>
      </trkpt>
      <trkpt lat="47.541791" lon="7.953601">
        <ele>300.278428</ele>
        <time>2021-11-21T22:19:34.215Z</time>
      </trkpt>
      <trkpt lat="47.541773" lon="7.953695">
        <ele>300.321676</ele>
        <time>2021-11-21T22:19:35.151Z</time>
      </trkpt>
      <trkpt lat="47.541735" lon="7.953892">
        <ele>300.412364</ele>
        <time>2021-11-21T22:19:37.034Z</time>
      </trkpt>
      <trkpt lat="47.541660" lon="7.954250">
        <ele>300.578280</ele>
        <time>2021-11-21T22:19:40.792Z</time>
      </trkpt>
      <trkpt lat="47.541530" lon="7.954936">
        <ele>300.893661</ele>
        <time>2021-11-21T22:19:48.013Z</time>
      </trkpt>
      <trkpt lat="47.541482" lon="7.955294">
        <ele>301.055218</ele>
        <time>2021-11-21T22:19:52.062Z</time>
      </trkpt>
      <trkpt lat="47.541465" lon="7.955512">
        <ele>301.152353</ele>
        <time>2021-11-21T22:19:54.397Z</time>
      </trkpt>
      <trkpt lat="47.541442" lon="7.955866">
        <ele>301.309768</ele>
        <time>2021-11-21T22:19:59.690Z</time>
      </trkpt>
      <trkpt lat="47.541410" lon="7.956569">
        <ele>302.250383</ele>
        <time>2021-11-21T22:20:10.990Z</time>
      </trkpt>
      <trkpt lat="47.541404" lon="7.956677">
        <ele>302.473766</ele>
        <time>2021-11-21T22:20:13.096Z</time>
      </trkpt>
      <trkpt lat="47.541280" lon="7.957569">
        <ele>304.351116</ele>
        <time>2021-11-21T22:20:28.743Z</time>
      </trkpt>
      <trkpt lat="47.541237" lon="7.957756">
        <ele>304.758349</ele>
        <time>2021-11-21T22:20:33.091Z</time>
      </trkpt>
      <trkpt lat="47.541141" lon="7.958127">
        <ele>305.577389</ele>
        <time>2021-11-21T22:20:40.642Z</time>
      </trkpt>
      <trkpt lat="47.540957" lon="7.959132">
        <ele>307.751294</ele>
        <time>2021-11-21T22:21:02.085Z</time>
      </trkpt>
      <trkpt lat="47.540954" lon="7.959705">
        <ele>308.973840</ele>
        <time>2021-11-21T22:21:13.512Z</time>
      </trkpt>
      <trkpt lat="47.540979" lon="7.959950">
        <ele>309.502491</ele>
        <time>2021-11-21T22:21:18.962Z</time>
      </trkpt>
      <trkpt lat="47.541002" lon="7.960092">
        <ele>309.814049</ele>
        <time>2021-11-21T22:21:21.556Z</time>
      </trkpt>
      <trkpt lat="47.541060" lon="7.960321">
        <ele>310.335881</ele>
        <time>2021-11-21T22:21:26.278Z</time>
      </trkpt>
      <trkpt lat="47.541153" lon="7.960814">
        <ele>311.428000</ele>
        <time>2021-11-21T22:21:34.847Z</time>
      </trkpt>
      <trkpt lat="47.541242" lon="7.961294">
        <ele>312.490014</ele>
        <time>2021-11-21T22:21:42.806Z</time>
      </trkpt>
      <trkpt lat="47.541316" lon="7.962197">
        <ele>313.666736</ele>
        <time>2021-11-21T22:21:57.432Z</time>
      </trkpt>
      <trkpt lat="47.541314" lon="7.962377">
        <ele>313.888160</ele>
        <time>2021-11-21T22:22:00.261Z</time>
      </trkpt>
      <trkpt lat="47.541308" lon="7.962513">
        <ele>314.055793</ele>
        <time>2021-11-21T22:22:02.124Z</time>
      </trkpt>
      <trkpt lat="47.541293" lon="7.962730">
        <ele>314.324092</ele>
        <time>2021-11-21T22:22:04.987Z</time>
      </trkpt>
      <trkpt lat="47.541258" lon="7.962975">
        <ele>314.632108</ele>
        <time>2021-11-21T22:22:08.887Z</time>
      </trkpt>
      <trkpt lat="47.541217" lon="7.963187">
        <ele>314.903352</ele>
        <time>2021-11-21T22:22:11.676Z</time>
      </trkpt>
      <trkpt lat="47.541123" lon="7.963520">
        <ele>315.347300</ele>
        <time>2021-11-21T22:22:16.911Z</time>
      </trkpt>
      <trkpt lat="47.541019" lon="7.963815">
        <ele>315.756642</ele>
        <time>2021-11-21T22:22:21.547Z</time>
      </trkpt>
      <trkpt lat="47.540959" lon="7.963916">
        <ele>315.918574</ele>
        <time>2021-11-21T22:22:23.835Z</time>
      </trkpt>
      <trkpt lat="47.540467" lon="7.964759">
        <ele>317.022204</ele>
        <time>2021-11-21T22:22:39.559Z</time>
      </trkpt>
      <trkpt lat="47.540257" lon="7.965417">
        <ele>317.743021</ele>
        <time>2021-11-21T22:22:49.495Z</time>
      </trkpt>
      <trkpt lat="47.540200" lon="7.965632">
        <ele>317.971782</ele>
        <time>2021-11-21T22:22:52.948Z</time>
      </trkpt>
      <trkpt lat="47.540100" lon="7.966046">
        <ele>318.407252</ele>
        <time>2021-11-21T22:22:58.837Z</time>
      </trkpt>
      <trkpt lat="47.539909" lon="7.966784">
        <ele>319.310020</ele>
        <time>2021-11-21T22:23:09.533Z</time>
      </trkpt>
      <trkpt lat="47.539680" lon="7.967625">
        <ele>320.374601</ele>
        <time>2021-11-21T22:23:22.955Z</time>
      </trkpt>
      <trkpt lat="47.539403" lon="7.968640">
        <ele>321.659850</ele>
        <time>2021-11-21T22:23:39.417Z</time>
      </trkpt>
      <trkpt lat="47.539248" lon="7.969246">
        <ele>322.676938</ele>
        <time>2021-11-21T22:23:49.708Z</time>
      </trkpt>
      <trkpt lat="47.539144" lon="7.969781">
        <ele>323.553843</ele>
        <time>2021-11-21T22:23:58.822Z</time>
      </trkpt>
      <trkpt lat="47.539052" lon="7.970439">
        <ele>324.612238</ele>
        <time>2021-11-21T22:24:10.137Z</time>
      </trkpt>
      <trkpt lat="47.538935" lon="7.971210">
        <ele>325.856928</ele>
        <time>2021-11-21T22:24:23.429Z</time>
      </trkpt>
      <trkpt lat="47.538858" lon="7.971696">
        <ele>326.603298</ele>
        <time>2021-11-21T22:24:31.443Z</time>
      </trkpt>
      <trkpt lat="47.538687" lon="7.972850">
        <ele>328.368526</ele>
        <time>2021-11-21T22:24:50.059Z</time>
      </trkpt>
      <trkpt lat="47.538490" lon="7.973699">
        <ele>329.709851</ele>
        <time>2021-11-21T22:25:04.321Z</time>
      </trkpt>
      <trkpt lat="47.538106" lon="7.974772">
        <ele>331.719368</ele>
        <time>2021-11-21T22:25:23.833Z</time>
      </trkpt>
      <trkpt lat="47.537896" lon="7.975317">
        <ele>332.766008</ele>
        <time>2021-11-21T22:25:34.073Z</time>
      </trkpt>
      <trkpt lat="47.537896" lon="7.975317">
        <ele>332.766008</ele>
        <time>2021-11-21T22:25:34.294Z</time>
      </trkpt>
      <trkpt lat="47.537896" lon="7.975317">
        <ele>332.766008</ele>
        <time>2021-11-21T22:25:34.317Z</time>
      </trkpt>
      <trkpt lat="47.536866" lon="7.977996">
        <ele>338.169492</ele>
        <time>2021-11-21T22:26:29.323Z</time>
      </trkpt>
      <trkpt lat="47.536460" lon="7.979083">
        <ele>339.223790</ele>
        <time>2021-11-21T22:26:48.410Z</time>
      </trkpt>
      <trkpt lat="47.536403" lon="7.979241">
        <ele>339.264025</ele>
        <time>2021-11-21T22:26:50.772Z</time>
      </trkpt>
      <trkpt lat="47.536340" lon="7.979418">
        <ele>339.308965</ele>
        <time>2021-11-21T22:26:53.384Z</time>
      </trkpt>
      <trkpt lat="47.536061" lon="7.980200">
        <ele>339.507619</ele>
        <time>2021-11-21T22:27:02.196Z</time>
      </trkpt>
      <trkpt lat="47.535599" lon="7.981498">
        <ele>338.534590</ele>
        <time>2021-11-21T22:27:13.464Z</time>
      </trkpt>
      <trkpt lat="47.535452" lon="7.981933">
        <ele>337.864833</ele>
        <time>2021-11-21T22:27:16.910Z</time>
      </trkpt>
      <trkpt lat="47.535345" lon="7.982248">
        <ele>337.379331</ele>
        <time>2021-11-21T22:27:19.406Z</time>
      </trkpt>
      <trkpt lat="47.535328" lon="7.982298">
        <ele>337.302253</ele>
        <time>2021-11-21T22:27:19.805Z</time>
      </trkpt>
      <trkpt lat="47.535300" lon="7.982379">
        <ele>337.176961</ele>
        <time>2021-11-21T22:27:20.469Z</time>
      </trkpt>
      <trkpt lat="47.535231" lon="7.982582">
        <ele>336.864041</ele>
        <time>2021-11-21T22:27:22.100Z</time>
      </trkpt>
      <trkpt lat="47.534817" lon="7.983835">
        <ele>335.413472</ele>
        <time>2021-11-21T22:27:32.396Z</time>
      </trkpt>
      <trkpt lat="47.534722" lon="7.984096">
        <ele>335.189218</ele>
        <time>2021-11-21T22:27:34.778Z</time>
      </trkpt>
      <trkpt lat="47.534320" lon="7.984882">
        <ele>334.443448</ele>
        <time>2021-11-21T22:27:43.258Z</time>
      </trkpt>
      <trkpt lat="47.534197" lon="7.985105">
        <ele>334.225663</ele>
        <time>2021-11-21T22:27:45.873Z</time>
      </trkpt>
      <trkpt lat="47.533975" lon="7.985526">
        <ele>333.878785</ele>
        <time>2021-11-21T22:27:50.594Z</time>
      </trkpt>
      <trkpt lat="47.533546" lon="7.986336">
        <ele>333.396874</ele>
        <time>2021-11-21T22:27:59.974Z</time>
      </trkpt>
      <trkpt lat="47.533208" lon="7.986980">
        <ele>333.015038</ele>
        <time>2021-11-21T22:28:06.951Z</time>
      </trkpt>
      <trkpt lat="47.533114" lon="7.987128">
        <ele>332.919920</ele>
        <time>2021-11-21T22:28:08.409Z</time>
      </trkpt>
      <trkpt lat="47.532879" lon="7.987447">
        <ele>332.690087</ele>
        <time>2021-11-21T22:28:12.605Z</time>
      </trkpt>
      <trkpt lat="47.532716" lon="7.987667">
        <ele>332.484544</ele>
        <time>2021-11-21T22:28:15.852Z</time>
      </trkpt>
      <trkpt lat="47.532621" lon="7.987826">
        <ele>332.350933</ele>
        <time>2021-11-21T22:28:17.397Z</time>
      </trkpt>
      <trkpt lat="47.532544" lon="7.987973">
        <ele>332.233852</ele>
        <time>2021-11-21T22:28:20.097Z</time>
      </trkpt>
      <trkpt lat="47.532464" lon="7.988171">
        <ele>332.088644</ele>
        <time>2021-11-21T22:28:21.811Z</time>
      </trkpt>
      <trkpt lat="47.532401" lon="7.988331">
        <ele>331.972086</ele>
        <time>2021-11-21T22:28:23.122Z</time>
      </trkpt>
      <trkpt lat="47.532373" lon="7.988399">
        <ele>331.921963</ele>
        <time>2021-11-21T22:28:25.300Z</time>
      </trkpt>
      <trkpt lat="47.532299" lon="7.988577">
        <ele>331.790417</ele>
        <time>2021-11-21T22:28:26.834Z</time>
      </trkpt>
      <trkpt lat="47.532014" lon="7.989225">
        <ele>331.303743</ele>
        <time>2021-11-21T22:28:32.883Z</time>
      </trkpt>
      <trkpt lat="47.531897" lon="7.989450">
        <ele>331.125023</ele>
        <time>2021-11-21T22:28:35.792Z</time>
      </trkpt>
      <trkpt lat="47.531823" lon="7.989607">
        <ele>331.014848</ele>
        <time>2021-11-21T22:28:37.155Z</time>
      </trkpt>
      <trkpt lat="47.531667" lon="7.989873">
        <ele>330.845636</ele>
        <time>2021-11-21T22:28:40.304Z</time>
      </trkpt>
      <trkpt lat="47.531363" lon="7.990436">
        <ele>330.499417</ele>
        <time>2021-11-21T22:28:46.227Z</time>
      </trkpt>
      <trkpt lat="47.530979" lon="7.991211">
        <ele>330.037743</ele>
        <time>2021-11-21T22:28:54.675Z</time>
      </trkpt>
      <trkpt lat="47.530933" lon="7.991310">
        <ele>329.980026</ele>
        <time>2021-11-21T22:28:55.660Z</time>
      </trkpt>
      <trkpt lat="47.530776" lon="7.991586">
        <ele>329.806700</ele>
        <time>2021-11-21T22:28:59.177Z</time>
      </trkpt>
      <trkpt lat="47.530495" lon="7.992103">
        <ele>329.851528</ele>
        <time>2021-11-21T22:29:05.105Z</time>
      </trkpt>
      <trkpt lat="47.530141" lon="7.992757">
        <ele>329.970270</ele>
        <time>2021-11-21T22:29:13.780Z</time>
      </trkpt>
      <trkpt lat="47.529350" lon="7.994228">
        <ele>330.409983</ele>
        <time>2021-11-21T22:29:35.919Z</time>
      </trkpt>
      <trkpt lat="47.529261" lon="7.994394">
        <ele>330.497465</ele>
        <time>2021-11-21T22:29:38.444Z</time>
      </trkpt>
      <trkpt lat="47.529180" lon="7.994531">
        <ele>330.572619</ele>
        <time>2021-11-21T22:29:40.765Z</time>
      </trkpt>
      <trkpt lat="47.528880" lon="7.995091">
        <ele>330.867647</ele>
        <time>2021-11-21T22:29:48.735Z</time>
      </trkpt>
      <trkpt lat="47.528128" lon="7.996500">
        <ele>331.310927</ele>
        <time>2021-11-21T22:30:09.748Z</time>
      </trkpt>
      <trkpt lat="47.527614" lon="7.997121">
        <ele>331.383953</ele>
        <time>2021-11-21T22:30:19.690Z</time>
      </trkpt>
      <trkpt lat="47.527213" lon="7.997459">
        <ele>331.434747</ele>
        <time>2021-11-21T22:30:26.046Z</time>
      </trkpt>
      <trkpt lat="47.526915" lon="7.997856">
        <ele>331.404121</ele>
        <time>2021-11-21T22:30:31.399Z</time>
      </trkpt>
      <trkpt lat="47.526730" lon="7.998233">
        <ele>331.365595</ele>
        <time>2021-11-21T22:30:35.866Z</time>
      </trkpt>
      <trkpt lat="47.526473" lon="7.999201">
        <ele>331.279610</ele>
        <time>2021-11-21T22:30:45.879Z</time>
      </trkpt>
      <trkpt lat="47.526401" lon="7.999417">
        <ele>331.259697</ele>
        <time>2021-11-21T22:30:47.834Z</time>
      </trkpt>
      <trkpt lat="47.526401" lon="7.999417">
        <ele>331.259697</ele>
        <time>2021-11-21T22:30:47.946Z</time>
      </trkpt>
      <trkpt lat="47.526084" lon="8.000015">
        <ele>331.351948</ele>
        <time>2021-11-21T22:30:55.586Z</time>
      </trkpt>
      <trkpt lat="47.525162" lon="8.001004">
        <ele>332.030355</ele>
        <time>2021-11-21T22:31:15.588Z</time>
      </trkpt>
      <trkpt lat="47.524855" lon="8.001439">
        <ele>332.283548</ele>
        <time>2021-11-21T22:31:23.691Z</time>
      </trkpt>
      <trkpt lat="47.524655" lon="8.001699">
        <ele>332.418825</ele>
        <time>2021-11-21T22:31:28.551Z</time>
      </trkpt>
      <trkpt lat="47.520570" lon="8.007346">
        <ele>335.273551</ele>
        <time>2021-11-21T22:33:01.431Z</time>
      </trkpt>
      <trkpt lat="47.518886" lon="8.009691">
        <ele>337.167914</ele>
        <time>2021-11-21T22:33:44.068Z</time>
      </trkpt>
      <trkpt lat="47.517842" lon="8.011140">
        <ele>338.295324</ele>
        <time>2021-11-21T22:34:10.290Z</time>
      </trkpt>
      <trkpt lat="47.517559" lon="8.011519">
        <ele>338.547967</ele>
        <time>2021-11-21T22:34:16.983Z</time>
      </trkpt>
      <trkpt lat="47.517220" lon="8.011958">
        <ele>338.846147</ele>
        <time>2021-11-21T22:34:24.622Z</time>
      </trkpt>
      <trkpt lat="47.516968" lon="8.012240">
        <ele>339.055285</ele>
        <time>2021-11-21T22:34:29.851Z</time>
      </trkpt>
      <trkpt lat="47.515686" lon="8.013458">
        <ele>340.195987</ele>
        <time>2021-11-21T22:34:56.293Z</time>
      </trkpt>
      <trkpt lat="47.515654" lon="8.013483">
        <ele>340.223225</ele>
        <time>2021-11-21T22:34:57.075Z</time>
      </trkpt>
      <trkpt lat="47.515613" lon="8.013424">
        <ele>340.266267</ele>
        <time>2021-11-21T22:34:58.221Z</time>
      </trkpt>
      <trkpt lat="47.515541" lon="8.013407">
        <ele>340.321156</ele>
        <time>2021-11-21T22:34:59.582Z</time>
      </trkpt>
      <trkpt lat="47.515502" lon="8.013432">
        <ele>340.353149</ele>
        <time>2021-11-21T22:35:00.496Z</time>
      </trkpt>
      <trkpt lat="47.515475" lon="8.013469">
        <ele>340.380846</ele>
        <time>2021-11-21T22:35:01.170Z</time>
      </trkpt>
      <trkpt lat="47.515457" lon="8.013608">
        <ele>340.452808</ele>
        <time>2021-11-21T22:35:02.899Z</time>
      </trkpt>
      <trkpt lat="47.515468" lon="8.013643">
        <ele>340.486844</ele>
        <time>2021-11-21T22:35:03.357Z</time>
      </trkpt>
      <trkpt lat="47.515263" lon="8.013836">
        <ele>340.807303</ele>
        <time>2021-11-21T22:35:08.267Z</time>
      </trkpt>
      <trkpt lat="47.515054" lon="8.014017">
        <ele>341.126697</ele>
        <time>2021-11-21T22:35:13.007Z</time>
      </trkpt>
      <trkpt lat="47.514746" lon="8.014292">
        <ele>341.601145</ele>
        <time>2021-11-21T22:35:20.210Z</time>
      </trkpt>
      <trkpt lat="47.514628" lon="8.014407">
        <ele>341.787495</ele>
        <time>2021-11-21T22:35:23.095Z</time>
      </trkpt>
      <trkpt lat="47.514464" lon="8.014550">
        <ele>342.038560</ele>
        <time>2021-11-21T22:35:26.989Z</time>
      </trkpt>
      <trkpt lat="47.514162" lon="8.014813">
        <ele>342.500737</ele>
        <time>2021-11-21T22:35:34.011Z</time>
      </trkpt>
      <trkpt lat="47.514036" lon="8.014936">
        <ele>342.699822</ele>
        <time>2021-11-21T22:35:37.297Z</time>
      </trkpt>
      <trkpt lat="47.513919" lon="8.015052">
        <ele>342.871903</ele>
        <time>2021-11-21T22:35:40.182Z</time>
      </trkpt>
      <trkpt lat="47.513872" lon="8.015092">
        <ele>342.927033</ele>
        <time>2021-11-21T22:35:41.247Z</time>
      </trkpt>
      <trkpt lat="47.513615" lon="8.015346">
        <ele>343.241270</ele>
        <time>2021-11-21T22:35:47.869Z</time>
      </trkpt>
      <trkpt lat="47.512943" lon="8.015998">
        <ele>344.058327</ele>
        <time>2021-11-21T22:36:03.672Z</time>
      </trkpt>
      <trkpt lat="47.512748" lon="8.016153">
        <ele>344.283404</ele>
        <time>2021-11-21T22:36:07.526Z</time>
      </trkpt>
      <trkpt lat="47.512572" lon="8.016270">
        <ele>344.479602</ele>
        <time>2021-11-21T22:36:10.700Z</time>
      </trkpt>
      <trkpt lat="47.512292" lon="8.016407">
        <ele>344.647866</ele>
        <time>2021-11-21T22:36:15.667Z</time>
      </trkpt>
      <trkpt lat="47.511937" lon="8.016578">
        <ele>344.625961</ele>
        <time>2021-11-21T22:36:21.617Z</time>
      </trkpt>
      <trkpt lat="47.511835" lon="8.016624">
        <ele>344.619704</ele>
        <time>2021-11-21T22:36:23.111Z</time>
      </trkpt>
      <trkpt lat="47.511079" lon="8.016999">
        <ele>344.572921</ele>
        <time>2021-11-21T22:36:34.701Z</time>
      </trkpt>
      <trkpt lat="47.510624" lon="8.017217">
        <ele>344.528331</ele>
        <time>2021-11-21T22:36:41.068Z</time>
      </trkpt>
      <trkpt lat="47.510117" lon="8.017458">
        <ele>344.385975</ele>
        <time>2021-11-21T22:36:47.812Z</time>
      </trkpt>
      <trkpt lat="47.509872" lon="8.017541">
        <ele>344.318785</ele>
        <time>2021-11-21T22:36:50.974Z</time>
      </trkpt>
      <trkpt lat="47.509728" lon="8.017576">
        <ele>344.279772</ele>
        <time>2021-11-21T22:36:52.956Z</time>
      </trkpt>
      <trkpt lat="47.509596" lon="8.017609">
        <ele>344.243984</ele>
        <time>2021-11-21T22:36:54.800Z</time>
      </trkpt>
      <trkpt lat="47.509437" lon="8.017668">
        <ele>344.200163</ele>
        <time>2021-11-21T22:36:57.058Z</time>
      </trkpt>
      <trkpt lat="47.509253" lon="8.017765">
        <ele>344.147947</ele>
        <time>2021-11-21T22:37:00.025Z</time>
      </trkpt>
      <trkpt lat="47.509105" lon="8.017861">
        <ele>344.104749</ele>
        <time>2021-11-21T22:37:02.396Z</time>
      </trkpt>
      <trkpt lat="47.508988" lon="8.017959">
        <ele>344.068812</ele>
        <time>2021-11-21T22:37:04.634Z</time>
      </trkpt>
      <trkpt lat="47.508896" lon="8.018035">
        <ele>344.242677</ele>
        <time>2021-11-21T22:37:06.150Z</time>
      </trkpt>
      <trkpt lat="47.508805" lon="8.018141">
        <ele>344.434965</ele>
        <time>2021-11-21T22:37:08.269Z</time>
      </trkpt>
      <trkpt lat="47.508699" lon="8.018304">
        <ele>344.688769</ele>
        <time>2021-11-21T22:37:11.439Z</time>
      </trkpt>
      <trkpt lat="47.508636" lon="8.018423">
        <ele>344.858368</ele>
        <time>2021-11-21T22:37:12.973Z</time>
      </trkpt>
      <trkpt lat="47.508617" lon="8.018463">
        <ele>344.913221</ele>
        <time>2021-11-21T22:37:13.452Z</time>
      </trkpt>
      <trkpt lat="47.508597" lon="8.018443">
        <ele>344.953300</ele>
        <time>2021-11-21T22:37:13.904Z</time>
      </trkpt>
      <trkpt lat="47.508507" lon="8.018455">
        <ele>345.103363</ele>
        <time>2021-11-21T22:37:16.020Z</time>
      </trkpt>
      <trkpt lat="47.508490" lon="8.018479">
        <ele>345.142373</ele>
        <time>2021-11-21T22:37:16.683Z</time>
      </trkpt>
      <trkpt lat="47.508473" lon="8.018450">
        <ele>345.185445</ele>
        <time>2021-11-21T22:37:17.528Z</time>
      </trkpt>
      <trkpt lat="47.508346" lon="8.018180">
        <ele>345.554508</ele>
        <time>2021-11-21T22:37:21.543Z</time>
      </trkpt>
      <trkpt lat="47.508286" lon="8.018007">
        <ele>345.772653</ele>
        <time>2021-11-21T22:37:25.094Z</time>
      </trkpt>
      <trkpt lat="47.508211" lon="8.017726">
        <ele>346.111575</ele>
        <time>2021-11-21T22:37:29.006Z</time>
      </trkpt>
      <trkpt lat="47.508074" lon="8.017213">
        <ele>346.730368</ele>
        <time>2021-11-21T22:37:37.823Z</time>
      </trkpt>
      <trkpt lat="47.508054" lon="8.017109">
        <ele>346.851664</ele>
        <time>2021-11-21T22:37:39.794Z</time>
      </trkpt>
      <trkpt lat="47.508035" lon="8.017016">
        <ele>346.960653</ele>
        <time>2021-11-21T22:37:42.056Z</time>
      </trkpt>
      <trkpt lat="47.508040" lon="8.016566">
        <ele>347.776767</ele>
        <time>2021-11-21T22:37:49.573Z</time>
      </trkpt>
      <trkpt lat="47.508068" lon="8.016380">
        <ele>348.152834</ele>
        <time>2021-11-21T22:37:53.905Z</time>
      </trkpt>
      <trkpt lat="47.508111" lon="8.016120">
        <ele>348.681087</ele>
        <time>2021-11-21T22:37:58.142Z</time>
      </trkpt>
      <trkpt lat="47.508171" lon="8.015782">
        <ele>349.370761</ele>
        <time>2021-11-21T22:38:05.329Z</time>
      </trkpt>
      <trkpt lat="47.508213" lon="8.015549">
        <ele>349.846665</ele>
        <time>2021-11-21T22:38:09.575Z</time>
      </trkpt>
      <trkpt lat="47.508270" lon="8.015229">
        <ele>350.499755</ele>
        <time>2021-11-21T22:38:16.023Z</time>
      </trkpt>
      <trkpt lat="47.508285" lon="8.015139">
        <ele>350.682691</ele>
        <time>2021-11-21T22:38:17.442Z</time>
      </trkpt>
      <trkpt lat="47.508294" lon="8.015081">
        <ele>350.800132</ele>
        <time>2021-11-21T22:38:18.615Z</time>
      </trkpt>
      <trkpt lat="47.508337" lon="8.014821">
        <ele>351.328383</ele>
        <time>2021-11-21T22:38:24.380Z</time>
      </trkpt>
      <trkpt lat="47.508352" lon="8.014580">
        <ele>351.805997</ele>
        <time>2021-11-21T22:38:28.096Z</time>
      </trkpt>
      <trkpt lat="47.508333" lon="8.014419">
        <ele>352.128533</ele>
        <time>2021-11-21T22:38:31.166Z</time>
      </trkpt>
      <trkpt lat="47.508281" lon="8.014277">
        <ele>352.356050</ele>
        <time>2021-11-21T22:38:33.961Z</time>
      </trkpt>
      <trkpt lat="47.508214" lon="8.014183">
        <ele>352.446054</ele>
        <time>2021-11-21T22:38:35.874Z</time>
      </trkpt>
      <trkpt lat="47.508075" lon="8.014054">
        <ele>352.606015</ele>
        <time>2021-11-21T22:38:39.749Z</time>
      </trkpt>
      <trkpt lat="47.508011" lon="8.013995">
        <ele>352.679527</ele>
        <time>2021-11-21T22:38:41.373Z</time>
      </trkpt>
      <trkpt lat="47.507595" lon="8.013616">
        <ele>353.155801</ele>
        <time>2021-11-21T22:38:50.756Z</time>
      </trkpt>
      <trkpt lat="47.507559" lon="8.013585">
        <ele>353.196409</ele>
        <time>2021-11-21T22:38:51.507Z</time>
      </trkpt>
      <trkpt lat="47.507231" lon="8.013292">
        <ele>353.569937</ele>
        <time>2021-11-21T22:38:58.199Z</time>
      </trkpt>
      <trkpt lat="47.507191" lon="8.013279">
        <ele>353.609867</ele>
        <time>2021-11-21T22:38:58.881Z</time>
      </trkpt>
      <trkpt lat="47.507106" lon="8.013288">
        <ele>353.692958</ele>
        <time>2021-11-21T22:39:00.356Z</time>
      </trkpt>
      <trkpt lat="47.507084" lon="8.013290">
        <ele>353.714449</ele>
        <time>2021-11-21T22:39:00.647Z</time>
      </trkpt>
      <trkpt lat="47.507038" lon="8.013279">
        <ele>353.759882</ele>
        <time>2021-11-21T22:39:01.348Z</time>
      </trkpt>
      <trkpt lat="47.507007" lon="8.013263">
        <ele>353.791893</ele>
        <time>2021-11-21T22:39:01.801Z</time>
      </trkpt>
      <trkpt lat="47.506989" lon="8.013246">
        <ele>353.812711</ele>
        <time>2021-11-21T22:39:02.114Z</time>
      </trkpt>
      <trkpt lat="47.506955" lon="8.013213">
        <ele>353.852353</ele>
        <time>2021-11-21T22:39:02.723Z</time>
      </trkpt>
      <trkpt lat="47.506929" lon="8.013191">
        <ele>353.881553</ele>
        <time>2021-11-21T22:39:03.198Z</time>
      </trkpt>
      <trkpt lat="47.506890" lon="8.013159">
        <ele>353.925030</ele>
        <time>2021-11-21T22:39:03.850Z</time>
      </trkpt>
      <trkpt lat="47.506825" lon="8.013107">
        <ele>353.997070</ele>
        <time>2021-11-21T22:39:04.874Z</time>
      </trkpt>
      <trkpt lat="47.506760" lon="8.013057">
        <ele>354.063471</ele>
        <time>2021-11-21T22:39:05.878Z</time>
      </trkpt>
      <trkpt lat="47.506697" lon="8.013001">
        <ele>354.053219</ele>
        <time>2021-11-21T22:39:06.881Z</time>
      </trkpt>
      <trkpt lat="47.506663" lon="8.012973">
        <ele>354.047791</ele>
        <time>2021-11-21T22:39:07.454Z</time>
      </trkpt>
      <trkpt lat="47.506633" lon="8.012949">
        <ele>354.043034</ele>
        <time>2021-11-21T22:39:07.950Z</time>
      </trkpt>
      <trkpt lat="47.506533" lon="8.012868">
        <ele>354.027131</ele>
        <time>2021-11-21T22:39:09.475Z</time>
      </trkpt>
      <trkpt lat="47.506492" lon="8.012798">
        <ele>354.018399</ele>
        <time>2021-11-21T22:39:10.357Z</time>
      </trkpt>
      <trkpt lat="47.506472" lon="8.012743">
        <ele>354.012513</ele>
        <time>2021-11-21T22:39:10.868Z</time>
      </trkpt>
      <trkpt lat="47.506389" lon="8.012514">
        <ele>353.988021</ele>
        <time>2021-11-21T22:39:13.116Z</time>
      </trkpt>
      <trkpt lat="47.506346" lon="8.012464">
        <ele>353.980393</ele>
        <time>2021-11-21T22:39:13.837Z</time>
      </trkpt>
      <trkpt lat="47.506308" lon="8.012429">
        <ele>353.974149</ele>
        <time>2021-11-21T22:39:14.421Z</time>
      </trkpt>
      <trkpt lat="47.506101" lon="8.012240">
        <ele>353.940219</ele>
        <time>2021-11-21T22:39:17.495Z</time>
      </trkpt>
      <trkpt lat="47.505808" lon="8.011926">
        <ele>353.889754</ele>
        <time>2021-11-21T22:39:22.122Z</time>
      </trkpt>
      <trkpt lat="47.505388" lon="8.011390">
        <ele>353.823540</ele>
        <time>2021-11-21T22:39:30.791Z</time>
      </trkpt>
      <trkpt lat="47.505237" lon="8.011270">
        <ele>354.143237</ele>
        <time>2021-11-21T22:39:33.773Z</time>
      </trkpt>
      <trkpt lat="47.504446" lon="8.010688">
        <ele>355.790977</ele>
        <time>2021-11-21T22:39:52.749Z</time>
      </trkpt>
      <trkpt lat="47.504256" lon="8.010566">
        <ele>356.177309</ele>
        <time>2021-11-21T22:39:57.842Z</time>
      </trkpt>
      <trkpt lat="47.504178" lon="8.010516">
        <ele>356.335866</ele>
        <time>2021-11-21T22:40:00.043Z</time>
      </trkpt>
      <trkpt lat="47.504018" lon="8.010447">
        <ele>356.646737</ele>
        <time>2021-11-21T22:40:04.933Z</time>
      </trkpt>
      <trkpt lat="47.503467" lon="8.010296">
        <ele>357.843554</ele>
        <time>2021-11-21T22:40:18.833Z</time>
      </trkpt>
      <trkpt lat="47.502991" lon="8.010405">
        <ele>359.002004</ele>
        <time>2021-11-21T22:40:31.392Z</time>
      </trkpt>
      <trkpt lat="47.502959" lon="8.010415">
        <ele>359.080664</ele>
        <time>2021-11-21T22:40:33.000Z</time>
      </trkpt>
      <trkpt lat="47.502773" lon="8.009928">
        <ele>359.989635</ele>
        <time>2021-11-21T22:40:42.793Z</time>
      </trkpt>
      <trkpt lat="47.502641" lon="8.009680">
        <ele>360.502623</ele>
        <time>2021-11-21T22:40:47.079Z</time>
      </trkpt>
      <trkpt lat="47.502522" lon="8.009457">
        <ele>360.964356</ele>
        <time>2021-11-21T22:40:51.606Z</time>
      </trkpt>
      <trkpt lat="47.502267" lon="8.008979">
        <ele>361.669950</ele>
        <time>2021-11-21T22:41:00.233Z</time>
      </trkpt>
      <trkpt lat="47.502158" lon="8.008808">
        <ele>361.815928</ele>
        <time>2021-11-21T22:41:03.278Z</time>
      </trkpt>
      <trkpt lat="47.502062" lon="8.008650">
        <ele>361.947874</ele>
        <time>2021-11-21T22:41:06.641Z</time>
      </trkpt>
      <trkpt lat="47.501943" lon="8.008353">
        <ele>362.162279</ele>
        <time>2021-11-21T22:41:10.885Z</time>
      </trkpt>
      <trkpt lat="47.501537" lon="8.007308">
        <ele>362.910783</ele>
        <time>2021-11-21T22:41:25.093Z</time>
      </trkpt>
      <trkpt lat="47.501496" lon="8.007247">
        <ele>362.964211</ele>
        <time>2021-11-21T22:41:26.124Z</time>
      </trkpt>
      <trkpt lat="47.501293" lon="8.006936">
        <ele>363.205395</ele>
        <time>2021-11-21T22:41:30.920Z</time>
      </trkpt>
      <trkpt lat="47.501276" lon="8.006911">
        <ele>363.220364</ele>
        <time>2021-11-21T22:41:31.296Z</time>
      </trkpt>
      <trkpt lat="47.500997" lon="8.006551">
        <ele>363.451554</ele>
        <time>2021-11-21T22:41:37.040Z</time>
      </trkpt>
      <trkpt lat="47.500764" lon="8.006290">
        <ele>363.634071</ele>
        <time>2021-11-21T22:41:41.523Z</time>
      </trkpt>
      <trkpt lat="47.500647" lon="8.006180">
        <ele>363.720649</ele>
        <time>2021-11-21T22:41:44.681Z</time>
      </trkpt>
      <trkpt lat="47.500540" lon="8.006079">
        <ele>363.799917</ele>
        <time>2021-11-21T22:41:46.349Z</time>
      </trkpt>
      <trkpt lat="47.500310" lon="8.005852">
        <ele>363.972590</ele>
        <time>2021-11-21T22:41:51.344Z</time>
      </trkpt>
      <trkpt lat="47.500252" lon="8.005784">
        <ele>364.018807</ele>
        <time>2021-11-21T22:41:52.510Z</time>
      </trkpt>
      <trkpt lat="47.500207" lon="8.005727">
        <ele>364.055802</ele>
        <time>2021-11-21T22:41:53.399Z</time>
      </trkpt>
      <trkpt lat="47.500009" lon="8.005488">
        <ele>364.215389</ele>
        <time>2021-11-21T22:41:58.335Z</time>
      </trkpt>
      <trkpt lat="47.499991" lon="8.005468">
        <ele>364.229448</ele>
        <time>2021-11-21T22:41:58.694Z</time>
      </trkpt>
      <trkpt lat="47.499880" lon="8.005358">
        <ele>364.362860</ele>
        <time>2021-11-21T22:42:01.082Z</time>
      </trkpt>
      <trkpt lat="47.499856" lon="8.005338">
        <ele>364.400545</ele>
        <time>2021-11-21T22:42:01.571Z</time>
      </trkpt>
      <trkpt lat="47.499770" lon="8.005268">
        <ele>364.534832</ele>
        <time>2021-11-21T22:42:04.323Z</time>
      </trkpt>
      <trkpt lat="47.499523" lon="8.005078">
        <ele>364.915702</ele>
        <time>2021-11-21T22:42:09.054Z</time>
      </trkpt>
      <trkpt lat="47.499496" lon="8.005059">
        <ele>364.956607</ele>
        <time>2021-11-21T22:42:10.400Z</time>
      </trkpt>
      <trkpt lat="47.499409" lon="8.005000">
        <ele>365.087544</ele>
        <time>2021-11-21T22:42:11.858Z</time>
      </trkpt>
      <trkpt lat="47.499183" lon="8.004875">
        <ele>365.417652</ele>
        <time>2021-11-21T22:42:16.422Z</time>
      </trkpt>
      <trkpt lat="47.499012" lon="8.004762">
        <ele>365.673881</ele>
        <time>2021-11-21T22:42:20.092Z</time>
      </trkpt>
      <trkpt lat="47.498965" lon="8.004710">
        <ele>365.754168</ele>
        <time>2021-11-21T22:42:21.254Z</time>
      </trkpt>
      <trkpt lat="47.498898" lon="8.004636">
        <ele>365.868550</ele>
        <time>2021-11-21T22:42:22.915Z</time>
      </trkpt>
      <trkpt lat="47.498753" lon="8.004410">
        <ele>366.156658</ele>
        <time>2021-11-21T22:42:27.402Z</time>
      </trkpt>
      <trkpt lat="47.498698" lon="8.004313">
        <ele>366.273718</ele>
        <time>2021-11-21T22:42:29.297Z</time>
      </trkpt>
      <trkpt lat="47.498450" lon="8.003874">
        <ele>366.827980</ele>
        <time>2021-11-21T22:42:38.092Z</time>
      </trkpt>
      <trkpt lat="47.498213" lon="8.003454">
        <ele>367.514430</ele>
        <time>2021-11-21T22:42:46.285Z</time>
      </trkpt>
      <trkpt lat="47.498166" lon="8.003383">
        <ele>367.639120</ele>
        <time>2021-11-21T22:42:47.713Z</time>
      </trkpt>
      <trkpt lat="47.498072" lon="8.003250">
        <ele>367.880566</ele>
        <time>2021-11-21T22:42:50.461Z</time>
      </trkpt>
      <trkpt lat="47.497951" lon="8.003094">
        <ele>368.178506</ele>
        <time>2021-11-21T22:42:54.296Z</time>
      </trkpt>
      <trkpt lat="47.497607" lon="8.002710">
        <ele>368.978498</ele>
        <time>2021-11-21T22:43:03.696Z</time>
      </trkpt>
      <trkpt lat="47.497540" lon="8.002634">
        <ele>369.135229</ele>
        <time>2021-11-21T22:43:05.555Z</time>
      </trkpt>
      <trkpt lat="47.497390" lon="8.002409">
        <ele>369.531752</ele>
        <time>2021-11-21T22:43:10.290Z</time>
      </trkpt>
      <trkpt lat="47.497307" lon="8.002279">
        <ele>369.756125</ele>
        <time>2021-11-21T22:43:12.872Z</time>
      </trkpt>
      <trkpt lat="47.497264" lon="8.002219">
        <ele>369.865849</ele>
        <time>2021-11-21T22:43:14.414Z</time>
      </trkpt>
      <trkpt lat="47.497207" lon="8.002132">
        <ele>370.017873</ele>
        <time>2021-11-21T22:43:16.042Z</time>
      </trkpt>
      <trkpt lat="47.496932" lon="8.001715">
        <ele>370.577471</ele>
        <time>2021-11-21T22:43:25.158Z</time>
      </trkpt>
      <trkpt lat="47.496908" lon="8.001680">
        <ele>370.624200</ele>
        <time>2021-11-21T22:43:25.903Z</time>
      </trkpt>
      <trkpt lat="47.496861" lon="8.001608">
        <ele>370.718014</ele>
        <time>2021-11-21T22:43:27.414Z</time>
      </trkpt>
      <trkpt lat="47.496820" lon="8.001547">
        <ele>370.798642</ele>
        <time>2021-11-21T22:43:28.730Z</time>
      </trkpt>
      <trkpt lat="47.496585" lon="8.001187">
        <ele>371.267714</ele>
        <time>2021-11-21T22:43:35.830Z</time>
      </trkpt>
      <trkpt lat="47.496535" lon="8.001108">
        <ele>371.369149</ele>
        <time>2021-11-21T22:43:37.388Z</time>
      </trkpt>
      <trkpt lat="47.496533" lon="8.001104">
        <ele>371.373812</ele>
        <time>2021-11-21T22:43:37.461Z</time>
      </trkpt>
      <trkpt lat="47.496517" lon="8.001077">
        <ele>371.407465</ele>
        <time>2021-11-21T22:43:38.262Z</time>
      </trkpt>
      <trkpt lat="47.496429" lon="8.000925">
        <ele>371.595038</ele>
        <time>2021-11-21T22:43:40.591Z</time>
      </trkpt>
      <trkpt lat="47.496280" lon="8.000664">
        <ele>371.915228</ele>
        <time>2021-11-21T22:43:45.454Z</time>
      </trkpt>
      <trkpt lat="47.496272" lon="8.000651">
        <ele>371.931705</ele>
        <time>2021-11-21T22:43:45.664Z</time>
      </trkpt>
      <trkpt lat="47.496234" lon="8.000584">
        <ele>372.013677</ele>
        <time>2021-11-21T22:43:46.554Z</time>
      </trkpt>
      <trkpt lat="47.496011" lon="8.000286">
        <ele>372.430374</ele>
        <time>2021-11-21T22:43:52.248Z</time>
      </trkpt>
      <trkpt lat="47.495718" lon="8.000005">
        <ele>372.664116</ele>
        <time>2021-11-21T22:43:58.405Z</time>
      </trkpt>
      <trkpt lat="47.495430" lon="7.999752">
        <ele>372.794789</ele>
        <time>2021-11-21T22:44:03.928Z</time>
      </trkpt>
      <trkpt lat="47.495197" lon="7.999589">
        <ele>372.895343</ele>
        <time>2021-11-21T22:44:08.117Z</time>
      </trkpt>
      <trkpt lat="47.494812" lon="7.999457">
        <ele>373.049539</ele>
        <time>2021-11-21T22:44:14.324Z</time>
      </trkpt>
      <trkpt lat="47.494643" lon="7.999430">
        <ele>373.115861</ele>
        <time>2021-11-21T22:44:16.974Z</time>
      </trkpt>
      <trkpt lat="47.494489" lon="7.999417">
        <ele>373.176046</ele>
        <time>2021-11-21T22:44:19.121Z</time>
      </trkpt>
      <trkpt lat="47.494272" lon="7.999381">
        <ele>373.261244</ele>
        <time>2021-11-21T22:44:22.324Z</time>
      </trkpt>
      <trkpt lat="47.493961" lon="7.999292">
        <ele>373.574685</ele>
        <time>2021-11-21T22:44:27.253Z</time>
      </trkpt>
      <trkpt lat="47.493937" lon="7.999285">
        <ele>373.599719</ele>
        <time>2021-11-21T22:44:27.795Z</time>
      </trkpt>
      <trkpt lat="47.493742" lon="7.999216">
        <ele>373.804900</ele>
        <time>2021-11-21T22:44:31.097Z</time>
      </trkpt>
      <trkpt lat="47.493603" lon="7.999152">
        <ele>373.953874</ele>
        <time>2021-11-21T22:44:33.759Z</time>
      </trkpt>
      <trkpt lat="47.493502" lon="7.999071">
        <ele>374.071434</ele>
        <time>2021-11-21T22:44:35.838Z</time>
      </trkpt>
      <trkpt lat="47.493433" lon="7.998996">
        <ele>374.159045</ele>
        <time>2021-11-21T22:44:37.272Z</time>
      </trkpt>
      <trkpt lat="47.493358" lon="7.998911">
        <ele>374.255717</ele>
        <time>2021-11-21T22:44:38.916Z</time>
      </trkpt>
      <trkpt lat="47.493296" lon="7.998833">
        <ele>374.338992</ele>
        <time>2021-11-21T22:44:40.657Z</time>
      </trkpt>
      <trkpt lat="47.493144" lon="7.998645">
        <ele>374.541712</ele>
        <time>2021-11-21T22:44:44.215Z</time>
      </trkpt>
      <trkpt lat="47.492877" lon="7.998257">
        <ele>374.924649</ele>
        <time>2021-11-21T22:44:52.616Z</time>
      </trkpt>
      <trkpt lat="47.492747" lon="7.998084">
        <ele>375.103561</ele>
        <time>2021-11-21T22:44:56.668Z</time>
      </trkpt>
      <trkpt lat="47.492722" lon="7.998050">
        <ele>375.171877</ele>
        <time>2021-11-21T22:44:57.331Z</time>
      </trkpt>
      <trkpt lat="47.492617" lon="7.997908">
        <ele>375.481558</ele>
        <time>2021-11-21T22:45:00.718Z</time>
      </trkpt>
      <trkpt lat="47.492477" lon="7.997747">
        <ele>375.867578</ele>
        <time>2021-11-21T22:45:04.759Z</time>
      </trkpt>
      <trkpt lat="47.492317" lon="7.997637">
        <ele>376.251689</ele>
        <time>2021-11-21T22:45:09.050Z</time>
      </trkpt>
      <trkpt lat="47.491886" lon="7.997365">
        <ele>377.271837</ele>
        <time>2021-11-21T22:45:20.099Z</time>
      </trkpt>
      <trkpt lat="47.491854" lon="7.997405">
        <ele>377.363035</ele>
        <time>2021-11-21T22:45:21.355Z</time>
      </trkpt>
      <trkpt lat="47.491748" lon="7.997367">
        <ele>377.600497</ele>
        <time>2021-11-21T22:45:24.418Z</time>
      </trkpt>
      <trkpt lat="47.491680" lon="7.997343">
        <ele>377.752701</ele>
        <time>2021-11-21T22:45:26.963Z</time>
      </trkpt>
      <trkpt lat="47.490780" lon="7.996642">
        <ele>379.866070</ele>
        <time>2021-11-21T22:45:56.420Z</time>
      </trkpt>
      <trkpt lat="47.489284" lon="7.995053">
        <ele>383.351775</ele>
        <time>2021-11-21T22:46:47.396Z</time>
      </trkpt>
      <trkpt lat="47.488959" lon="7.994757">
        <ele>384.018202</ele>
        <time>2021-11-21T22:46:57.838Z</time>
      </trkpt>
      <trkpt lat="47.488246" lon="7.994102">
        <ele>385.483733</ele>
        <time>2021-11-21T22:47:20.566Z</time>
      </trkpt>
      <trkpt lat="47.487633" lon="7.993524">
        <ele>386.380194</ele>
        <time>2021-11-21T22:47:39.399Z</time>
      </trkpt>
      <trkpt lat="47.487213" lon="7.993014">
        <ele>387.004677</ele>
        <time>2021-11-21T22:47:52.743Z</time>
      </trkpt>
      <trkpt lat="47.486383" lon="7.991737">
        <ele>388.278364</ele>
        <time>2021-11-21T22:48:21.085Z</time>
      </trkpt>
      <trkpt lat="47.486334" lon="7.991668">
        <ele>388.343870</ele>
        <time>2021-11-21T22:48:22.651Z</time>
      </trkpt>
      <trkpt lat="47.486260" lon="7.991591">
        <ele>388.431480</ele>
        <time>2021-11-21T22:48:24.947Z</time>
      </trkpt>
      <trkpt lat="47.486129" lon="7.991440">
        <ele>388.592295</ele>
        <time>2021-11-21T22:48:28.778Z</time>
      </trkpt>
      <trkpt lat="47.486063" lon="7.991399">
        <ele>388.661617</ele>
        <time>2021-11-21T22:48:30.422Z</time>
      </trkpt>
      <trkpt lat="47.485991" lon="7.991440">
        <ele>388.736330</ele>
        <time>2021-11-21T22:48:31.872Z</time>
      </trkpt>
      <trkpt lat="47.485898" lon="7.991482">
        <ele>388.830498</ele>
        <time>2021-11-21T22:48:33.805Z</time>
      </trkpt>
      <trkpt lat="47.485635" lon="7.991515">
        <ele>389.086116</ele>
        <time>2021-11-21T22:48:38.535Z</time>
      </trkpt>
      <trkpt lat="47.485528" lon="7.991512">
        <ele>389.189760</ele>
        <time>2021-11-21T22:48:40.816Z</time>
      </trkpt>
      <trkpt lat="47.484597" lon="7.991511">
        <ele>390.287233</ele>
        <time>2021-11-21T22:48:58.908Z</time>
      </trkpt>
      <trkpt lat="47.484196" lon="7.991380">
        <ele>390.810578</ele>
        <time>2021-11-21T22:49:07.157Z</time>
      </trkpt>
      <trkpt lat="47.484004" lon="7.991285">
        <ele>391.068581</ele>
        <time>2021-11-21T22:49:11.398Z</time>
      </trkpt>
      <trkpt lat="47.483794" lon="7.991174">
        <ele>391.352769</ele>
        <time>2021-11-21T22:49:15.661Z</time>
      </trkpt>
      <trkpt lat="47.483302" lon="7.991001">
        <ele>392.043793</ele>
        <time>2021-11-21T22:49:25.888Z</time>
      </trkpt>
      <trkpt lat="47.483009" lon="7.990995">
        <ele>392.491673</ele>
        <time>2021-11-21T22:49:31.821Z</time>
      </trkpt>
      <trkpt lat="47.482872" lon="7.991012">
        <ele>392.701806</ele>
        <time>2021-11-21T22:49:34.920Z</time>
      </trkpt>
      <trkpt lat="47.482259" lon="7.991194">
        <ele>393.657423</ele>
        <time>2021-11-21T22:49:47.993Z</time>
      </trkpt>
      <trkpt lat="47.481732" lon="7.991480">
        <ele>394.515387</ele>
        <time>2021-11-21T22:50:00.016Z</time>
      </trkpt>
      <trkpt lat="47.481496" lon="7.991617">
        <ele>394.903016</ele>
        <time>2021-11-21T22:50:05.545Z</time>
      </trkpt>
      <trkpt lat="47.481096" lon="7.991850">
        <ele>395.560315</ele>
        <time>2021-11-21T22:50:14.465Z</time>
      </trkpt>
      <trkpt lat="47.480657" lon="7.991988">
        <ele>396.246541</ele>
        <time>2021-11-21T22:50:23.697Z</time>
      </trkpt>
      <trkpt lat="47.480402" lon="7.991988">
        <ele>396.636444</ele>
        <time>2021-11-21T22:50:29.336Z</time>
      </trkpt>
      <trkpt lat="47.479254" lon="7.991575">
        <ele>398.413093</ele>
        <time>2021-11-21T22:50:53.490Z</time>
      </trkpt>
      <trkpt lat="47.479179" lon="7.991567">
        <ele>398.525162</ele>
        <time>2021-11-21T22:50:55.114Z</time>
      </trkpt>
      <trkpt lat="47.479142" lon="7.991563">
        <ele>398.580453</ele>
        <time>2021-11-21T22:50:55.832Z</time>
      </trkpt>
      <trkpt lat="47.478975" lon="7.991551">
        <ele>398.829641</ele>
        <time>2021-11-21T22:50:59.209Z</time>
      </trkpt>
      <trkpt lat="47.477593" lon="7.991455">
        <ele>401.536113</ele>
        <time>2021-11-21T22:51:28.495Z</time>
      </trkpt>
      <trkpt lat="47.477212" lon="7.991382">
        <ele>402.497988</ele>
        <time>2021-11-21T22:51:37.230Z</time>
      </trkpt>
      <trkpt lat="47.476858" lon="7.991285">
        <ele>403.399370</ele>
        <time>2021-11-21T22:51:46.106Z</time>
      </trkpt>
      <trkpt lat="47.476495" lon="7.991119">
        <ele>404.350635</ele>
        <time>2021-11-21T22:51:56.676Z</time>
      </trkpt>
      <trkpt lat="47.475752" lon="7.990844">
        <ele>408.743828</ele>
        <time>2021-11-21T22:52:23.632Z</time>
      </trkpt>
      <trkpt lat="47.475384" lon="7.990744">
        <ele>410.953961</ele>
        <time>2021-11-21T22:52:38.420Z</time>
      </trkpt>
      <trkpt lat="47.475132" lon="7.990747">
        <ele>412.442570</ele>
        <time>2021-11-21T22:52:48.860Z</time>
      </trkpt>
      <trkpt lat="47.474869" lon="7.990750">
        <ele>413.996154</ele>
        <time>2021-11-21T22:53:00.163Z</time>
      </trkpt>
      <trkpt lat="47.474517" lon="7.990869">
        <ele>416.308952</ele>
        <time>2021-11-21T22:53:16.250Z</time>
      </trkpt>
      <trkpt lat="47.473566" lon="7.991189">
        <ele>423.050280</ele>
        <time>2021-11-21T22:54:02.389Z</time>
      </trkpt>
      <trkpt lat="47.473097" lon="7.991272">
        <ele>426.315189</ele>
        <time>2021-11-21T22:54:21.491Z</time>
      </trkpt>
      <trkpt lat="47.472796" lon="7.991311">
        <ele>427.842022</ele>
        <time>2021-11-21T22:54:31.670Z</time>
      </trkpt>
      <trkpt lat="47.472461" lon="7.991354">
        <ele>428.715223</ele>
        <time>2021-11-21T22:54:41.774Z</time>
      </trkpt>
      <trkpt lat="47.471790" lon="7.991484">
        <ele>430.472562</ele>
        <time>2021-11-21T22:54:59.497Z</time>
      </trkpt>
      <trkpt lat="47.471617" lon="7.991535">
        <ele>430.930643</ele>
        <time>2021-11-21T22:55:03.045Z</time>
      </trkpt>
      <trkpt lat="47.470749" lon="7.991887">
        <ele>432.348844</ele>
        <time>2021-11-21T22:55:18.263Z</time>
      </trkpt>
      <trkpt lat="47.470033" lon="7.992305">
        <ele>432.667188</ele>
        <time>2021-11-21T22:55:29.915Z</time>
      </trkpt>
      <trkpt lat="47.469747" lon="7.992506">
        <ele>432.798140</ele>
        <time>2021-11-21T22:55:35.187Z</time>
      </trkpt>
      <trkpt lat="47.469362" lon="7.992773">
        <ele>433.017634</ele>
        <time>2021-11-21T22:55:42.650Z</time>
      </trkpt>
      <trkpt lat="47.468375" lon="7.993424">
        <ele>433.816862</ele>
        <time>2021-11-21T22:56:01.673Z</time>
      </trkpt>
      <trkpt lat="47.468089" lon="7.993593">
        <ele>434.044631</ele>
        <time>2021-11-21T22:56:07.342Z</time>
      </trkpt>
      <trkpt lat="47.467721" lon="7.993817">
        <ele>434.399313</ele>
        <time>2021-11-21T22:56:14.516Z</time>
      </trkpt>
      <trkpt lat="47.467579" lon="7.993896">
        <ele>434.586727</ele>
        <time>2021-11-21T22:56:17.111Z</time>
      </trkpt>
      <trkpt lat="47.467154" lon="7.994150">
        <ele>435.152975</ele>
        <time>2021-11-21T22:56:26.268Z</time>
      </trkpt>
      <trkpt lat="47.466146" lon="7.994726">
        <ele>436.481790</ele>
        <time>2021-11-21T22:56:48.106Z</time>
      </trkpt>
      <trkpt lat="47.465905" lon="7.994879">
        <ele>436.690364</ele>
        <time>2021-11-21T22:56:53.622Z</time>
      </trkpt>
      <trkpt lat="47.465772" lon="7.994973">
        <ele>436.807593</ele>
        <time>2021-11-21T22:56:56.790Z</time>
      </trkpt>
      <trkpt lat="47.465613" lon="7.995104">
        <ele>436.952338</ele>
        <time>2021-11-21T22:57:00.179Z</time>
      </trkpt>
      <trkpt lat="47.465230" lon="7.995479">
        <ele>437.317621</ele>
        <time>2021-11-21T22:57:08.626Z</time>
      </trkpt>
      <trkpt lat="47.465119" lon="7.995595">
        <ele>437.425709</ele>
        <time>2021-11-21T22:57:11.318Z</time>
      </trkpt>
      <trkpt lat="47.465105" lon="7.995610">
        <ele>437.439457</ele>
        <time>2021-11-21T22:57:11.492Z</time>
      </trkpt>
      <trkpt lat="47.464249" lon="7.996297">
        <ele>437.856308</ele>
        <time>2021-11-21T22:57:27.219Z</time>
      </trkpt>
      <trkpt lat="47.464131" lon="7.996368">
        <ele>437.841746</ele>
        <time>2021-11-21T22:57:28.870Z</time>
      </trkpt>
      <trkpt lat="47.463691" lon="7.996686">
        <ele>437.785768</ele>
        <time>2021-11-21T22:57:35.237Z</time>
      </trkpt>
      <trkpt lat="47.463326" lon="7.997031">
        <ele>437.736253</ele>
        <time>2021-11-21T22:57:41.244Z</time>
      </trkpt>
      <trkpt lat="47.463107" lon="7.997172">
        <ele>437.708951</ele>
        <time>2021-11-21T22:57:44.426Z</time>
      </trkpt>
      <trkpt lat="47.463019" lon="7.997210">
        <ele>437.698472</ele>
        <time>2021-11-21T22:57:45.857Z</time>
      </trkpt>
      <trkpt lat="47.462705" lon="7.997285">
        <ele>438.096988</ele>
        <time>2021-11-21T22:57:50.871Z</time>
      </trkpt>
      <trkpt lat="47.462598" lon="7.997285">
        <ele>438.243337</ele>
        <time>2021-11-21T22:57:52.703Z</time>
      </trkpt>
      <trkpt lat="47.462350" lon="7.997293">
        <ele>438.582621</ele>
        <time>2021-11-21T22:57:57.275Z</time>
      </trkpt>
      <trkpt lat="47.462299" lon="7.997298">
        <ele>438.652529</ele>
        <time>2021-11-21T22:57:58.343Z</time>
      </trkpt>
      <trkpt lat="47.461927" lon="7.997527">
        <ele>439.203640</ele>
        <time>2021-11-21T22:58:05.945Z</time>
      </trkpt>
      <trkpt lat="47.461552" lon="7.997973">
        <ele>439.861793</ele>
        <time>2021-11-21T22:58:16.320Z</time>
      </trkpt>
      <trkpt lat="47.461502" lon="7.997997">
        <ele>439.933692</ele>
        <time>2021-11-21T22:58:17.856Z</time>
      </trkpt>
      <trkpt lat="47.461438" lon="7.998032">
        <ele>440.027019</ele>
        <time>2021-11-21T22:58:19.209Z</time>
      </trkpt>
      <trkpt lat="47.461284" lon="7.998059">
        <ele>440.501356</ele>
        <time>2021-11-21T22:58:22.992Z</time>
      </trkpt>
      <trkpt lat="47.461300" lon="7.998198">
        <ele>441.041832</ele>
        <time>2021-11-21T22:58:25.504Z</time>
      </trkpt>
      <trkpt lat="47.461368" lon="7.998875">
        <ele>443.665357</ele>
        <time>2021-11-21T22:58:44.192Z</time>
      </trkpt>
      <trkpt lat="47.461364" lon="7.999029">
        <ele>444.256097</ele>
        <time>2021-11-21T22:58:47.994Z</time>
      </trkpt>
      <trkpt lat="47.461358" lon="7.999105">
        <ele>444.549396</ele>
        <time>2021-11-21T22:58:49.861Z</time>
      </trkpt>
      <trkpt lat="47.461337" lon="7.999448">
        <ele>445.869546</ele>
        <time>2021-11-21T22:58:59.492Z</time>
      </trkpt>
      <trkpt lat="47.461342" lon="7.999620">
        <ele>446.529457</ele>
        <time>2021-11-21T22:59:04.580Z</time>
      </trkpt>
      <trkpt lat="47.461344" lon="7.999697">
        <ele>446.824827</ele>
        <time>2021-11-21T22:59:06.704Z</time>
      </trkpt>
      <trkpt lat="47.461478" lon="8.000145">
        <ele>448.702626</ele>
        <time>2021-11-21T22:59:24.519Z</time>
      </trkpt>
      <trkpt lat="47.461510" lon="8.000292">
        <ele>449.294585</ele>
        <time>2021-11-21T22:59:28.978Z</time>
      </trkpt>
      <trkpt lat="47.461537" lon="8.000414">
        <ele>449.786645</ele>
        <time>2021-11-21T22:59:35.595Z</time>
      </trkpt>
      <trkpt lat="47.461661" lon="8.000696">
        <ele>451.437415</ele>
        <time>2021-11-21T22:59:45.842Z</time>
      </trkpt>
      <trkpt lat="47.461684" lon="8.000834">
        <ele>452.254583</ele>
        <time>2021-11-21T22:59:50.956Z</time>
      </trkpt>
      <trkpt lat="47.461729" lon="8.001155">
        <ele>454.139391</ele>
        <time>2021-11-21T23:00:03.728Z</time>
      </trkpt>
      <trkpt lat="47.461847" lon="8.001490">
        <ele>456.311159</ele>
        <time>2021-11-21T23:00:18.267Z</time>
      </trkpt>
      <trkpt lat="47.461882" lon="8.001606">
        <ele>457.041488</ele>
        <time>2021-11-21T23:00:22.916Z</time>
      </trkpt>
      <trkpt lat="47.461931" lon="8.001828">
        <ele>458.384143</ele>
        <time>2021-11-21T23:00:31.054Z</time>
      </trkpt>
      <trkpt lat="47.461939" lon="8.001862">
        <ele>458.591121</ele>
        <time>2021-11-21T23:00:33.814Z</time>
      </trkpt>
      <trkpt lat="47.462279" lon="8.003233">
        <ele>466.476028</ele>
        <time>2021-11-21T23:01:27.513Z</time>
      </trkpt>
      <trkpt lat="47.462480" lon="8.004780">
        <ele>472.074230</ele>
        <time>2021-11-21T23:02:14.350Z</time>
      </trkpt>
      <trkpt lat="47.462493" lon="8.004947">
        <ele>472.671621</ele>
        <time>2021-11-21T23:02:19.068Z</time>
      </trkpt>
      <trkpt lat="47.462616" lon="8.006075">
        <ele>475.435835</ele>
        <time>2021-11-21T23:02:42.230Z</time>
      </trkpt>
      <trkpt lat="47.462805" lon="8.007456">
        <ele>476.458081</ele>
        <time>2021-11-21T23:03:04.311Z</time>
      </trkpt>
      <trkpt lat="47.462800" lon="8.007890">
        <ele>476.772996</ele>
        <time>2021-11-21T23:03:09.906Z</time>
      </trkpt>
      <trkpt lat="47.462728" lon="8.008388">
        <ele>477.307267</ele>
        <time>2021-11-21T23:03:16.692Z</time>
      </trkpt>
      <trkpt lat="47.462547" lon="8.009129">
        <ele>478.743363</ele>
        <time>2021-11-21T23:03:29.962Z</time>
      </trkpt>
      <trkpt lat="47.462463" lon="8.009587">
        <ele>479.608350</ele>
        <time>2021-11-21T23:03:39.897Z</time>
      </trkpt>
      <trkpt lat="47.462361" lon="8.010261">
        <ele>480.867280</ele>
        <time>2021-11-21T23:03:56.067Z</time>
      </trkpt>
      <trkpt lat="47.462345" lon="8.010623">
        <ele>481.528521</ele>
        <time>2021-11-21T23:04:05.101Z</time>
      </trkpt>
      <trkpt lat="47.462351" lon="8.011574">
        <ele>485.074238</ele>
        <time>2021-11-21T23:04:31.238Z</time>
      </trkpt>
      <trkpt lat="47.462387" lon="8.012673">
        <ele>489.714862</ele>
        <time>2021-11-21T23:05:05.712Z</time>
      </trkpt>
      <trkpt lat="47.463043" lon="8.013715">
        <ele>496.234857</ele>
        <time>2021-11-21T23:05:53.575Z</time>
      </trkpt>
      <trkpt lat="47.463120" lon="8.013943">
        <ele>497.521281</ele>
        <time>2021-11-21T23:06:02.345Z</time>
      </trkpt>
      <trkpt lat="47.463217" lon="8.014264">
        <ele>499.296003</ele>
        <time>2021-11-21T23:06:12.834Z</time>
      </trkpt>
      <trkpt lat="47.463250" lon="8.014644">
        <ele>501.229801</ele>
        <time>2021-11-21T23:06:25.474Z</time>
      </trkpt>
      <trkpt lat="47.463232" lon="8.014758">
        <ele>501.820697</ele>
        <time>2021-11-21T23:06:29.737Z</time>
      </trkpt>
      <trkpt lat="47.463219" lon="8.014847">
        <ele>502.280287</ele>
        <time>2021-11-21T23:06:33.357Z</time>
      </trkpt>
      <trkpt lat="47.463215" lon="8.015260">
        <ele>504.365106</ele>
        <time>2021-11-21T23:06:46.486Z</time>
      </trkpt>
      <trkpt lat="47.463353" lon="8.015951">
        <ele>508.257253</ele>
        <time>2021-11-21T23:07:13.312Z</time>
      </trkpt>
      <trkpt lat="47.463392" lon="8.016476">
        <ele>511.386264</ele>
        <time>2021-11-21T23:07:33.057Z</time>
      </trkpt>
      <trkpt lat="47.463387" lon="8.016679">
        <ele>512.589708</ele>
        <time>2021-11-21T23:07:39.631Z</time>
      </trkpt>
      <trkpt lat="47.463376" lon="8.016772">
        <ele>513.149043</ele>
        <time>2021-11-21T23:07:43.417Z</time>
      </trkpt>
      <trkpt lat="47.463155" lon="8.017375">
        <ele>517.212612</ele>
        <time>2021-11-21T23:08:09.388Z</time>
      </trkpt>
      <trkpt lat="47.463020" lon="8.017608">
        <ele>519.030572</ele>
        <time>2021-11-21T23:08:19.911Z</time>
      </trkpt>
      <trkpt lat="47.462946" lon="8.017608">
        <ele>519.679038</ele>
        <time>2021-11-21T23:08:23.851Z</time>
      </trkpt>
      <trkpt lat="47.462893" lon="8.017638">
        <ele>520.176326</ele>
        <time>2021-11-21T23:08:27.918Z</time>
      </trkpt>
      <trkpt lat="47.462697" lon="8.017842">
        <ele>522.276489</ele>
        <time>2021-11-21T23:08:40.323Z</time>
      </trkpt>
      <trkpt lat="47.462550" lon="8.018136">
        <ele>524.880373</ele>
        <time>2021-11-21T23:08:54.225Z</time>
      </trkpt>
      <trkpt lat="47.462375" lon="8.018705">
        <ele>529.337724</ele>
        <time>2021-11-21T23:09:23.220Z</time>
      </trkpt>
      <trkpt lat="47.462276" lon="8.019450">
        <ele>534.751605</ele>
        <time>2021-11-21T23:09:58.815Z</time>
      </trkpt>
      <trkpt lat="47.461917" lon="8.020044">
        <ele>540.432829</ele>
        <time>2021-11-21T23:10:29.200Z</time>
      </trkpt>
      <trkpt lat="47.461876" lon="8.020114">
        <ele>541.093232</ele>
        <time>2021-11-21T23:10:34.132Z</time>
      </trkpt>
      <trkpt lat="47.461807" lon="8.020106">
        <ele>541.739355</ele>
        <time>2021-11-21T23:10:40.028Z</time>
      </trkpt>
      <trkpt lat="47.461601" lon="8.019727">
        <ele>544.687104</ele>
        <time>2021-11-21T23:10:58.057Z</time>
      </trkpt>
      <trkpt lat="47.461452" lon="8.019724">
        <ele>546.023143</ele>
        <time>2021-11-21T23:11:06.412Z</time>
      </trkpt>
      <trkpt lat="47.461331" lon="8.019932">
        <ele>547.686468</ele>
        <time>2021-11-21T23:11:16.581Z</time>
      </trkpt>
      <trkpt lat="47.461211" lon="8.020459">
        <ele>551.057311</ele>
        <time>2021-11-21T23:11:38.836Z</time>
      </trkpt>
      <trkpt lat="47.461187" lon="8.020595">
        <ele>551.909326</ele>
        <time>2021-11-21T23:11:45.237Z</time>
      </trkpt>
      <trkpt lat="47.461180" lon="8.020713">
        <ele>552.627359</ele>
        <time>2021-11-21T23:11:48.699Z</time>
      </trkpt>
      <trkpt lat="47.461247" lon="8.021482">
        <ele>557.327376</ele>
        <time>2021-11-21T23:12:16.638Z</time>
      </trkpt>
      <trkpt lat="47.461230" lon="8.021853">
        <ele>559.193236</ele>
        <time>2021-11-21T23:12:28.831Z</time>
      </trkpt>
      <trkpt lat="47.461198" lon="8.022092">
        <ele>560.408470</ele>
        <time>2021-11-21T23:12:36.185Z</time>
      </trkpt>
      <trkpt lat="47.461183" lon="8.022421">
        <ele>562.053182</ele>
        <time>2021-11-21T23:12:48.062Z</time>
      </trkpt>
      <trkpt lat="47.461195" lon="8.022702">
        <ele>563.457546</ele>
        <time>2021-11-21T23:12:57.879Z</time>
      </trkpt>
      <trkpt lat="47.461309" lon="8.022996">
        <ele>565.148014</ele>
        <time>2021-11-21T23:13:09.156Z</time>
      </trkpt>
      <trkpt lat="47.461339" lon="8.023072">
        <ele>565.586966</ele>
        <time>2021-11-21T23:13:12.135Z</time>
      </trkpt>
      <trkpt lat="47.461380" lon="8.023218">
        <ele>566.375502</ele>
        <time>2021-11-21T23:13:17.289Z</time>
      </trkpt>
      <trkpt lat="47.461429" lon="8.023771">
        <ele>569.157330</ele>
        <time>2021-11-21T23:13:35.531Z</time>
      </trkpt>
      <trkpt lat="47.461586" lon="8.024171">
        <ele>571.315244</ele>
        <time>2021-11-21T23:13:50.799Z</time>
      </trkpt>
      <trkpt lat="47.461638" lon="8.024286">
        <ele>571.877491</ele>
        <time>2021-11-21T23:13:55.676Z</time>
      </trkpt>
      <trkpt lat="47.461691" lon="8.024411">
        <ele>572.477119</ele>
        <time>2021-11-21T23:14:00.705Z</time>
      </trkpt>
      <trkpt lat="47.461796" lon="8.024804">
        <ele>574.194436</ele>
        <time>2021-11-21T23:14:13.747Z</time>
      </trkpt>
      <trkpt lat="47.461681" lon="8.026929">
        <ele>581.769587</ele>
        <time>2021-11-21T23:15:16.812Z</time>
      </trkpt>
      <trkpt lat="47.461691" lon="8.027108">
        <ele>581.926605</ele>
        <time>2021-11-21T23:15:21.478Z</time>
      </trkpt>
      <trkpt lat="47.461799" lon="8.027899">
        <ele>582.632069</ele>
        <time>2021-11-21T23:15:36.132Z</time>
      </trkpt>
      <trkpt lat="47.461873" lon="8.028392">
        <ele>583.073551</ele>
        <time>2021-11-21T23:15:44.148Z</time>
      </trkpt>
      <trkpt lat="47.461933" lon="8.028834">
        <ele>583.467665</ele>
        <time>2021-11-21T23:15:50.535Z</time>
      </trkpt>
      <trkpt lat="47.462109" lon="8.029966">
        <ele>580.497331</ele>
        <time>2021-11-21T23:16:02.221Z</time>
      </trkpt>
      <trkpt lat="47.462350" lon="8.031178">
        <ele>575.185354</ele>
        <time>2021-11-21T23:16:13.316Z</time>
      </trkpt>
      <trkpt lat="47.462373" lon="8.031511">
        <ele>573.777896</ele>
        <time>2021-11-21T23:16:16.079Z</time>
      </trkpt>
      <trkpt lat="47.462379" lon="8.031757">
        <ele>572.742863</ele>
        <time>2021-11-21T23:16:18.125Z</time>
      </trkpt>
      <trkpt lat="47.462373" lon="8.032001">
        <ele>571.021424</ele>
        <time>2021-11-21T23:16:20.113Z</time>
      </trkpt>
      <trkpt lat="47.462373" lon="8.033192">
        <ele>562.123748</ele>
        <time>2021-11-21T23:16:29.728Z</time>
      </trkpt>
      <trkpt lat="47.462373" lon="8.033621">
        <ele>558.918791</ele>
        <time>2021-11-21T23:16:33.187Z</time>
      </trkpt>
      <trkpt lat="47.462375" lon="8.033773">
        <ele>557.783021</ele>
        <time>2021-11-21T23:16:34.394Z</time>
      </trkpt>
      <trkpt lat="47.462380" lon="8.034146">
        <ele>554.995879</ele>
        <time>2021-11-21T23:16:37.428Z</time>
      </trkpt>
      <trkpt lat="47.462362" lon="8.034337">
        <ele>553.555168</ele>
        <time>2021-11-21T23:16:38.965Z</time>
      </trkpt>
      <trkpt lat="47.462331" lon="8.034502">
        <ele>552.495321</ele>
        <time>2021-11-21T23:16:40.407Z</time>
      </trkpt>
      <trkpt lat="47.462281" lon="8.034693">
        <ele>551.696138</ele>
        <time>2021-11-21T23:16:42.229Z</time>
      </trkpt>
      <trkpt lat="47.462226" lon="8.034870">
        <ele>550.936043</ele>
        <time>2021-11-21T23:16:43.810Z</time>
      </trkpt>
      <trkpt lat="47.462136" lon="8.035062">
        <ele>550.024418</ele>
        <time>2021-11-21T23:16:45.860Z</time>
      </trkpt>
      <trkpt lat="47.461653" lon="8.035466">
        <ele>546.821968</ele>
        <time>2021-11-21T23:16:53.039Z</time>
      </trkpt>
      <trkpt lat="47.461397" lon="8.035684">
        <ele>545.117113</ele>
        <time>2021-11-21T23:16:57.283Z</time>
      </trkpt>
      <trkpt lat="47.461286" lon="8.035791">
        <ele>544.352442</ele>
        <time>2021-11-21T23:16:59.122Z</time>
      </trkpt>
      <trkpt lat="47.461235" lon="8.035864">
        <ele>543.942840</ele>
        <time>2021-11-21T23:17:00.155Z</time>
      </trkpt>
      <trkpt lat="47.461182" lon="8.035965">
        <ele>543.443959</ele>
        <time>2021-11-21T23:17:02.910Z</time>
      </trkpt>
      <trkpt lat="47.461072" lon="8.036522">
        <ele>541.251856</ele>
        <time>2021-11-21T23:17:09.145Z</time>
      </trkpt>
      <trkpt lat="47.461097" lon="8.037424">
        <ele>537.945568</ele>
        <time>2021-11-21T23:17:17.998Z</time>
      </trkpt>
      <trkpt lat="47.461168" lon="8.037764">
        <ele>536.642298</ele>
        <time>2021-11-21T23:17:21.170Z</time>
      </trkpt>
      <trkpt lat="47.461367" lon="8.038298">
        <ele>534.409146</ele>
        <time>2021-11-21T23:17:26.514Z</time>
      </trkpt>
      <trkpt lat="47.461635" lon="8.038726">
        <ele>532.035617</ele>
        <time>2021-11-21T23:17:31.387Z</time>
      </trkpt>
      <trkpt lat="47.461965" lon="8.039189">
        <ele>527.847145</ele>
        <time>2021-11-21T23:17:36.951Z</time>
      </trkpt>
      <trkpt lat="47.462173" lon="8.039480">
        <ele>525.210700</ele>
        <time>2021-11-21T23:17:40.440Z</time>
      </trkpt>
      <trkpt lat="47.462417" lon="8.039830">
        <ele>522.080770</ele>
        <time>2021-11-21T23:17:44.603Z</time>
      </trkpt>
      <trkpt lat="47.462569" lon="8.040161">
        <ele>519.589667</ele>
        <time>2021-11-21T23:17:47.908Z</time>
      </trkpt>
      <trkpt lat="47.462666" lon="8.040604">
        <ele>516.690673</ele>
        <time>2021-11-21T23:17:51.782Z</time>
      </trkpt>
      <trkpt lat="47.462660" lon="8.041216">
        <ele>512.817422</ele>
        <time>2021-11-21T23:17:57.035Z</time>
      </trkpt>
      <trkpt lat="47.462421" lon="8.042204">
        <ele>506.155180</ele>
        <time>2021-11-21T23:18:06.022Z</time>
      </trkpt>
      <trkpt lat="47.462267" lon="8.043211">
        <ele>499.600205</ele>
        <time>2021-11-21T23:18:14.533Z</time>
      </trkpt>
      <trkpt lat="47.462247" lon="8.043410">
        <ele>497.859285</ele>
        <time>2021-11-21T23:18:16.111Z</time>
      </trkpt>
      <trkpt lat="47.462152" lon="8.044127">
        <ele>490.643366</ele>
        <time>2021-11-21T23:18:21.970Z</time>
      </trkpt>
      <trkpt lat="47.462164" lon="8.044494">
        <ele>487.014573</ele>
        <time>2021-11-21T23:18:24.852Z</time>
      </trkpt>
      <trkpt lat="47.462848" lon="8.046191">
        <ele>469.553915</ele>
        <time>2021-11-21T23:18:40.360Z</time>
      </trkpt>
      <trkpt lat="47.462916" lon="8.046487">
        <ele>467.643744</ele>
        <time>2021-11-21T23:18:42.892Z</time>
      </trkpt>
      <trkpt lat="47.462920" lon="8.046833">
        <ele>465.529322</ele>
        <time>2021-11-21T23:18:45.755Z</time>
      </trkpt>
      <trkpt lat="47.462779" lon="8.047919">
        <ele>458.772433</ele>
        <time>2021-11-21T23:18:55.373Z</time>
      </trkpt>
      <trkpt lat="47.462756" lon="8.048151">
        <ele>457.339714</ele>
        <time>2021-11-21T23:18:57.512Z</time>
      </trkpt>
      <trkpt lat="47.462692" lon="8.048578">
        <ele>456.668075</ele>
        <time>2021-11-21T23:19:02.065Z</time>
      </trkpt>
      <trkpt lat="47.462404" lon="8.048445">
        <ele>456.725402</ele>
        <time>2021-11-21T23:19:05.700Z</time>
      </trkpt>
      <trkpt lat="47.461466" lon="8.048031">
        <ele>456.911394</ele>
        <time>2021-11-21T23:19:24.587Z</time>
      </trkpt>
      <trkpt lat="47.461083" lon="8.047963">
        <ele>457.322336</ele>
        <time>2021-11-21T23:19:34.296Z</time>
      </trkpt>
      <trkpt lat="47.460776" lon="8.047954">
        <ele>458.607570</ele>
        <time>2021-11-21T23:19:42.627Z</time>
      </trkpt>
      <trkpt lat="47.460608" lon="8.047981">
        <ele>459.314890</ele>
        <time>2021-11-21T23:19:46.862Z</time>
      </trkpt>
      <trkpt lat="47.460570" lon="8.047988">
        <ele>459.475172</ele>
        <time>2021-11-21T23:19:48.873Z</time>
      </trkpt>
      <trkpt lat="47.460275" lon="8.048132">
        <ele>460.775432</ele>
        <time>2021-11-21T23:19:58.627Z</time>
      </trkpt>
      <trkpt lat="47.460107" lon="8.048213">
        <ele>461.515031</ele>
        <time>2021-11-21T23:20:05.169Z</time>
      </trkpt>
      <trkpt lat="47.459740" lon="8.048503">
        <ele>463.256629</ele>
        <time>2021-11-21T23:20:20.230Z</time>
      </trkpt>
      <trkpt lat="47.459655" lon="8.048568">
        <ele>463.657144</ele>
        <time>2021-11-21T23:20:23.005Z</time>
      </trkpt>
      <trkpt lat="47.459546" lon="8.048650">
        <ele>464.168999</ele>
        <time>2021-11-21T23:20:28.008Z</time>
      </trkpt>
      <trkpt lat="47.459369" lon="8.048737">
        <ele>464.903392</ele>
        <time>2021-11-21T23:20:33.744Z</time>
      </trkpt>
      <trkpt lat="47.459227" lon="8.048808">
        <ele>465.466618</ele>
        <time>2021-11-21T23:20:39.369Z</time>
      </trkpt>
      <trkpt lat="47.459118" lon="8.048828">
        <ele>465.879324</ele>
        <time>2021-11-21T23:20:42.954Z</time>
      </trkpt>
      <trkpt lat="47.459071" lon="8.048837">
        <ele>466.057399</ele>
        <time>2021-11-21T23:20:44.950Z</time>
      </trkpt>
      <trkpt lat="47.458765" lon="8.048904">
        <ele>467.219720</ele>
        <time>2021-11-21T23:20:54.694Z</time>
      </trkpt>
      <trkpt lat="47.458490" lon="8.048954">
        <ele>468.260807</ele>
        <time>2021-11-21T23:21:03.550Z</time>
      </trkpt>
      <trkpt lat="47.458266" lon="8.048995">
        <ele>469.108904</ele>
        <time>2021-11-21T23:21:09.786Z</time>
      </trkpt>
      <trkpt lat="47.457845" lon="8.049210">
        <ele>470.782452</ele>
        <time>2021-11-21T23:21:21.441Z</time>
      </trkpt>
      <trkpt lat="47.457577" lon="8.049600">
        <ele>471.842642</ele>
        <time>2021-11-21T23:21:31.048Z</time>
      </trkpt>
      <trkpt lat="47.457441" lon="8.049923">
        <ele>472.446711</ele>
        <time>2021-11-21T23:21:36.277Z</time>
      </trkpt>
      <trkpt lat="47.457433" lon="8.049943">
        <ele>472.483601</ele>
        <time>2021-11-21T23:21:36.518Z</time>
      </trkpt>
      <trkpt lat="47.457227" lon="8.050454">
        <ele>473.428077</ele>
        <time>2021-11-21T23:21:44.653Z</time>
      </trkpt>
      <trkpt lat="47.457063" lon="8.050750">
        <ele>474.035604</ele>
        <time>2021-11-21T23:21:51.287Z</time>
      </trkpt>
      <trkpt lat="47.456985" lon="8.050845">
        <ele>474.272850</ele>
        <time>2021-11-21T23:21:53.246Z</time>
      </trkpt>
      <trkpt lat="47.456820" lon="8.051046">
        <ele>474.774755</ele>
        <time>2021-11-21T23:21:58.956Z</time>
      </trkpt>
      <trkpt lat="47.456563" lon="8.051295">
        <ele>475.502156</ele>
        <time>2021-11-21T23:22:07.106Z</time>
      </trkpt>
      <trkpt lat="47.456114" lon="8.051697">
        <ele>477.156405</ele>
        <time>2021-11-21T23:22:21.503Z</time>
      </trkpt>
      <trkpt lat="47.455980" lon="8.051817">
        <ele>477.650131</ele>
        <time>2021-11-21T23:22:26.653Z</time>
      </trkpt>
      <trkpt lat="47.455912" lon="8.051878">
        <ele>477.900794</ele>
        <time>2021-11-21T23:22:28.860Z</time>
      </trkpt>
      <trkpt lat="47.455674" lon="8.052090">
        <ele>478.776461</ele>
        <time>2021-11-21T23:22:36.852Z</time>
      </trkpt>
      <trkpt lat="47.455435" lon="8.052304">
        <ele>479.657031</ele>
        <time>2021-11-21T23:22:43.978Z</time>
      </trkpt>
      <trkpt lat="47.455278" lon="8.052443">
        <ele>480.233748</ele>
        <time>2021-11-21T23:22:49.208Z</time>
      </trkpt>
      <trkpt lat="47.455102" lon="8.052621">
        <ele>480.905760</ele>
        <time>2021-11-21T23:22:55.057Z</time>
      </trkpt>
      <trkpt lat="47.455021" lon="8.052703">
        <ele>481.220457</ele>
        <time>2021-11-21T23:22:57.568Z</time>
      </trkpt>
      <trkpt lat="47.454740" lon="8.053121">
        <ele>482.575323</ele>
        <time>2021-11-21T23:23:08.129Z</time>
      </trkpt>
      <trkpt lat="47.454599" lon="8.053302">
        <ele>483.210025</ele>
        <time>2021-11-21T23:23:12.619Z</time>
      </trkpt>
      <trkpt lat="47.454280" lon="8.053495">
        <ele>484.381685</ele>
        <time>2021-11-21T23:23:20.987Z</time>
      </trkpt>
      <trkpt lat="47.454190" lon="8.053504">
        <ele>484.688334</ele>
        <time>2021-11-21T23:23:23.690Z</time>
      </trkpt>
      <trkpt lat="47.454007" lon="8.053484">
        <ele>485.312129</ele>
        <time>2021-11-21T23:23:29.638Z</time>
      </trkpt>
      <trkpt lat="47.453588" lon="8.053338">
        <ele>486.775501</ele>
        <time>2021-11-21T23:23:41.606Z</time>
      </trkpt>
      <trkpt lat="47.453160" lon="8.053216">
        <ele>489.358233</ele>
        <time>2021-11-21T23:23:56.426Z</time>
      </trkpt>
      <trkpt lat="47.452870" lon="8.053142">
        <ele>491.465122</ele>
        <time>2021-11-21T23:24:08.064Z</time>
      </trkpt>
      <trkpt lat="47.452771" lon="8.053113">
        <ele>492.187667</ele>
        <time>2021-11-21T23:24:12.007Z</time>
      </trkpt>
      <trkpt lat="47.452592" lon="8.053064">
        <ele>493.490959</ele>
        <time>2021-11-21T23:24:20.055Z</time>
      </trkpt>
      <trkpt lat="47.452030" lon="8.052767">
        <ele>497.763697</ele>
        <time>2021-11-21T23:24:47.168Z</time>
      </trkpt>
      <trkpt lat="47.451728" lon="8.052549">
        <ele>500.180100</ele>
        <time>2021-11-21T23:25:05.174Z</time>
      </trkpt>
      <trkpt lat="47.451546" lon="8.052392">
        <ele>502.201322</ele>
        <time>2021-11-21T23:25:16.247Z</time>
      </trkpt>
      <trkpt lat="47.451164" lon="8.052019">
        <ele>506.592526</ele>
        <time>2021-11-21T23:25:42.725Z</time>
      </trkpt>
      <trkpt lat="47.450757" lon="8.051663">
        <ele>511.128649</ele>
        <time>2021-11-21T23:26:09.118Z</time>
      </trkpt>
      <trkpt lat="47.450592" lon="8.051537">
        <ele>512.910045</ele>
        <time>2021-11-21T23:26:19.098Z</time>
      </trkpt>
      <trkpt lat="47.450504" lon="8.051491">
        <ele>513.805401</ele>
        <time>2021-11-21T23:26:24.558Z</time>
      </trkpt>
      <trkpt lat="47.450344" lon="8.051426">
        <ele>515.397118</ele>
        <time>2021-11-21T23:26:32.668Z</time>
      </trkpt>
      <trkpt lat="47.450074" lon="8.051371">
        <ele>517.773440</ele>
        <time>2021-11-21T23:26:46.206Z</time>
      </trkpt>
      <trkpt lat="47.449886" lon="8.051364">
        <ele>518.882865</ele>
        <time>2021-11-21T23:26:54.948Z</time>
      </trkpt>
      <trkpt lat="47.449613" lon="8.051437">
        <ele>520.519501</ele>
        <time>2021-11-21T23:27:08.423Z</time>
      </trkpt>
      <trkpt lat="47.449059" lon="8.051793">
        <ele>524.082975</ele>
        <time>2021-11-21T23:27:32.494Z</time>
      </trkpt>
      <trkpt lat="47.448673" lon="8.052159">
        <ele>526.788033</ele>
        <time>2021-11-21T23:27:46.752Z</time>
      </trkpt>
      <trkpt lat="47.448435" lon="8.052444">
        <ele>528.092484</ele>
        <time>2021-11-21T23:27:55.078Z</time>
      </trkpt>
      <trkpt lat="47.448293" lon="8.052662">
        <ele>528.273758</ele>
        <time>2021-11-21T23:28:00.081Z</time>
      </trkpt>
      <trkpt lat="47.447919" lon="8.053237">
        <ele>528.751557</ele>
        <time>2021-11-21T23:28:12.819Z</time>
      </trkpt>
      <trkpt lat="47.447679" lon="8.053483">
        <ele>529.010172</ele>
        <time>2021-11-21T23:28:18.297Z</time>
      </trkpt>
      <trkpt lat="47.447302" lon="8.053642">
        <ele>529.357360</ele>
        <time>2021-11-21T23:28:23.528Z</time>
      </trkpt>
      <trkpt lat="47.446540" lon="8.053621">
        <ele>528.684436</ele>
        <time>2021-11-21T23:28:31.789Z</time>
      </trkpt>
      <trkpt lat="47.446453" lon="8.053638">
        <ele>528.521699</ele>
        <time>2021-11-21T23:28:32.644Z</time>
      </trkpt>
      <trkpt lat="47.446269" lon="8.053688">
        <ele>528.174772</ele>
        <time>2021-11-21T23:28:34.788Z</time>
      </trkpt>
      <trkpt lat="47.446146" lon="8.053729">
        <ele>527.940954</ele>
        <time>2021-11-21T23:28:36.058Z</time>
      </trkpt>
      <trkpt lat="47.446043" lon="8.053773">
        <ele>527.742138</ele>
        <time>2021-11-21T23:28:37.146Z</time>
      </trkpt>
      <trkpt lat="47.445607" lon="8.054011">
        <ele>526.880276</ele>
        <time>2021-11-21T23:28:42.486Z</time>
      </trkpt>
      <trkpt lat="47.445482" lon="8.054086">
        <ele>526.630117</ele>
        <time>2021-11-21T23:28:43.886Z</time>
      </trkpt>
      <trkpt lat="47.445165" lon="8.054338">
        <ele>526.673729</ele>
        <time>2021-11-21T23:28:47.959Z</time>
      </trkpt>
      <trkpt lat="47.444891" lon="8.054624">
        <ele>527.533153</ele>
        <time>2021-11-21T23:28:52.262Z</time>
      </trkpt>
      <trkpt lat="47.444778" lon="8.054764">
        <ele>527.910918</ele>
        <time>2021-11-21T23:28:54.713Z</time>
      </trkpt>
      <trkpt lat="47.444436" lon="8.055191">
        <ele>529.057907</ele>
        <time>2021-11-21T23:29:06.576Z</time>
      </trkpt>
      <trkpt lat="47.444016" lon="8.055716">
        <ele>530.467180</ele>
        <time>2021-11-21T23:29:24.420Z</time>
      </trkpt>
      <trkpt lat="47.443780" lon="8.055984">
        <ele>532.091062</ele>
        <time>2021-11-21T23:29:36.616Z</time>
      </trkpt>
      <trkpt lat="47.443746" lon="8.056022">
        <ele>532.461924</ele>
        <time>2021-11-21T23:29:38.249Z</time>
      </trkpt>
      <trkpt lat="47.443500" lon="8.056201">
        <ele>534.847663</ele>
        <time>2021-11-21T23:29:51.288Z</time>
      </trkpt>
      <trkpt lat="47.443101" lon="8.056388">
        <ele>538.489816</ele>
        <time>2021-11-21T23:30:11.871Z</time>
      </trkpt>
      <trkpt lat="47.443063" lon="8.056406">
        <ele>538.837029</ele>
        <time>2021-11-21T23:30:13.790Z</time>
      </trkpt>
      <trkpt lat="47.442807" lon="8.056482">
        <ele>541.109080</ele>
        <time>2021-11-21T23:30:27.460Z</time>
      </trkpt>
      <trkpt lat="47.442440" lon="8.056586">
        <ele>544.360668</ele>
        <time>2021-11-21T23:30:48.354Z</time>
      </trkpt>
      <trkpt lat="47.442208" lon="8.056646">
        <ele>546.410073</ele>
        <time>2021-11-21T23:31:02.404Z</time>
      </trkpt>
      <trkpt lat="47.441973" lon="8.056692">
        <ele>548.753838</ele>
        <time>2021-11-21T23:31:14.785Z</time>
      </trkpt>
      <trkpt lat="47.441949" lon="8.056694">
        <ele>548.993129</ele>
        <time>2021-11-21T23:31:17.231Z</time>
      </trkpt>
      <trkpt lat="47.441352" lon="8.056727">
        <ele>554.940211</ele>
        <time>2021-11-21T23:31:49.178Z</time>
      </trkpt>
      <trkpt lat="47.441177" lon="8.056749">
        <ele>556.688561</ele>
        <time>2021-11-21T23:32:00.308Z</time>
      </trkpt>
      <trkpt lat="47.439250" lon="8.057494">
        <ele>575.569795</ele>
        <time>2021-11-21T23:33:44.953Z</time>
      </trkpt>
      <trkpt lat="47.439110" lon="8.057501">
        <ele>576.855092</ele>
        <time>2021-11-21T23:33:53.022Z</time>
      </trkpt>
      <trkpt lat="47.438753" lon="8.057449">
        <ele>580.146587</ele>
        <time>2021-11-21T23:34:10.219Z</time>
      </trkpt>
      <trkpt lat="47.438390" lon="8.057522">
        <ele>583.092501</ele>
        <time>2021-11-21T23:34:27.802Z</time>
      </trkpt>
      <trkpt lat="47.438151" lon="8.057748">
        <ele>585.276218</ele>
        <time>2021-11-21T23:34:40.769Z</time>
      </trkpt>
      <trkpt lat="47.437631" lon="8.058564">
        <ele>591.113037</ele>
        <time>2021-11-21T23:35:16.333Z</time>
      </trkpt>
      <trkpt lat="47.436575" lon="8.060226">
        <ele>602.051367</ele>
        <time>2021-11-21T23:36:20.399Z</time>
      </trkpt>
      <trkpt lat="47.436511" lon="8.060328">
        <ele>602.693368</ele>
        <time>2021-11-21T23:36:24.434Z</time>
      </trkpt>
      <trkpt lat="47.436332" lon="8.060550">
        <ele>604.287303</ele>
        <time>2021-11-21T23:36:33.621Z</time>
      </trkpt>
      <trkpt lat="47.436148" lon="8.060668">
        <ele>605.655573</ele>
        <time>2021-11-21T23:36:42.329Z</time>
      </trkpt>
      <trkpt lat="47.435679" lon="8.060767">
        <ele>609.222328</ele>
        <time>2021-11-21T23:37:02.928Z</time>
      </trkpt>
      <trkpt lat="47.435387" lon="8.060864">
        <ele>611.634829</ele>
        <time>2021-11-21T23:37:16.713Z</time>
      </trkpt>
      <trkpt lat="47.434799" lon="8.061205">
        <ele>616.726343</ele>
        <time>2021-11-21T23:37:44.537Z</time>
      </trkpt>
      <trkpt lat="47.434654" lon="8.061257">
        <ele>617.929086</ele>
        <time>2021-11-21T23:37:50.719Z</time>
      </trkpt>
      <trkpt lat="47.434476" lon="8.061251">
        <ele>619.364316</ele>
        <time>2021-11-21T23:38:00.470Z</time>
      </trkpt>
      <trkpt lat="47.434186" lon="8.061122">
        <ele>621.870003</ele>
        <time>2021-11-21T23:38:16.929Z</time>
      </trkpt>
      <trkpt lat="47.434058" lon="8.061001">
        <ele>623.395552</ele>
        <time>2021-11-21T23:38:24.105Z</time>
      </trkpt>
      <trkpt lat="47.433974" lon="8.060897">
        <ele>624.495723</ele>
        <time>2021-11-21T23:38:30.740Z</time>
      </trkpt>
      <trkpt lat="47.433913" lon="8.060781">
        <ele>625.493685</ele>
        <time>2021-11-21T23:38:38.570Z</time>
      </trkpt>
      <trkpt lat="47.433897" lon="8.060733">
        <ele>625.857142</ele>
        <time>2021-11-21T23:38:39.277Z</time>
      </trkpt>
      <trkpt lat="47.433841" lon="8.060561">
        <ele>627.153671</ele>
        <time>2021-11-21T23:38:46.749Z</time>
      </trkpt>
      <trkpt lat="47.433818" lon="8.060443">
        <ele>627.987756</ele>
        <time>2021-11-21T23:38:51.172Z</time>
      </trkpt>
      <trkpt lat="47.433730" lon="8.060519">
        <ele>629.011100</ele>
        <time>2021-11-21T23:38:59.773Z</time>
      </trkpt>
      <trkpt lat="47.433691" lon="8.060591">
        <ele>629.637604</ele>
        <time>2021-11-21T23:39:01.702Z</time>
      </trkpt>
      <trkpt lat="47.433563" lon="8.061773">
        <ele>637.768193</ele>
        <time>2021-11-21T23:39:47.837Z</time>
      </trkpt>
      <trkpt lat="47.433539" lon="8.061973">
        <ele>639.147842</ele>
        <time>2021-11-21T23:39:56.017Z</time>
      </trkpt>
      <trkpt lat="47.433432" lon="8.063843">
        <ele>647.352875</ele>
        <time>2021-11-21T23:40:52.817Z</time>
      </trkpt>
      <trkpt lat="47.433334" lon="8.064796">
        <ele>651.145617</ele>
        <time>2021-11-21T23:41:12.136Z</time>
      </trkpt>
      <trkpt lat="47.433334" lon="8.064968">
        <ele>651.378990</ele>
        <time>2021-11-21T23:41:14.598Z</time>
      </trkpt>
      <trkpt lat="47.433401" lon="8.065135">
        <ele>651.642433</ele>
        <time>2021-11-21T23:41:16.331Z</time>
      </trkpt>
      <trkpt lat="47.433554" lon="8.065256">
        <ele>651.990475</ele>
        <time>2021-11-21T23:41:21.400Z</time>
      </trkpt>
      <trkpt lat="47.433766" lon="8.065315">
        <ele>652.423174</ele>
        <time>2021-11-21T23:41:25.182Z</time>
      </trkpt>
      <trkpt lat="47.434017" lon="8.065303">
        <ele>652.926893</ele>
        <time>2021-11-21T23:41:31.263Z</time>
      </trkpt>
      <trkpt lat="47.434745" lon="8.065087">
        <ele>654.416234</ele>
        <time>2021-11-21T23:41:48.193Z</time>
      </trkpt>
      <trkpt lat="47.434794" lon="8.065101">
        <ele>654.516336</ele>
        <time>2021-11-21T23:41:48.686Z</time>
      </trkpt>
      <trkpt lat="47.434850" lon="8.065142">
        <ele>654.563109</ele>
        <time>2021-11-21T23:41:51.575Z</time>
      </trkpt>
      <trkpt lat="47.435011" lon="8.065633">
        <ele>653.977002</ele>
        <time>2021-11-21T23:41:58.445Z</time>
      </trkpt>
      <trkpt lat="47.435134" lon="8.066208">
        <ele>653.329221</ele>
        <time>2021-11-21T23:42:03.301Z</time>
      </trkpt>
      <trkpt lat="47.435171" lon="8.066354">
        <ele>653.161751</ele>
        <time>2021-11-21T23:42:04.349Z</time>
      </trkpt>
      <trkpt lat="47.435246" lon="8.066744">
        <ele>652.726234</ele>
        <time>2021-11-21T23:42:07.576Z</time>
      </trkpt>
      <trkpt lat="47.435269" lon="8.066847">
        <ele>652.609725</ele>
        <time>2021-11-21T23:42:08.268Z</time>
      </trkpt>
      <trkpt lat="47.435328" lon="8.067121">
        <ele>652.300858</ele>
        <time>2021-11-21T23:42:10.437Z</time>
      </trkpt>
      <trkpt lat="47.435431" lon="8.067627">
        <ele>651.710584</ele>
        <time>2021-11-21T23:42:14.068Z</time>
      </trkpt>
      <trkpt lat="47.435503" lon="8.067966">
        <ele>650.293954</ele>
        <time>2021-11-21T23:42:16.314Z</time>
      </trkpt>
      <trkpt lat="47.435676" lon="8.068459">
        <ele>648.079643</ele>
        <time>2021-11-21T23:42:19.785Z</time>
      </trkpt>
      <trkpt lat="47.436622" lon="8.069777">
        <ele>640.323958</ele>
        <time>2021-11-21T23:42:31.545Z</time>
      </trkpt>
      <trkpt lat="47.436652" lon="8.069782">
        <ele>640.122869</ele>
        <time>2021-11-21T23:42:31.794Z</time>
      </trkpt>
      <trkpt lat="47.436686" lon="8.069773">
        <ele>639.892801</ele>
        <time>2021-11-21T23:42:33.701Z</time>
      </trkpt>
      <trkpt lat="47.437121" lon="8.068991">
        <ele>635.331228</ele>
        <time>2021-11-21T23:42:39.922Z</time>
      </trkpt>
      <trkpt lat="47.437380" lon="8.068624">
        <ele>632.941666</ele>
        <time>2021-11-21T23:42:43.203Z</time>
      </trkpt>
      <trkpt lat="47.437549" lon="8.068492">
        <ele>631.668560</ele>
        <time>2021-11-21T23:42:45.097Z</time>
      </trkpt>
      <trkpt lat="47.437876" lon="8.068472">
        <ele>629.488627</ele>
        <time>2021-11-21T23:42:48.053Z</time>
      </trkpt>
      <trkpt lat="47.438250" lon="8.068552">
        <ele>626.174918</ele>
        <time>2021-11-21T23:42:51.326Z</time>
      </trkpt>
      <trkpt lat="47.438419" lon="8.068754">
        <ele>624.200405</ele>
        <time>2021-11-21T23:42:53.187Z</time>
      </trkpt>
      <trkpt lat="47.438641" lon="8.069393">
        <ele>619.785783</ele>
        <time>2021-11-21T23:42:57.405Z</time>
      </trkpt>
      <trkpt lat="47.438715" lon="8.070016">
        <ele>615.898635</ele>
        <time>2021-11-21T23:43:01.127Z</time>
      </trkpt>
      <trkpt lat="47.438717" lon="8.070139">
        <ele>615.142538</ele>
        <time>2021-11-21T23:43:01.813Z</time>
      </trkpt>
      <trkpt lat="47.438717" lon="8.070261">
        <ele>614.392804</ele>
        <time>2021-11-21T23:43:02.560Z</time>
      </trkpt>
      <trkpt lat="47.438717" lon="8.070432">
        <ele>613.341948</ele>
        <time>2021-11-21T23:43:03.589Z</time>
      </trkpt>
      <trkpt lat="47.438733" lon="8.071591">
        <ele>606.934462</ele>
        <time>2021-11-21T23:43:10.408Z</time>
      </trkpt>
      <trkpt lat="47.438761" lon="8.072680">
        <ele>600.964358</ele>
        <time>2021-11-21T23:43:16.901Z</time>
      </trkpt>
      <trkpt lat="47.438769" lon="8.073159">
        <ele>598.339485</ele>
        <time>2021-11-21T23:43:19.903Z</time>
      </trkpt>
      <trkpt lat="47.438802" lon="8.076162">
        <ele>585.455529</ele>
        <time>2021-11-21T23:43:38.355Z</time>
      </trkpt>
      <trkpt lat="47.438808" lon="8.076440">
        <ele>584.425116</ele>
        <time>2021-11-21T23:43:40.079Z</time>
      </trkpt>
      <trkpt lat="47.438854" lon="8.077729">
        <ele>579.643202</ele>
        <time>2021-11-21T23:43:48.266Z</time>
      </trkpt>
      <trkpt lat="47.438862" lon="8.078789">
        <ele>575.676614</ele>
        <time>2021-11-21T23:43:54.961Z</time>
      </trkpt>
      <trkpt lat="47.438840" lon="8.079017">
        <ele>574.792890</ele>
        <time>2021-11-21T23:43:56.467Z</time>
      </trkpt>
      <trkpt lat="47.438811" lon="8.079350">
        <ele>573.504576</ele>
        <time>2021-11-21T23:43:58.601Z</time>
      </trkpt>
      <trkpt lat="47.438733" lon="8.079954">
        <ele>571.145078</ele>
        <time>2021-11-21T23:44:02.520Z</time>
      </trkpt>
      <trkpt lat="47.438632" lon="8.080671">
        <ele>568.334811</ele>
        <time>2021-11-21T23:44:07.057Z</time>
      </trkpt>
      <trkpt lat="47.438547" lon="8.081275">
        <ele>565.810080</ele>
        <time>2021-11-21T23:44:10.864Z</time>
      </trkpt>
      <trkpt lat="47.438436" lon="8.082004">
        <ele>562.245200</ele>
        <time>2021-11-21T23:44:15.383Z</time>
      </trkpt>
      <trkpt lat="47.438326" lon="8.082717">
        <ele>558.756315</ele>
        <time>2021-11-21T23:44:19.770Z</time>
      </trkpt>
      <trkpt lat="47.438173" lon="8.083781">
        <ele>553.611385</ele>
        <time>2021-11-21T23:44:26.391Z</time>
      </trkpt>
      <trkpt lat="47.438164" lon="8.083842">
        <ele>553.350244</ele>
        <time>2021-11-21T23:44:26.769Z</time>
      </trkpt>
      <trkpt lat="47.438112" lon="8.083945">
        <ele>552.812657</ele>
        <time>2021-11-21T23:44:27.532Z</time>
      </trkpt>
      <trkpt lat="47.438031" lon="8.083992">
        <ele>552.274571</ele>
        <time>2021-11-21T23:44:28.320Z</time>
      </trkpt>
      <trkpt lat="47.437975" lon="8.083964">
        <ele>551.909009</ele>
        <time>2021-11-21T23:44:28.861Z</time>
      </trkpt>
      <trkpt lat="47.437860" lon="8.083715">
        <ele>550.647895</ele>
        <time>2021-11-21T23:44:30.726Z</time>
      </trkpt>
      <trkpt lat="47.437557" lon="8.082140">
        <ele>543.798889</ele>
        <time>2021-11-21T23:44:40.899Z</time>
      </trkpt>
      <trkpt lat="47.437503" lon="8.081856">
        <ele>542.564033</ele>
        <time>2021-11-21T23:44:42.668Z</time>
      </trkpt>
      <trkpt lat="47.437387" lon="8.081264">
        <ele>539.976149</ele>
        <time>2021-11-21T23:44:46.651Z</time>
      </trkpt>
      <trkpt lat="47.437258" lon="8.080640">
        <ele>537.236455</ele>
        <time>2021-11-21T23:44:50.792Z</time>
      </trkpt>
      <trkpt lat="47.437232" lon="8.080595">
        <ele>536.987960</ele>
        <time>2021-11-21T23:44:51.149Z</time>
      </trkpt>
      <trkpt lat="47.437191" lon="8.080569">
        <ele>536.711023</ele>
        <time>2021-11-21T23:44:51.556Z</time>
      </trkpt>
      <trkpt lat="47.437125" lon="8.080553">
        <ele>536.295849</ele>
        <time>2021-11-21T23:44:52.169Z</time>
      </trkpt>
      <trkpt lat="47.437072" lon="8.080572">
        <ele>535.957312</ele>
        <time>2021-11-21T23:44:52.629Z</time>
      </trkpt>
      <trkpt lat="47.436928" lon="8.080783">
        <ele>534.698757</ele>
        <time>2021-11-21T23:44:54.543Z</time>
      </trkpt>
      <trkpt lat="47.436847" lon="8.080902">
        <ele>533.989895</ele>
        <time>2021-11-21T23:44:55.562Z</time>
      </trkpt>
      <trkpt lat="47.436780" lon="8.081213">
        <ele>532.619421</ele>
        <time>2021-11-21T23:44:57.560Z</time>
      </trkpt>
      <trkpt lat="47.436742" lon="8.083751">
        <ele>519.634696</ele>
        <time>2021-11-21T23:45:12.816Z</time>
      </trkpt>
      <trkpt lat="47.436840" lon="8.084846">
        <ele>513.753277</ele>
        <time>2021-11-21T23:45:19.380Z</time>
      </trkpt>
      <trkpt lat="47.436921" lon="8.085388">
        <ele>510.767015</ele>
        <time>2021-11-21T23:45:22.683Z</time>
      </trkpt>
      <trkpt lat="47.437083" lon="8.086303">
        <ele>505.678520</ele>
        <time>2021-11-21T23:45:28.338Z</time>
      </trkpt>
      <trkpt lat="47.437206" lon="8.087000">
        <ele>502.049486</ele>
        <time>2021-11-21T23:45:32.667Z</time>
      </trkpt>
      <trkpt lat="47.437526" lon="8.088839">
        <ele>493.327805</ele>
        <time>2021-11-21T23:45:44.302Z</time>
      </trkpt>
      <trkpt lat="47.437566" lon="8.089464">
        <ele>490.433878</ele>
        <time>2021-11-21T23:45:48.146Z</time>
      </trkpt>
      <trkpt lat="47.437543" lon="8.090167">
        <ele>487.160461</ele>
        <time>2021-11-21T23:45:52.477Z</time>
      </trkpt>
      <trkpt lat="47.437512" lon="8.090475">
        <ele>485.712205</ele>
        <time>2021-11-21T23:45:54.359Z</time>
      </trkpt>
      <trkpt lat="47.437449" lon="8.091081">
        <ele>482.860649</ele>
        <time>2021-11-21T23:45:58.100Z</time>
      </trkpt>
      <trkpt lat="47.437327" lon="8.092095">
        <ele>478.146076</ele>
        <time>2021-11-21T23:46:04.313Z</time>
      </trkpt>
      <trkpt lat="47.436956" lon="8.093402">
        <ele>472.149503</ele>
        <time>2021-11-21T23:46:13.007Z</time>
      </trkpt>
      <trkpt lat="47.436880" lon="8.093951">
        <ele>469.778744</ele>
        <time>2021-11-21T23:46:16.515Z</time>
      </trkpt>
      <trkpt lat="47.436840" lon="8.094305">
        <ele>468.260347</ele>
        <time>2021-11-21T23:46:18.766Z</time>
      </trkpt>
      <trkpt lat="47.436605" lon="8.095337">
        <ele>464.455598</ele>
        <time>2021-11-21T23:46:25.645Z</time>
      </trkpt>
      <trkpt lat="47.436535" lon="8.095602">
        <ele>463.493193</ele>
        <time>2021-11-21T23:46:27.430Z</time>
      </trkpt>
      <trkpt lat="47.436422" lon="8.096087">
        <ele>461.757875</ele>
        <time>2021-11-21T23:46:30.740Z</time>
      </trkpt>
      <trkpt lat="47.436349" lon="8.096291">
        <ele>460.977136</ele>
        <time>2021-11-21T23:46:32.292Z</time>
      </trkpt>
      <trkpt lat="47.436266" lon="8.096607">
        <ele>459.830365</ele>
        <time>2021-11-21T23:46:34.427Z</time>
      </trkpt>
      <trkpt lat="47.436208" lon="8.096829">
        <ele>459.025281</ele>
        <time>2021-11-21T23:46:36.057Z</time>
      </trkpt>
      <trkpt lat="47.436163" lon="8.097026">
        <ele>458.377352</ele>
        <time>2021-11-21T23:46:37.326Z</time>
      </trkpt>
      <trkpt lat="47.436091" lon="8.097832">
        <ele>456.077545</ele>
        <time>2021-11-21T23:46:42.607Z</time>
      </trkpt>
      <trkpt lat="47.436131" lon="8.098445">
        <ele>454.335442</ele>
        <time>2021-11-21T23:46:46.678Z</time>
      </trkpt>
      <trkpt lat="47.436142" lon="8.098546">
        <ele>454.046053</ele>
        <time>2021-11-21T23:46:47.297Z</time>
      </trkpt>
      <trkpt lat="47.436150" lon="8.098616">
        <ele>453.845231</ele>
        <time>2021-11-21T23:46:47.736Z</time>
      </trkpt>
      <trkpt lat="47.436248" lon="8.099120">
        <ele>452.361781</ele>
        <time>2021-11-21T23:46:51.209Z</time>
      </trkpt>
      <trkpt lat="47.436315" lon="8.099419">
        <ele>451.470769</ele>
        <time>2021-11-21T23:46:53.513Z</time>
      </trkpt>
      <trkpt lat="47.436383" lon="8.099657">
        <ele>450.838690</ele>
        <time>2021-11-21T23:46:55.182Z</time>
      </trkpt>
      <trkpt lat="47.436476" lon="8.099978">
        <ele>450.095616</ele>
        <time>2021-11-21T23:46:57.709Z</time>
      </trkpt>
      <trkpt lat="47.436585" lon="8.100263">
        <ele>449.398937</ele>
        <time>2021-11-21T23:46:59.891Z</time>
      </trkpt>
      <trkpt lat="47.436647" lon="8.100422">
        <ele>449.008409</ele>
        <time>2021-11-21T23:47:01.239Z</time>
      </trkpt>
      <trkpt lat="47.436711" lon="8.100563">
        <ele>448.647085</ele>
        <time>2021-11-21T23:47:02.296Z</time>
      </trkpt>
      <trkpt lat="47.437205" lon="8.101657">
        <ele>445.848120</ele>
        <time>2021-11-21T23:47:11.554Z</time>
      </trkpt>
      <trkpt lat="47.437641" lon="8.102393">
        <ele>443.755267</ele>
        <time>2021-11-21T23:47:18.339Z</time>
      </trkpt>
      <trkpt lat="47.437770" lon="8.102600">
        <ele>443.152499</ele>
        <time>2021-11-21T23:47:20.236Z</time>
      </trkpt>
      <trkpt lat="47.437904" lon="8.102800">
        <ele>442.549634</ele>
        <time>2021-11-21T23:47:22.278Z</time>
      </trkpt>
      <trkpt lat="47.438112" lon="8.103073">
        <ele>441.669012</ele>
        <time>2021-11-21T23:47:25.051Z</time>
      </trkpt>
      <trkpt lat="47.438137" lon="8.103139">
        <ele>441.507017</ele>
        <time>2021-11-21T23:47:25.595Z</time>
      </trkpt>
      <trkpt lat="47.438152" lon="8.103203">
        <ele>441.361964</ele>
        <time>2021-11-21T23:47:26.068Z</time>
      </trkpt>
      <trkpt lat="47.438169" lon="8.103294">
        <ele>441.159789</ele>
        <time>2021-11-21T23:47:26.690Z</time>
      </trkpt>
      <trkpt lat="47.438182" lon="8.103370">
        <ele>440.991909</ele>
        <time>2021-11-21T23:47:27.226Z</time>
      </trkpt>
      <trkpt lat="47.438218" lon="8.103493">
        <ele>440.704899</ele>
        <time>2021-11-21T23:47:28.097Z</time>
      </trkpt>
      <trkpt lat="47.438319" lon="8.103594">
        <ele>440.318839</ele>
        <time>2021-11-21T23:47:29.414Z</time>
      </trkpt>
      <trkpt lat="47.438435" lon="8.103708">
        <ele>439.877830</ele>
        <time>2021-11-21T23:47:30.766Z</time>
      </trkpt>
      <trkpt lat="47.438510" lon="8.103795">
        <ele>439.595297</ele>
        <time>2021-11-21T23:47:31.676Z</time>
      </trkpt>
      <trkpt lat="47.438624" lon="8.103965">
        <ele>439.129855</ele>
        <time>2021-11-21T23:47:33.363Z</time>
      </trkpt>
      <trkpt lat="47.438636" lon="8.104004">
        <ele>439.046550</ele>
        <time>2021-11-21T23:47:33.640Z</time>
      </trkpt>
      <trkpt lat="47.438698" lon="8.104222">
        <ele>438.586750</ele>
        <time>2021-11-21T23:47:35.198Z</time>
      </trkpt>
      <trkpt lat="47.438764" lon="8.104599">
        <ele>437.829599</ele>
        <time>2021-11-21T23:47:37.959Z</time>
      </trkpt>
      <trkpt lat="47.438760" lon="8.104786">
        <ele>437.465836</ele>
        <time>2021-11-21T23:47:39.223Z</time>
      </trkpt>
      <trkpt lat="47.438736" lon="8.105033">
        <ele>436.980667</ele>
        <time>2021-11-21T23:47:41.026Z</time>
      </trkpt>
      <trkpt lat="47.438700" lon="8.105458">
        <ele>436.147891</ele>
        <time>2021-11-21T23:47:44.099Z</time>
      </trkpt>
      <trkpt lat="47.438707" lon="8.105651">
        <ele>435.772104</ele>
        <time>2021-11-21T23:47:45.522Z</time>
      </trkpt>
      <trkpt lat="47.438729" lon="8.105870">
        <ele>435.341634</ele>
        <time>2021-11-21T23:47:47.081Z</time>
      </trkpt>
      <trkpt lat="47.438752" lon="8.106005">
        <ele>435.070957</ele>
        <time>2021-11-21T23:47:48.146Z</time>
      </trkpt>
      <trkpt lat="47.438818" lon="8.106296">
        <ele>434.482445</ele>
        <time>2021-11-21T23:47:50.247Z</time>
      </trkpt>
      <trkpt lat="47.438874" lon="8.106523">
        <ele>434.040096</ele>
        <time>2021-11-21T23:47:52.014Z</time>
      </trkpt>
      <trkpt lat="47.438899" lon="8.106626">
        <ele>433.839760</ele>
        <time>2021-11-21T23:47:52.813Z</time>
      </trkpt>
      <trkpt lat="47.438974" lon="8.106907">
        <ele>433.286729</ele>
        <time>2021-11-21T23:47:54.901Z</time>
      </trkpt>
      <trkpt lat="47.439207" lon="8.107635">
        <ele>431.812304</ele>
        <time>2021-11-21T23:48:00.622Z</time>
      </trkpt>
      <trkpt lat="47.439314" lon="8.107942">
        <ele>431.180052</ele>
        <time>2021-11-21T23:48:03.050Z</time>
      </trkpt>
      <trkpt lat="47.439446" lon="8.108296">
        <ele>430.440030</ele>
        <time>2021-11-21T23:48:05.919Z</time>
      </trkpt>
      <trkpt lat="47.439529" lon="8.108595">
        <ele>429.848349</ele>
        <time>2021-11-21T23:48:08.249Z</time>
      </trkpt>
      <trkpt lat="47.439627" lon="8.109005">
        <ele>428.902950</ele>
        <time>2021-11-21T23:48:11.216Z</time>
      </trkpt>
      <trkpt lat="47.439736" lon="8.109646">
        <ele>427.432858</ele>
        <time>2021-11-21T23:48:15.737Z</time>
      </trkpt>
      <trkpt lat="47.439783" lon="8.110028">
        <ele>426.569265</ele>
        <time>2021-11-21T23:48:18.334Z</time>
      </trkpt>
      <trkpt lat="47.439797" lon="8.110143">
        <ele>426.309370</ele>
        <time>2021-11-21T23:48:19.130Z</time>
      </trkpt>
      <trkpt lat="47.439868" lon="8.110864">
        <ele>424.688806</ele>
        <time>2021-11-21T23:48:24.082Z</time>
      </trkpt>
      <trkpt lat="47.439893" lon="8.111132">
        <ele>424.087076</ele>
        <time>2021-11-21T23:48:25.900Z</time>
      </trkpt>
      <trkpt lat="47.440053" lon="8.112608">
        <ele>421.045800</ele>
        <time>2021-11-21T23:48:36.121Z</time>
      </trkpt>
      <trkpt lat="47.440229" lon="8.113672">
        <ele>418.834535</ele>
        <time>2021-11-21T23:48:43.769Z</time>
      </trkpt>
      <trkpt lat="47.440342" lon="8.114157">
        <ele>418.103337</ele>
        <time>2021-11-21T23:48:47.488Z</time>
      </trkpt>
      <trkpt lat="47.440417" lon="8.114455">
        <ele>417.755382</ele>
        <time>2021-11-21T23:48:49.801Z</time>
      </trkpt>
      <trkpt lat="47.440589" lon="8.115040">
        <ele>417.057330</ele>
        <time>2021-11-21T23:48:54.633Z</time>
      </trkpt>
      <trkpt lat="47.441002" lon="8.116649">
        <ele>415.372385</ele>
        <time>2021-11-21T23:49:08.570Z</time>
      </trkpt>
      <trkpt lat="47.441126" lon="8.117583">
        <ele>414.875269</ele>
        <time>2021-11-21T23:49:16.798Z</time>
      </trkpt>
      <trkpt lat="47.441143" lon="8.117969">
        <ele>414.673243</ele>
        <time>2021-11-21T23:49:20.078Z</time>
      </trkpt>
      <trkpt lat="47.441143" lon="8.117969">
        <ele>414.673243</ele>
        <time>2021-11-21T23:49:20.080Z</time>
      </trkpt>
      <trkpt lat="47.441143" lon="8.117969">
        <ele>414.673243</ele>
        <time>2021-11-21T23:49:20.100Z</time>
      </trkpt>
      <trkpt lat="47.441151" lon="8.118249">
        <ele>414.526875</ele>
        <time>2021-11-21T23:49:22.472Z</time>
      </trkpt>
      <trkpt lat="47.441160" lon="8.118632">
        <ele>414.326723</ele>
        <time>2021-11-21T23:49:25.928Z</time>
      </trkpt>
      <trkpt lat="47.441161" lon="8.118889">
        <ele>414.192495</ele>
        <time>2021-11-21T23:49:28.176Z</time>
      </trkpt>
      <trkpt lat="47.441148" lon="8.119325">
        <ele>413.948460</ele>
        <time>2021-11-21T23:49:32.072Z</time>
      </trkpt>
      <trkpt lat="47.441139" lon="8.120050">
        <ele>413.539258</ele>
        <time>2021-11-21T23:49:38.312Z</time>
      </trkpt>
      <trkpt lat="47.441147" lon="8.120369">
        <ele>413.359116</ele>
        <time>2021-11-21T23:49:40.983Z</time>
      </trkpt>
      <trkpt lat="47.441158" lon="8.120592">
        <ele>413.232938</ele>
        <time>2021-11-21T23:49:42.804Z</time>
      </trkpt>
      <trkpt lat="47.441185" lon="8.120992">
        <ele>413.006087</ele>
        <time>2021-11-21T23:49:45.970Z</time>
      </trkpt>
      <trkpt lat="47.441242" lon="8.121608">
        <ele>412.651795</ele>
        <time>2021-11-21T23:49:51.170Z</time>
      </trkpt>
      <trkpt lat="47.441260" lon="8.121851">
        <ele>412.458850</ele>
        <time>2021-11-21T23:49:53.633Z</time>
      </trkpt>
      <trkpt lat="47.441259" lon="8.122119">
        <ele>412.247317</ele>
        <time>2021-11-21T23:49:55.798Z</time>
      </trkpt>
      <trkpt lat="47.441253" lon="8.122860">
        <ele>411.662410</ele>
        <time>2021-11-21T23:50:02.843Z</time>
      </trkpt>
      <trkpt lat="47.441230" lon="8.123139">
        <ele>411.440568</ele>
        <time>2021-11-21T23:50:05.116Z</time>
      </trkpt>
      <trkpt lat="47.441181" lon="8.123600">
        <ele>411.072238</ele>
        <time>2021-11-21T23:50:08.733Z</time>
      </trkpt>
      <trkpt lat="47.441073" lon="8.124657">
        <ele>410.086916</ele>
        <time>2021-11-21T23:50:16.588Z</time>
      </trkpt>
      <trkpt lat="47.441063" lon="8.124846">
        <ele>409.874301</ele>
        <time>2021-11-21T23:50:18.216Z</time>
      </trkpt>
      <trkpt lat="47.441067" lon="8.125024">
        <ele>409.674560</ele>
        <time>2021-11-21T23:50:19.365Z</time>
      </trkpt>
      <trkpt lat="47.441081" lon="8.125303">
        <ele>409.360796</ele>
        <time>2021-11-21T23:50:21.621Z</time>
      </trkpt>
      <trkpt lat="47.441091" lon="8.125443">
        <ele>409.202910</ele>
        <time>2021-11-21T23:50:22.858Z</time>
      </trkpt>
      <trkpt lat="47.441104" lon="8.125606">
        <ele>409.018835</ele>
        <time>2021-11-21T23:50:23.931Z</time>
      </trkpt>
      <trkpt lat="47.441214" lon="8.126456">
        <ele>408.048250</ele>
        <time>2021-11-21T23:50:31.648Z</time>
      </trkpt>
      <trkpt lat="47.441238" lon="8.126576">
        <ele>407.907908</ele>
        <time>2021-11-21T23:50:32.443Z</time>
      </trkpt>
      <trkpt lat="47.441266" lon="8.126867">
        <ele>407.581243</ele>
        <time>2021-11-21T23:50:35.008Z</time>
      </trkpt>
      <trkpt lat="47.441277" lon="8.127183">
        <ele>407.487327</ele>
        <time>2021-11-21T23:50:37.197Z</time>
      </trkpt>
      <trkpt lat="47.441262" lon="8.127516">
        <ele>407.388269</ele>
        <time>2021-11-21T23:50:40.136Z</time>
      </trkpt>
      <trkpt lat="47.441146" lon="8.128500">
        <ele>407.091802</ele>
        <time>2021-11-21T23:50:49.105Z</time>
      </trkpt>
      <trkpt lat="47.440994" lon="8.129640">
        <ele>406.573177</ele>
        <time>2021-11-21T23:51:02.493Z</time>
      </trkpt>
      <trkpt lat="47.440963" lon="8.129769">
        <ele>406.379281</ele>
        <time>2021-11-21T23:51:04.509Z</time>
      </trkpt>
      <trkpt lat="47.440840" lon="8.130427">
        <ele>405.412403</ele>
        <time>2021-11-21T23:51:10.104Z</time>
      </trkpt>
      <trkpt lat="47.440840" lon="8.130492">
        <ele>405.320342</ele>
        <time>2021-11-21T23:51:11.130Z</time>
      </trkpt>
      <trkpt lat="47.440864" lon="8.130592">
        <ele>405.170057</ele>
        <time>2021-11-21T23:51:11.817Z</time>
      </trkpt>
      <trkpt lat="47.440891" lon="8.130708">
        <ele>404.996307</ele>
        <time>2021-11-21T23:51:12.759Z</time>
      </trkpt>
      <trkpt lat="47.440943" lon="8.130809">
        <ele>404.816529</ele>
        <time>2021-11-21T23:51:13.687Z</time>
      </trkpt>
      <trkpt lat="47.440978" lon="8.130862">
        <ele>404.711617</ele>
        <time>2021-11-21T23:51:14.203Z</time>
      </trkpt>
      <trkpt lat="47.441000" lon="8.130897">
        <ele>404.643943</ele>
        <time>2021-11-21T23:51:14.525Z</time>
      </trkpt>
      <trkpt lat="47.441024" lon="8.130926">
        <ele>404.579037</ele>
        <time>2021-11-21T23:51:15.123Z</time>
      </trkpt>
      <trkpt lat="47.441088" lon="8.130997">
        <ele>404.411486</ele>
        <time>2021-11-21T23:51:15.875Z</time>
      </trkpt>
      <trkpt lat="47.441375" lon="8.131552">
        <ele>403.422002</ele>
        <time>2021-11-21T23:51:20.808Z</time>
      </trkpt>
      <trkpt lat="47.441442" lon="8.131718">
        <ele>403.148214</ele>
        <time>2021-11-21T23:51:22.083Z</time>
      </trkpt>
      <trkpt lat="47.441650" lon="8.132354">
        <ele>400.652078</ele>
        <time>2021-11-21T23:51:26.640Z</time>
      </trkpt>
      <trkpt lat="47.441777" lon="8.132790">
        <ele>398.835580</ele>
        <time>2021-11-21T23:51:29.595Z</time>
      </trkpt>
      <trkpt lat="47.442022" lon="8.133657">
        <ele>395.240093</ele>
        <time>2021-11-21T23:51:35.341Z</time>
      </trkpt>
      <trkpt lat="47.442150" lon="8.134033">
        <ele>393.629367</ele>
        <time>2021-11-21T23:51:37.921Z</time>
      </trkpt>
      <trkpt lat="47.442233" lon="8.134253">
        <ele>392.714688</ele>
        <time>2021-11-21T23:51:39.516Z</time>
      </trkpt>
      <trkpt lat="47.442302" lon="8.134411">
        <ele>392.186646</ele>
        <time>2021-11-21T23:51:40.667Z</time>
      </trkpt>
      <trkpt lat="47.442543" lon="8.134882">
        <ele>390.528460</ele>
        <time>2021-11-21T23:51:44.385Z</time>
      </trkpt>
      <trkpt lat="47.442659" lon="8.135081">
        <ele>389.790869</ele>
        <time>2021-11-21T23:51:46.120Z</time>
      </trkpt>
      <trkpt lat="47.442771" lon="8.135257">
        <ele>389.112389</ele>
        <time>2021-11-21T23:51:47.645Z</time>
      </trkpt>
      <trkpt lat="47.443330" lon="8.135975">
        <ele>386.038553</ele>
        <time>2021-11-21T23:51:55.137Z</time>
      </trkpt>
      <trkpt lat="47.443600" lon="8.136309">
        <ele>385.100641</ele>
        <time>2021-11-21T23:51:58.962Z</time>
      </trkpt>
      <trkpt lat="47.443990" lon="8.137008">
        <ele>384.207443</ele>
        <time>2021-11-21T23:52:05.748Z</time>
      </trkpt>
      <trkpt lat="47.444358" lon="8.137486">
        <ele>383.493546</ele>
        <time>2021-11-21T23:52:11.573Z</time>
      </trkpt>
      <trkpt lat="47.444534" lon="8.137663">
        <ele>383.183327</ele>
        <time>2021-11-21T23:52:14.213Z</time>
      </trkpt>
      <trkpt lat="47.444695" lon="8.137798">
        <ele>382.913573</ele>
        <time>2021-11-21T23:52:16.538Z</time>
      </trkpt>
      <trkpt lat="47.444780" lon="8.137842">
        <ele>382.782318</ele>
        <time>2021-11-21T23:52:17.926Z</time>
      </trkpt>
      <trkpt lat="47.444873" lon="8.137885">
        <ele>382.792245</ele>
        <time>2021-11-21T23:52:19.114Z</time>
      </trkpt>
      <trkpt lat="47.445201" lon="8.137885">
        <ele>382.908988</ele>
        <time>2021-11-21T23:52:23.714Z</time>
      </trkpt>
      <trkpt lat="47.445264" lon="8.137860">
        <ele>382.932204</ele>
        <time>2021-11-21T23:52:24.444Z</time>
      </trkpt>
      <trkpt lat="47.445320" lon="8.137827">
        <ele>382.953661</ele>
        <time>2021-11-21T23:52:25.256Z</time>
      </trkpt>
      <trkpt lat="47.445372" lon="8.137789">
        <ele>382.974306</ele>
        <time>2021-11-21T23:52:26.125Z</time>
      </trkpt>
      <trkpt lat="47.445434" lon="8.137740">
        <ele>382.999327</ele>
        <time>2021-11-21T23:52:27.138Z</time>
      </trkpt>
      <trkpt lat="47.445479" lon="8.137706">
        <ele>383.017314</ele>
        <time>2021-11-21T23:52:28.274Z</time>
      </trkpt>
      <trkpt lat="47.445490" lon="8.137703">
        <ele>383.021295</ele>
        <time>2021-11-21T23:52:28.602Z</time>
      </trkpt>
      <trkpt lat="47.445854" lon="8.138048">
        <ele>383.175182</ele>
        <time>2021-11-21T23:52:37.306Z</time>
      </trkpt>
      <trkpt lat="47.446288" lon="8.139006">
        <ele>383.285864</ele>
        <time>2021-11-21T23:52:51.037Z</time>
      </trkpt>
      <trkpt lat="47.446353" lon="8.139246">
        <ele>383.140957</ele>
        <time>2021-11-21T23:52:53.845Z</time>
      </trkpt>
      <trkpt lat="47.446467" lon="8.139635">
        <ele>382.903331</ele>
        <time>2021-11-21T23:52:58.030Z</time>
      </trkpt>
      <trkpt lat="47.446649" lon="8.140082">
        <ele>382.610883</ele>
        <time>2021-11-21T23:53:02.377Z</time>
      </trkpt>
      <trkpt lat="47.446741" lon="8.140284">
        <ele>382.474381</ele>
        <time>2021-11-21T23:53:03.897Z</time>
      </trkpt>
      <trkpt lat="47.446786" lon="8.140421">
        <ele>382.389014</ele>
        <time>2021-11-21T23:53:07.096Z</time>
      </trkpt>
      <trkpt lat="47.446968" lon="8.141232">
        <ele>381.907175</ele>
        <time>2021-11-21T23:53:13.775Z</time>
      </trkpt>
      <trkpt lat="47.446964" lon="8.141309">
        <ele>381.794360</ele>
        <time>2021-11-21T23:53:14.215Z</time>
      </trkpt>
      <trkpt lat="47.447002" lon="8.141359">
        <ele>381.684483</ele>
        <time>2021-11-21T23:53:16.034Z</time>
      </trkpt>
      <trkpt lat="47.447019" lon="8.141408">
        <ele>381.604033</ele>
        <time>2021-11-21T23:53:17.767Z</time>
      </trkpt>
      <trkpt lat="47.447036" lon="8.141500">
        <ele>381.464710</ele>
        <time>2021-11-21T23:53:19.544Z</time>
      </trkpt>
      <trkpt lat="47.447146" lon="8.142030">
        <ele>380.654832</ele>
        <time>2021-11-21T23:53:23.572Z</time>
      </trkpt>
      <trkpt lat="47.447326" lon="8.142499">
        <ele>379.867064</ele>
        <time>2021-11-21T23:53:27.357Z</time>
      </trkpt>
      <trkpt lat="47.447487" lon="8.142754">
        <ele>379.357444</ele>
        <time>2021-11-21T23:53:29.725Z</time>
      </trkpt>
      <trkpt lat="47.447685" lon="8.143057">
        <ele>378.741937</ele>
        <time>2021-11-21T23:53:32.674Z</time>
      </trkpt>
      <trkpt lat="47.447749" lon="8.143138">
        <ele>378.559967</ele>
        <time>2021-11-21T23:53:33.452Z</time>
      </trkpt>
      <trkpt lat="47.447844" lon="8.143229">
        <ele>378.315461</ele>
        <time>2021-11-21T23:53:35.192Z</time>
      </trkpt>
      <trkpt lat="47.448758" lon="8.144072">
        <ele>376.115562</ele>
        <time>2021-11-21T23:53:47.535Z</time>
      </trkpt>
      <trkpt lat="47.448825" lon="8.144132">
        <ele>375.956908</ele>
        <time>2021-11-21T23:53:48.251Z</time>
      </trkpt>
      <trkpt lat="47.448865" lon="8.144173">
        <ele>375.858328</ele>
        <time>2021-11-21T23:53:48.858Z</time>
      </trkpt>
      <trkpt lat="47.449158" lon="8.144473">
        <ele>375.136480</ele>
        <time>2021-11-21T23:53:52.980Z</time>
      </trkpt>
      <trkpt lat="47.449371" lon="8.144692">
        <ele>374.611013</ele>
        <time>2021-11-21T23:53:55.901Z</time>
      </trkpt>
      <trkpt lat="47.450088" lon="8.145488">
        <ele>372.706413</ele>
        <time>2021-11-21T23:54:05.141Z</time>
      </trkpt>
      <trkpt lat="47.450183" lon="8.145603">
        <ele>372.443871</ele>
        <time>2021-11-21T23:54:06.533Z</time>
      </trkpt>
      <trkpt lat="47.450458" lon="8.145913">
        <ele>371.704410</ele>
        <time>2021-11-21T23:54:10.406Z</time>
      </trkpt>
      <trkpt lat="47.450543" lon="8.146003">
        <ele>371.480850</ele>
        <time>2021-11-21T23:54:11.632Z</time>
      </trkpt>
      <trkpt lat="47.450606" lon="8.146053">
        <ele>371.327950</ele>
        <time>2021-11-21T23:54:12.382Z</time>
      </trkpt>
      <trkpt lat="47.450734" lon="8.146121">
        <ele>371.037098</ele>
        <time>2021-11-21T23:54:13.896Z</time>
      </trkpt>
      <trkpt lat="47.451190" lon="8.146311">
        <ele>370.302803</ele>
        <time>2021-11-21T23:54:19.243Z</time>
      </trkpt>
      <trkpt lat="47.451243" lon="8.146335">
        <ele>370.248679</ele>
        <time>2021-11-21T23:54:19.853Z</time>
      </trkpt>
      <trkpt lat="47.451634" lon="8.146522">
        <ele>369.847411</ele>
        <time>2021-11-21T23:54:24.508Z</time>
      </trkpt>
      <trkpt lat="47.451691" lon="8.146552">
        <ele>369.788333</ele>
        <time>2021-11-21T23:54:25.209Z</time>
      </trkpt>
      <trkpt lat="47.451884" lon="8.146651">
        <ele>369.588860</ele>
        <time>2021-11-21T23:54:27.805Z</time>
      </trkpt>
      <trkpt lat="47.452108" lon="8.146759">
        <ele>369.358801</ele>
        <time>2021-11-21T23:54:30.626Z</time>
      </trkpt>
      <trkpt lat="47.452355" lon="8.146865">
        <ele>369.107664</ele>
        <time>2021-11-21T23:54:34.160Z</time>
      </trkpt>
      <trkpt lat="47.452471" lon="8.146900">
        <ele>368.992061</ele>
        <time>2021-11-21T23:54:35.777Z</time>
      </trkpt>
      <trkpt lat="47.453891" lon="8.147120">
        <ele>368.799587</ele>
        <time>2021-11-21T23:55:05.144Z</time>
      </trkpt>
      <trkpt lat="47.454769" lon="8.147346">
        <ele>368.586647</ele>
        <time>2021-11-21T23:55:23.665Z</time>
      </trkpt>
      <trkpt lat="47.455324" lon="8.147772">
        <ele>368.129855</ele>
        <time>2021-11-21T23:55:35.213Z</time>
      </trkpt>
      <trkpt lat="47.455490" lon="8.147964">
        <ele>367.975907</ele>
        <time>2021-11-21T23:55:38.865Z</time>
      </trkpt>
      <trkpt lat="47.455738" lon="8.148275">
        <ele>367.738377</ele>
        <time>2021-11-21T23:55:44.447Z</time>
      </trkpt>
      <trkpt lat="47.455947" lon="8.148517">
        <ele>367.544471</ele>
        <time>2021-11-21T23:55:48.909Z</time>
      </trkpt>
      <trkpt lat="47.457506" lon="8.150399">
        <ele>364.487586</ele>
        <time>2021-11-21T23:56:21.569Z</time>
      </trkpt>
      <trkpt lat="47.457836" lon="8.150781">
        <ele>363.943359</ele>
        <time>2021-11-21T23:56:28.516Z</time>
      </trkpt>
      <trkpt lat="47.458407" lon="8.151402">
        <ele>363.022905</ele>
        <time>2021-11-21T23:56:40.532Z</time>
      </trkpt>
      <trkpt lat="47.458656" lon="8.151660">
        <ele>362.628073</ele>
        <time>2021-11-21T23:56:45.708Z</time>
      </trkpt>
      <trkpt lat="47.459084" lon="8.152051">
        <ele>362.105175</ele>
        <time>2021-11-21T23:56:54.250Z</time>
      </trkpt>
      <trkpt lat="47.459515" lon="8.152425">
        <ele>361.687360</ele>
        <time>2021-11-21T23:57:02.992Z</time>
      </trkpt>
      <trkpt lat="47.459675" lon="8.152551">
        <ele>361.535798</ele>
        <time>2021-11-21T23:57:06.148Z</time>
      </trkpt>
      <trkpt lat="47.459982" lon="8.152791">
        <ele>361.245456</ele>
        <time>2021-11-21T23:57:12.272Z</time>
      </trkpt>
      <trkpt lat="47.460121" lon="8.152908">
        <ele>361.111732</ele>
        <time>2021-11-21T23:57:15.113Z</time>
      </trkpt>
      <trkpt lat="47.460799" lon="8.153695">
        <ele>360.826381</ele>
        <time>2021-11-21T23:57:31.508Z</time>
      </trkpt>
      <trkpt lat="47.460950" lon="8.153828">
        <ele>360.822871</ele>
        <time>2021-11-21T23:57:34.868Z</time>
      </trkpt>
      <trkpt lat="47.461918" lon="8.154537">
        <ele>360.801298</ele>
        <time>2021-11-21T23:57:57.865Z</time>
      </trkpt>
      <trkpt lat="47.462115" lon="8.154655">
        <ele>360.595569</ele>
        <time>2021-11-21T23:58:02.470Z</time>
      </trkpt>
      <trkpt lat="47.462535" lon="8.154995">
        <ele>360.111142</ele>
        <time>2021-11-21T23:58:11.904Z</time>
      </trkpt>
      <trkpt lat="47.462631" lon="8.155072">
        <ele>360.000650</ele>
        <time>2021-11-21T23:58:14.082Z</time>
      </trkpt>
      <trkpt lat="47.462726" lon="8.155178">
        <ele>359.880250</ele>
        <time>2021-11-21T23:58:16.237Z</time>
      </trkpt>
      <trkpt lat="47.462758" lon="8.155215">
        <ele>359.839154</ele>
        <time>2021-11-21T23:58:16.975Z</time>
      </trkpt>
      <trkpt lat="47.462875" lon="8.155357">
        <ele>359.686027</ele>
        <time>2021-11-21T23:58:18.774Z</time>
      </trkpt>
      <trkpt lat="47.463046" lon="8.155599">
        <ele>359.446578</ele>
        <time>2021-11-21T23:58:21.533Z</time>
      </trkpt>
      <trkpt lat="47.463208" lon="8.155947">
        <ele>359.157564</ele>
        <time>2021-11-21T23:58:24.711Z</time>
      </trkpt>
      <trkpt lat="47.463331" lon="8.156255">
        <ele>358.793312</ele>
        <time>2021-11-21T23:58:27.226Z</time>
      </trkpt>
      <trkpt lat="47.463358" lon="8.156322">
        <ele>358.646713</ele>
        <time>2021-11-21T23:58:27.766Z</time>
      </trkpt>
      <trkpt lat="47.463374" lon="8.156375">
        <ele>358.537621</ele>
        <time>2021-11-21T23:58:28.180Z</time>
      </trkpt>
      <trkpt lat="47.463406" lon="8.156485">
        <ele>358.312550</ele>
        <time>2021-11-21T23:58:29.014Z</time>
      </trkpt>
      <trkpt lat="47.463437" lon="8.156620">
        <ele>358.044584</ele>
        <time>2021-11-21T23:58:29.961Z</time>
      </trkpt>
      <trkpt lat="47.463451" lon="8.156786">
        <ele>357.730173</ele>
        <time>2021-11-21T23:58:31.126Z</time>
      </trkpt>
      <trkpt lat="47.463453" lon="8.156994">
        <ele>357.339202</ele>
        <time>2021-11-21T23:58:32.553Z</time>
      </trkpt>
      <trkpt lat="47.463449" lon="8.157173">
        <ele>357.002592</ele>
        <time>2021-11-21T23:58:33.731Z</time>
      </trkpt>
      <trkpt lat="47.463437" lon="8.157404">
        <ele>356.567153</ele>
        <time>2021-11-21T23:58:35.314Z</time>
      </trkpt>
      <trkpt lat="47.463435" lon="8.157494">
        <ele>356.397909</ele>
        <time>2021-11-21T23:58:35.930Z</time>
      </trkpt>
      <trkpt lat="47.463431" lon="8.157928">
        <ele>355.582140</ele>
        <time>2021-11-21T23:58:38.902Z</time>
      </trkpt>
      <trkpt lat="47.463441" lon="8.158126">
        <ele>355.208966</ele>
        <time>2021-11-21T23:58:40.293Z</time>
      </trkpt>
      <trkpt lat="47.463459" lon="8.158318">
        <ele>354.844653</ele>
        <time>2021-11-21T23:58:41.629Z</time>
      </trkpt>
      <trkpt lat="47.463494" lon="8.158650">
        <ele>354.213127</ele>
        <time>2021-11-21T23:58:44.066Z</time>
      </trkpt>
      <trkpt lat="47.463576" lon="8.159259">
        <ele>353.816220</ele>
        <time>2021-11-21T23:58:48.672Z</time>
      </trkpt>
      <trkpt lat="47.463575" lon="8.159344">
        <ele>353.788063</ele>
        <time>2021-11-21T23:58:49.309Z</time>
      </trkpt>
      <trkpt lat="47.463535" lon="8.159478">
        <ele>353.739547</ele>
        <time>2021-11-21T23:58:50.499Z</time>
      </trkpt>
      <trkpt lat="47.463727" lon="8.159750">
        <ele>353.609300</ele>
        <time>2021-11-21T23:58:53.713Z</time>
      </trkpt>
      <trkpt lat="47.464091" lon="8.160172">
        <ele>353.382723</ele>
        <time>2021-11-21T23:59:00.088Z</time>
      </trkpt>
      <trkpt lat="47.464241" lon="8.160297">
        <ele>353.298376</ele>
        <time>2021-11-21T23:59:03.059Z</time>
      </trkpt>
      <trkpt lat="47.464401" lon="8.160419">
        <ele>353.210188</ele>
        <time>2021-11-21T23:59:06.205Z</time>
      </trkpt>
      <trkpt lat="47.464571" lon="8.160519">
        <ele>353.120558</ele>
        <time>2021-11-21T23:59:09.807Z</time>
      </trkpt>
      <trkpt lat="47.464837" lon="8.160646">
        <ele>353.355501</ele>
        <time>2021-11-21T23:59:15.358Z</time>
      </trkpt>
      <trkpt lat="47.464997" lon="8.160739">
        <ele>353.540873</ele>
        <time>2021-11-21T23:59:18.940Z</time>
      </trkpt>
      <trkpt lat="47.465263" lon="8.160874">
        <ele>353.844118</ele>
        <time>2021-11-21T23:59:24.478Z</time>
      </trkpt>
      <trkpt lat="47.465513" lon="8.161012">
        <ele>354.131855</ele>
        <time>2021-11-21T23:59:29.806Z</time>
      </trkpt>
      <trkpt lat="47.465742" lon="8.161135">
        <ele>354.394564</ele>
        <time>2021-11-21T23:59:34.766Z</time>
      </trkpt>
      <trkpt lat="47.466049" lon="8.161288">
        <ele>354.743890</ele>
        <time>2021-11-21T23:59:40.831Z</time>
      </trkpt>
      <trkpt lat="47.466606" lon="8.161586">
        <ele>355.312994</ele>
        <time>2021-11-21T23:59:51.382Z</time>
      </trkpt>
      <trkpt lat="47.466809" lon="8.161700">
        <ele>355.499668</ele>
        <time>2021-11-21T23:59:55.177Z</time>
      </trkpt>
      <trkpt lat="47.466897" lon="8.161739">
        <ele>355.578645</ele>
        <time>2021-11-21T23:59:56.999Z</time>
      </trkpt>
      <trkpt lat="47.467007" lon="8.161797">
        <ele>355.679042</ele>
        <time>2021-11-21T23:59:59.124Z</time>
      </trkpt>
      <trkpt lat="47.467139" lon="8.161863">
        <ele>355.798831</ele>
        <time>2021-11-22T00:00:01.623Z</time>
      </trkpt>
      <trkpt lat="47.467266" lon="8.161918">
        <ele>355.912597</ele>
        <time>2021-11-22T00:00:04.242Z</time>
      </trkpt>
      <trkpt lat="47.467403" lon="8.161980">
        <ele>356.035766</ele>
        <time>2021-11-22T00:00:06.896Z</time>
      </trkpt>
      <trkpt lat="47.468105" lon="8.162227">
        <ele>356.603887</ele>
        <time>2021-11-22T00:00:20.215Z</time>
      </trkpt>
      <trkpt lat="47.468199" lon="8.162263">
        <ele>356.625524</ele>
        <time>2021-11-22T00:00:21.818Z</time>
      </trkpt>
      <trkpt lat="47.468278" lon="8.162300">
        <ele>356.643989</ele>
        <time>2021-11-22T00:00:23.391Z</time>
      </trkpt>
      <trkpt lat="47.468573" lon="8.162469">
        <ele>356.714481</ele>
        <time>2021-11-22T00:00:28.812Z</time>
      </trkpt>
      <trkpt lat="47.468812" lon="8.162640">
        <ele>356.773640</ele>
        <time>2021-11-22T00:00:33.281Z</time>
      </trkpt>
      <trkpt lat="47.468949" lon="8.162736">
        <ele>356.807420</ele>
        <time>2021-11-22T00:00:35.291Z</time>
      </trkpt>
      <trkpt lat="47.469024" lon="8.162801">
        <ele>356.826789</ele>
        <time>2021-11-22T00:00:36.687Z</time>
      </trkpt>
      <trkpt lat="47.469218" lon="8.163000">
        <ele>356.879394</ele>
        <time>2021-11-22T00:00:39.984Z</time>
      </trkpt>
      <trkpt lat="47.469385" lon="8.163184">
        <ele>356.925794</ele>
        <time>2021-11-22T00:00:43.484Z</time>
      </trkpt>
      <trkpt lat="47.469504" lon="8.163311">
        <ele>356.958492</ele>
        <time>2021-11-22T00:00:45.406Z</time>
      </trkpt>
      <trkpt lat="47.470057" lon="8.163889">
        <ele>356.283736</ele>
        <time>2021-11-22T00:00:54.799Z</time>
      </trkpt>
      <trkpt lat="47.470101" lon="8.163935">
        <ele>356.215130</ele>
        <time>2021-11-22T00:00:55.350Z</time>
      </trkpt>
      <trkpt lat="47.470281" lon="8.164129">
        <ele>355.931551</ele>
        <time>2021-11-22T00:00:58.272Z</time>
      </trkpt>
      <trkpt lat="47.470384" lon="8.164260">
        <ele>355.758589</ele>
        <time>2021-11-22T00:00:59.729Z</time>
      </trkpt>
      <trkpt lat="47.470426" lon="8.164313">
        <ele>355.688295</ele>
        <time>2021-11-22T00:01:00.407Z</time>
      </trkpt>
      <trkpt lat="47.470550" lon="8.164436">
        <ele>355.498191</ele>
        <time>2021-11-22T00:01:02.244Z</time>
      </trkpt>
      <trkpt lat="47.471054" lon="8.164977">
        <ele>354.705285</ele>
        <time>2021-11-22T00:01:09.033Z</time>
      </trkpt>
      <trkpt lat="47.471193" lon="8.165194">
        <ele>354.189005</ele>
        <time>2021-11-22T00:01:11.242Z</time>
      </trkpt>
      <trkpt lat="47.471273" lon="8.165343">
        <ele>353.854306</ele>
        <time>2021-11-22T00:01:12.568Z</time>
      </trkpt>
      <trkpt lat="47.471314" lon="8.165430">
        <ele>353.667758</ele>
        <time>2021-11-22T00:01:13.407Z</time>
      </trkpt>
      <trkpt lat="47.471485" lon="8.165795">
        <ele>352.886617</ele>
        <time>2021-11-22T00:01:16.546Z</time>
      </trkpt>
      <trkpt lat="47.471637" lon="8.166140">
        <ele>352.162261</ele>
        <time>2021-11-22T00:01:19.441Z</time>
      </trkpt>
      <trkpt lat="47.471637" lon="8.166140">
        <ele>352.162261</ele>
        <time>2021-11-22T00:01:19.445Z</time>
      </trkpt>
      <trkpt lat="47.471739" lon="8.166341">
        <ele>351.720172</ele>
        <time>2021-11-22T00:01:21.280Z</time>
      </trkpt>
      <trkpt lat="47.471800" lon="8.166447">
        <ele>351.475309</ele>
        <time>2021-11-22T00:01:22.226Z</time>
      </trkpt>
      <trkpt lat="47.471848" lon="8.166524">
        <ele>351.291069</ele>
        <time>2021-11-22T00:01:22.943Z</time>
      </trkpt>
      <trkpt lat="47.472023" lon="8.166799">
        <ele>350.626735</ele>
        <time>2021-11-22T00:01:25.572Z</time>
      </trkpt>
      <trkpt lat="47.472230" lon="8.167059">
        <ele>349.941230</ele>
        <time>2021-11-22T00:01:28.376Z</time>
      </trkpt>
      <trkpt lat="47.472348" lon="8.167193">
        <ele>349.639524</ele>
        <time>2021-11-22T00:01:29.871Z</time>
      </trkpt>
      <trkpt lat="47.472433" lon="8.167289">
        <ele>349.422632</ele>
        <time>2021-11-22T00:01:30.967Z</time>
      </trkpt>
      <trkpt lat="47.472552" lon="8.167429">
        <ele>349.114264</ele>
        <time>2021-11-22T00:01:32.606Z</time>
      </trkpt>
      <trkpt lat="47.472685" lon="8.167581">
        <ele>348.773399</ele>
        <time>2021-11-22T00:01:34.355Z</time>
      </trkpt>
      <trkpt lat="47.472797" lon="8.167699">
        <ele>348.494524</ele>
        <time>2021-11-22T00:01:35.876Z</time>
      </trkpt>
      <trkpt lat="47.472952" lon="8.167862">
        <ele>348.108824</ele>
        <time>2021-11-22T00:01:37.932Z</time>
      </trkpt>
      <trkpt lat="47.473055" lon="8.167983">
        <ele>347.842068</ele>
        <time>2021-11-22T00:01:39.424Z</time>
      </trkpt>
      <trkpt lat="47.473210" lon="8.168234">
        <ele>347.375982</ele>
        <time>2021-11-22T00:01:42.071Z</time>
      </trkpt>
      <trkpt lat="47.473388" lon="8.168547">
        <ele>346.815212</ele>
        <time>2021-11-22T00:01:45.242Z</time>
      </trkpt>
      <trkpt lat="47.473598" lon="8.168948">
        <ele>346.248338</ele>
        <time>2021-11-22T00:01:49.241Z</time>
      </trkpt>
      <trkpt lat="47.473741" lon="8.169275">
        <ele>345.991206</ele>
        <time>2021-11-22T00:01:52.398Z</time>
      </trkpt>
      <trkpt lat="47.473760" lon="8.169319">
        <ele>345.956735</ele>
        <time>2021-11-22T00:01:52.853Z</time>
      </trkpt>
      <trkpt lat="47.473812" lon="8.169458">
        <ele>345.851848</ele>
        <time>2021-11-22T00:01:54.182Z</time>
      </trkpt>
      <trkpt lat="47.473963" lon="8.169902">
        <ele>345.523703</ele>
        <time>2021-11-22T00:01:58.293Z</time>
      </trkpt>
      <trkpt lat="47.474103" lon="8.170305">
        <ele>345.224557</ele>
        <time>2021-11-22T00:02:02.152Z</time>
      </trkpt>
      <trkpt lat="47.474159" lon="8.170494">
        <ele>345.088316</ele>
        <time>2021-11-22T00:02:03.876Z</time>
      </trkpt>
      <trkpt lat="47.474555" lon="8.171867">
        <ele>344.245687</ele>
        <time>2021-11-22T00:02:16.548Z</time>
      </trkpt>
      <trkpt lat="47.474858" lon="8.173318">
        <ele>343.525016</ele>
        <time>2021-11-22T00:02:29.428Z</time>
      </trkpt>
      <trkpt lat="47.475028" lon="8.173788">
        <ele>343.331943</ele>
        <time>2021-11-22T00:02:34.253Z</time>
      </trkpt>
      <trkpt lat="47.475197" lon="8.174200">
        <ele>343.283191</ele>
        <time>2021-11-22T00:02:39.210Z</time>
      </trkpt>
      <trkpt lat="47.475270" lon="8.174390">
        <ele>343.261083</ele>
        <time>2021-11-22T00:02:41.602Z</time>
      </trkpt>
      <trkpt lat="47.475388" lon="8.174886">
        <ele>343.207890</ele>
        <time>2021-11-22T00:02:46.832Z</time>
      </trkpt>
      <trkpt lat="47.475502" lon="8.175765">
        <ele>343.117349</ele>
        <time>2021-11-22T00:02:55.472Z</time>
      </trkpt>
      <trkpt lat="47.475584" lon="8.176429">
        <ele>343.001782</ele>
        <time>2021-11-22T00:03:02.052Z</time>
      </trkpt>
      <trkpt lat="47.475655" lon="8.177003">
        <ele>342.849424</ele>
        <time>2021-11-22T00:03:07.554Z</time>
      </trkpt>
      <trkpt lat="47.475922" lon="8.178214">
        <ele>342.516841</ele>
        <time>2021-11-22T00:03:19.111Z</time>
      </trkpt>
      <trkpt lat="47.476124" lon="8.178846">
        <ele>342.322678</ele>
        <time>2021-11-22T00:03:25.271Z</time>
      </trkpt>
      <trkpt lat="47.476443" lon="8.179607">
        <ele>342.034335</ele>
        <time>2021-11-22T00:03:33.156Z</time>
      </trkpt>
      <trkpt lat="47.476476" lon="8.179668">
        <ele>342.009176</ele>
        <time>2021-11-22T00:03:33.770Z</time>
      </trkpt>
      <trkpt lat="47.476476" lon="8.179668">
        <ele>342.009176</ele>
        <time>2021-11-22T00:03:33.771Z</time>
      </trkpt>
      <trkpt lat="47.476571" lon="8.179863">
        <ele>341.931775</ele>
        <time>2021-11-22T00:03:35.978Z</time>
      </trkpt>
      <trkpt lat="47.476841" lon="8.180324">
        <ele>341.735357</ele>
        <time>2021-11-22T00:03:41.383Z</time>
      </trkpt>
      <trkpt lat="47.476889" lon="8.180405">
        <ele>341.700670</ele>
        <time>2021-11-22T00:03:42.619Z</time>
      </trkpt>
      <trkpt lat="47.477144" lon="8.180789">
        <ele>341.527331</ele>
        <time>2021-11-22T00:03:47.515Z</time>
      </trkpt>
      <trkpt lat="47.478305" lon="8.182470">
        <ele>341.603666</ele>
        <time>2021-11-22T00:04:10.441Z</time>
      </trkpt>
      <trkpt lat="47.479079" lon="8.183920">
        <ele>343.223667</ele>
        <time>2021-11-22T00:04:35.216Z</time>
      </trkpt>
      <trkpt lat="47.479231" lon="8.184261">
        <ele>343.637801</ele>
        <time>2021-11-22T00:04:42.312Z</time>
      </trkpt>
      <trkpt lat="47.479253" lon="8.184307">
        <ele>343.694933</ele>
        <time>2021-11-22T00:04:43.069Z</time>
      </trkpt>
      <trkpt lat="47.479284" lon="8.184375">
        <ele>343.778090</ele>
        <time>2021-11-22T00:04:44.194Z</time>
      </trkpt>
      <trkpt lat="47.479494" lon="8.184925">
        <ele>344.422904</ele>
        <time>2021-11-22T00:04:54.617Z</time>
      </trkpt>
      <trkpt lat="47.479670" lon="8.185370">
        <ele>344.966717</ele>
        <time>2021-11-22T00:05:02.060Z</time>
      </trkpt>
      <trkpt lat="47.479853" lon="8.185790">
        <ele>345.493780</ele>
        <time>2021-11-22T00:05:08.742Z</time>
      </trkpt>
      <trkpt lat="47.479853" lon="8.185790">
        <ele>345.493780</ele>
        <time>2021-11-22T00:05:08.880Z</time>
      </trkpt>
      <trkpt lat="47.479942" lon="8.185960">
        <ele>345.720585</ele>
        <time>2021-11-22T00:05:12.055Z</time>
      </trkpt>
      <trkpt lat="47.480028" lon="8.186146">
        <ele>345.958278</ele>
        <time>2021-11-22T00:05:14.656Z</time>
      </trkpt>
      <trkpt lat="47.480145" lon="8.186350">
        <ele>346.240472</ele>
        <time>2021-11-22T00:05:19.073Z</time>
      </trkpt>
      <trkpt lat="47.480217" lon="8.186474">
        <ele>346.412896</ele>
        <time>2021-11-22T00:05:20.933Z</time>
      </trkpt>
      <trkpt lat="47.480420" lon="8.186745">
        <ele>346.839579</ele>
        <time>2021-11-22T00:05:26.944Z</time>
      </trkpt>
      <trkpt lat="47.480560" lon="8.186929">
        <ele>347.128700</ele>
        <time>2021-11-22T00:05:30.109Z</time>
      </trkpt>
      <trkpt lat="47.480690" lon="8.187084">
        <ele>347.335069</ele>
        <time>2021-11-22T00:05:33.739Z</time>
      </trkpt>
      <trkpt lat="47.480780" lon="8.187172">
        <ele>347.468412</ele>
        <time>2021-11-22T00:05:35.198Z</time>
      </trkpt>
      <trkpt lat="47.480852" lon="8.187252">
        <ele>347.579709</ele>
        <time>2021-11-22T00:05:36.925Z</time>
      </trkpt>
      <trkpt lat="47.481193" lon="8.187591">
        <ele>348.087513</ele>
        <time>2021-11-22T00:05:44.478Z</time>
      </trkpt>
      <trkpt lat="47.481292" lon="8.187686">
        <ele>348.233366</ele>
        <time>2021-11-22T00:05:46.922Z</time>
      </trkpt>
      <trkpt lat="47.481382" lon="8.187787">
        <ele>348.372990</ele>
        <time>2021-11-22T00:05:48.521Z</time>
      </trkpt>
      <trkpt lat="47.481424" lon="8.187833">
        <ele>348.437580</ele>
        <time>2021-11-22T00:05:49.575Z</time>
      </trkpt>
      <trkpt lat="47.481651" lon="8.188249">
        <ele>348.884234</ele>
        <time>2021-11-22T00:05:57.089Z</time>
      </trkpt>
      <trkpt lat="47.481685" lon="8.188343">
        <ele>348.973298</ele>
        <time>2021-11-22T00:05:58.775Z</time>
      </trkpt>
      <trkpt lat="47.481788" lon="8.188778">
        <ele>349.376290</ele>
        <time>2021-11-22T00:06:05.095Z</time>
      </trkpt>
      <trkpt lat="47.481812" lon="8.188865">
        <ele>349.532172</ele>
        <time>2021-11-22T00:06:06.649Z</time>
      </trkpt>
      <trkpt lat="47.481839" lon="8.188968">
        <ele>349.715439</ele>
        <time>2021-11-22T00:06:08.517Z</time>
      </trkpt>
      <trkpt lat="47.481979" lon="8.189239">
        <ele>350.281292</ele>
        <time>2021-11-22T00:06:13.063Z</time>
      </trkpt>
      <trkpt lat="47.482019" lon="8.189306">
        <ele>350.429593</ele>
        <time>2021-11-22T00:06:14.723Z</time>
      </trkpt>
      <trkpt lat="47.482064" lon="8.189374">
        <ele>350.587470</ele>
        <time>2021-11-22T00:06:16.564Z</time>
      </trkpt>
      <trkpt lat="47.482198" lon="8.189576">
        <ele>351.057013</ele>
        <time>2021-11-22T00:06:20.807Z</time>
      </trkpt>
      <trkpt lat="47.482387" lon="8.189878">
        <ele>351.739799</ele>
        <time>2021-11-22T00:06:27.197Z</time>
      </trkpt>
      <trkpt lat="47.482486" lon="8.190057">
        <ele>352.123494</ele>
        <time>2021-11-22T00:06:31.575Z</time>
      </trkpt>
      <trkpt lat="47.482572" lon="8.190217">
        <ele>352.462621</ele>
        <time>2021-11-22T00:06:35.133Z</time>
      </trkpt>
      <trkpt lat="47.482607" lon="8.190286">
        <ele>352.605736</ele>
        <time>2021-11-22T00:06:36.430Z</time>
      </trkpt>
      <trkpt lat="47.482743" lon="8.190529">
        <ele>353.129117</ele>
        <time>2021-11-22T00:06:42.261Z</time>
      </trkpt>
      <trkpt lat="47.482845" lon="8.190599">
        <ele>353.405103</ele>
        <time>2021-11-22T00:06:45.190Z</time>
      </trkpt>
      <trkpt lat="47.482867" lon="8.190600">
        <ele>353.459130</ele>
        <time>2021-11-22T00:06:45.584Z</time>
      </trkpt>
      <trkpt lat="47.482872" lon="8.190636">
        <ele>353.520096</ele>
        <time>2021-11-22T00:06:46.420Z</time>
      </trkpt>
      <trkpt lat="47.482949" lon="8.190712">
        <ele>353.747289</ele>
        <time>2021-11-22T00:06:49.099Z</time>
      </trkpt>
      <trkpt lat="47.482973" lon="8.190705">
        <ele>353.847782</ele>
        <time>2021-11-22T00:06:49.733Z</time>
      </trkpt>
      <trkpt lat="47.482973" lon="8.190705">
        <ele>353.847782</ele>
        <time>2021-11-22T00:06:49.775Z</time>
      </trkpt>
      <trkpt lat="47.482993" lon="8.190689">
        <ele>353.946789</ele>
        <time>2021-11-22T00:06:50.521Z</time>
      </trkpt>
      <trkpt lat="47.483025" lon="8.190604">
        <ele>354.233133</ele>
        <time>2021-11-22T00:06:52.224Z</time>
      </trkpt>
      <trkpt lat="47.483023" lon="8.190571">
        <ele>354.330639</ele>
        <time>2021-11-22T00:06:53.002Z</time>
      </trkpt>
      <trkpt lat="47.483016" lon="8.190541">
        <ele>354.424041</ele>
        <time>2021-11-22T00:06:53.452Z</time>
      </trkpt>
      <trkpt lat="47.482967" lon="8.190482">
        <ele>354.699139</ele>
        <time>2021-11-22T00:06:55.070Z</time>
      </trkpt>
      <trkpt lat="47.482945" lon="8.190478">
        <ele>354.795662</ele>
        <time>2021-11-22T00:06:55.496Z</time>
      </trkpt>
      <trkpt lat="47.482944" lon="8.190385">
        <ele>355.069390</ele>
        <time>2021-11-22T00:06:57.923Z</time>
      </trkpt>
      <trkpt lat="47.482930" lon="8.189498">
        <ele>357.680481</ele>
        <time>2021-11-22T00:07:15.136Z</time>
      </trkpt>
      <trkpt lat="47.482931" lon="8.189437">
        <ele>357.860052</ele>
        <time>2021-11-22T00:07:16.488Z</time>
      </trkpt>
      <trkpt lat="47.482934" lon="8.189340">
        <ele>358.145815</ele>
        <time>2021-11-22T00:07:18.912Z</time>
      </trkpt>
      <trkpt lat="47.482943" lon="8.188839">
        <ele>359.620744</ele>
        <time>2021-11-22T00:07:30.402Z</time>
      </trkpt>
      <trkpt lat="47.482956" lon="8.187807">
        <ele>363.057604</ele>
        <time>2021-11-22T00:07:55.534Z</time>
      </trkpt>
      <trkpt lat="47.482953" lon="8.187593">
        <ele>363.922384</ele>
        <time>2021-11-22T00:08:01.830Z</time>
      </trkpt>
      <trkpt lat="47.482951" lon="8.187188">
        <ele>365.558691</ele>
        <time>2021-11-22T00:08:13.031Z</time>
      </trkpt>
      <trkpt lat="47.482934" lon="8.186840">
        <ele>366.968334</ele>
        <time>2021-11-22T00:08:22.397Z</time>
      </trkpt>
      <trkpt lat="47.482902" lon="8.186578">
        <ele>368.044004</ele>
        <time>2021-11-22T00:08:30.214Z</time>
      </trkpt>
      <trkpt lat="47.482854" lon="8.186196">
        <ele>369.613796</ele>
        <time>2021-11-22T00:08:39.871Z</time>
      </trkpt>
      <trkpt lat="47.482841" lon="8.186124">
        <ele>369.914891</ele>
        <time>2021-11-22T00:08:42.608Z</time>
      </trkpt>
      <trkpt lat="47.482827" lon="8.186042">
        <ele>370.256593</ele>
        <time>2021-11-22T00:08:45.045Z</time>
      </trkpt>
      <trkpt lat="47.482775" lon="8.185779">
        <ele>371.363698</ele>
        <time>2021-11-22T00:08:51.519Z</time>
      </trkpt>
      <trkpt lat="47.482766" lon="8.185743">
        <ele>371.518777</ele>
        <time>2021-11-22T00:08:52.633Z</time>
      </trkpt>
      <trkpt lat="47.482705" lon="8.185476">
        <ele>372.658564</ele>
        <time>2021-11-22T00:09:00.082Z</time>
      </trkpt>
      <trkpt lat="47.482596" lon="8.185042">
        <ele>374.535581</ele>
        <time>2021-11-22T00:09:11.167Z</time>
      </trkpt>
      <trkpt lat="47.482617" lon="8.185031">
        <ele>374.669215</ele>
        <time>2021-11-22T00:09:12.128Z</time>
      </trkpt>
      <trkpt lat="47.482657" lon="8.184949">
        <ele>375.079198</ele>
        <time>2021-11-22T00:09:13.858Z</time>
      </trkpt>
      <trkpt lat="47.482658" lon="8.184915">
        <ele>375.217165</ele>
        <time>2021-11-22T00:09:14.818Z</time>
      </trkpt>
      <trkpt lat="47.482698" lon="8.184890">
        <ele>375.477641</ele>
        <time>2021-11-22T00:09:16.069Z</time>
      </trkpt>
      <trkpt lat="47.482741" lon="8.184879">
        <ele>375.739413</ele>
        <time>2021-11-22T00:09:17.497Z</time>
      </trkpt>
      <trkpt lat="47.482780" lon="8.184888">
        <ele>375.976192</ele>
        <time>2021-11-22T00:09:18.407Z</time>
      </trkpt>
      <trkpt lat="47.483305" lon="8.185862">
        <ele>381.026907</ele>
        <time>2021-11-22T00:09:53.629Z</time>
      </trkpt>
      <trkpt lat="47.483545" lon="8.186425">
        <ele>383.596470</ele>
        <time>2021-11-22T00:10:12.468Z</time>
      </trkpt>
      <trkpt lat="47.483714" lon="8.186627">
        <ele>384.617481</ele>
        <time>2021-11-22T00:10:19.893Z</time>
      </trkpt>
      <trkpt lat="47.483816" lon="8.186677">
        <ele>385.122476</ele>
        <time>2021-11-22T00:10:24.011Z</time>
      </trkpt>
      <trkpt lat="47.483906" lon="8.186674">
        <ele>385.545561</ele>
        <time>2021-11-22T00:10:27.266Z</time>
      </trkpt>
      <trkpt lat="47.484108" lon="8.186629">
        <ele>386.505611</ele>
        <time>2021-11-22T00:10:33.840Z</time>
      </trkpt>
      <trkpt lat="47.484330" lon="8.186531">
        <ele>387.594395</ele>
        <time>2021-11-22T00:10:42.237Z</time>
      </trkpt>
      <trkpt lat="47.484495" lon="8.186468">
        <ele>388.395254</ele>
        <time>2021-11-22T00:10:47.627Z</time>
      </trkpt>
      <trkpt lat="47.484801" lon="8.186390">
        <ele>389.854561</ele>
        <time>2021-11-22T00:10:57.715Z</time>
      </trkpt>
      <trkpt lat="47.484895" lon="8.186379">
        <ele>390.297718</ele>
        <time>2021-11-22T00:11:01.140Z</time>
      </trkpt>
      <trkpt lat="47.485127" lon="8.186353">
        <ele>391.391184</ele>
        <time>2021-11-22T00:11:08.228Z</time>
      </trkpt>
      <trkpt lat="47.485927" lon="8.186401">
        <ele>392.073346</ele>
        <time>2021-11-22T00:11:27.726Z</time>
      </trkpt>
      <trkpt lat="47.486547" lon="8.186524">
        <ele>392.476960</ele>
        <time>2021-11-22T00:11:35.504Z</time>
      </trkpt>
      <trkpt lat="47.486653" lon="8.186563">
        <ele>392.547436</ele>
        <time>2021-11-22T00:11:36.755Z</time>
      </trkpt>
      <trkpt lat="47.486930" lon="8.186675">
        <ele>392.732713</ele>
        <time>2021-11-22T00:11:40.212Z</time>
      </trkpt>
      <trkpt lat="47.488342" lon="8.187194">
        <ele>391.205020</ele>
        <time>2021-11-22T00:11:57.642Z</time>
      </trkpt>
      <trkpt lat="47.488450" lon="8.187222">
        <ele>391.087706</ele>
        <time>2021-11-22T00:11:59.050Z</time>
      </trkpt>
      <trkpt lat="47.488692" lon="8.187285">
        <ele>390.824804</ele>
        <time>2021-11-22T00:12:02.102Z</time>
      </trkpt>
      <trkpt lat="47.488896" lon="8.187332">
        <ele>390.764835</ele>
        <time>2021-11-22T00:12:04.712Z</time>
      </trkpt>
      <trkpt lat="47.489072" lon="8.187373">
        <ele>390.716721</ele>
        <time>2021-11-22T00:12:06.882Z</time>
      </trkpt>
      <trkpt lat="47.490084" lon="8.187497">
        <ele>390.442500</ele>
        <time>2021-11-22T00:12:20.353Z</time>
      </trkpt>
      <trkpt lat="47.490752" lon="8.187494">
        <ele>390.743295</ele>
        <time>2021-11-22T00:12:31.936Z</time>
      </trkpt>
      <trkpt lat="47.490871" lon="8.187485">
        <ele>390.928153</ele>
        <time>2021-11-22T00:12:34.202Z</time>
      </trkpt>
      <trkpt lat="47.491855" lon="8.187455">
        <ele>392.455065</ele>
        <time>2021-11-22T00:12:55.392Z</time>
      </trkpt>
      <trkpt lat="47.491946" lon="8.187452">
        <ele>392.596279</ele>
        <time>2021-11-22T00:12:57.418Z</time>
      </trkpt>
      <trkpt lat="47.492366" lon="8.187431">
        <ele>393.162730</ele>
        <time>2021-11-22T00:13:07.453Z</time>
      </trkpt>
      <trkpt lat="47.492518" lon="8.187437">
        <ele>393.236419</ele>
        <time>2021-11-22T00:13:11.369Z</time>
      </trkpt>
      <trkpt lat="47.492645" lon="8.187454">
        <ele>393.298217</ele>
        <time>2021-11-22T00:13:14.549Z</time>
      </trkpt>
      <trkpt lat="47.492740" lon="8.187474">
        <ele>393.344719</ele>
        <time>2021-11-22T00:13:16.782Z</time>
      </trkpt>
      <trkpt lat="47.492807" lon="8.187501">
        <ele>393.378371</ele>
        <time>2021-11-22T00:13:18.539Z</time>
      </trkpt>
      <trkpt lat="47.492888" lon="8.187533">
        <ele>393.419000</ele>
        <time>2021-11-22T00:13:20.538Z</time>
      </trkpt>
      <trkpt lat="47.492922" lon="8.187555">
        <ele>393.436983</ele>
        <time>2021-11-22T00:13:21.450Z</time>
      </trkpt>
      <trkpt lat="47.493158" lon="8.187708">
        <ele>393.561846</ele>
        <time>2021-11-22T00:13:26.227Z</time>
      </trkpt>
      <trkpt lat="47.493200" lon="8.187747">
        <ele>393.585875</ele>
        <time>2021-11-22T00:13:27.286Z</time>
      </trkpt>
      <trkpt lat="47.493257" lon="8.187795">
        <ele>393.617657</ele>
        <time>2021-11-22T00:13:28.663Z</time>
      </trkpt>
      <trkpt lat="47.493328" lon="8.187887">
        <ele>393.663389</ele>
        <time>2021-11-22T00:13:29.871Z</time>
      </trkpt>
      <trkpt lat="47.493564" lon="8.188192">
        <ele>393.815228</ele>
        <time>2021-11-22T00:13:34.085Z</time>
      </trkpt>
      <trkpt lat="47.493761" lon="8.188582">
        <ele>393.974673</ele>
        <time>2021-11-22T00:13:38.036Z</time>
      </trkpt>
      <trkpt lat="47.493907" lon="8.188904">
        <ele>393.237252</ele>
        <time>2021-11-22T00:13:40.896Z</time>
      </trkpt>
      <trkpt lat="47.493941" lon="8.188998">
        <ele>392.987746</ele>
        <time>2021-11-22T00:13:41.620Z</time>
      </trkpt>
      <trkpt lat="47.494056" lon="8.188984">
        <ele>392.588109</ele>
        <time>2021-11-22T00:13:42.756Z</time>
      </trkpt>
      <trkpt lat="47.494332" lon="8.188863">
        <ele>391.591153</ele>
        <time>2021-11-22T00:13:45.676Z</time>
      </trkpt>
      <trkpt lat="47.494505" lon="8.188702">
        <ele>390.883375</ele>
        <time>2021-11-22T00:13:47.851Z</time>
      </trkpt>
      <trkpt lat="47.494541" lon="8.188653">
        <ele>390.713983</ele>
        <time>2021-11-22T00:13:48.299Z</time>
      </trkpt>
      <trkpt lat="47.494597" lon="8.188575">
        <ele>390.447651</ele>
        <time>2021-11-22T00:13:49.045Z</time>
      </trkpt>
      <trkpt lat="47.494621" lon="8.188505">
        <ele>390.263962</ele>
        <time>2021-11-22T00:13:49.535Z</time>
      </trkpt>
      <trkpt lat="47.494636" lon="8.188277">
        <ele>389.727899</ele>
        <time>2021-11-22T00:13:51.150Z</time>
      </trkpt>
      <trkpt lat="47.494614" lon="8.188090">
        <ele>389.283720</ele>
        <time>2021-11-22T00:13:52.350Z</time>
      </trkpt>
      <trkpt lat="47.494602" lon="8.188014">
        <ele>389.101081</ele>
        <time>2021-11-22T00:13:52.840Z</time>
      </trkpt>
      <trkpt lat="47.494597" lon="8.187979">
        <ele>389.017368</ele>
        <time>2021-11-22T00:13:53.058Z</time>
      </trkpt>
      <trkpt lat="47.494578" lon="8.187776">
        <ele>388.537794</ele>
        <time>2021-11-22T00:13:54.476Z</time>
      </trkpt>
      <trkpt lat="47.494588" lon="8.187684">
        <ele>388.319738</ele>
        <time>2021-11-22T00:13:55.058Z</time>
      </trkpt>
      <trkpt lat="47.494612" lon="8.187571">
        <ele>388.042552</ele>
        <time>2021-11-22T00:13:55.796Z</time>
      </trkpt>
      <trkpt lat="47.494710" lon="8.187324">
        <ele>387.340402</ele>
        <time>2021-11-22T00:13:57.664Z</time>
      </trkpt>
      <trkpt lat="47.494780" lon="8.187222">
        <ele>386.972660</ele>
        <time>2021-11-22T00:13:58.578Z</time>
      </trkpt>
      <trkpt lat="47.494834" lon="8.187197">
        <ele>386.760847</ele>
        <time>2021-11-22T00:13:59.094Z</time>
      </trkpt>
      <trkpt lat="47.494878" lon="8.187200">
        <ele>386.595954</ele>
        <time>2021-11-22T00:13:59.512Z</time>
      </trkpt>
      <trkpt lat="47.495182" lon="8.187204">
        <ele>385.457856</ele>
        <time>2021-11-22T00:14:02.434Z</time>
      </trkpt>
      <trkpt lat="47.495508" lon="8.187218">
        <ele>384.236930</ele>
        <time>2021-11-22T00:14:05.605Z</time>
      </trkpt>
      <trkpt lat="47.496262" lon="8.187283">
        <ele>381.409474</ele>
        <time>2021-11-22T00:14:13.221Z</time>
      </trkpt>
      <trkpt lat="47.496928" lon="8.187750">
        <ele>379.946738</ele>
        <time>2021-11-22T00:14:21.297Z</time>
      </trkpt>
      <trkpt lat="47.497046" lon="8.187842">
        <ele>379.719121</ele>
        <time>2021-11-22T00:14:22.733Z</time>
      </trkpt>
      <trkpt lat="47.497109" lon="8.187884">
        <ele>379.601198</ele>
        <time>2021-11-22T00:14:23.615Z</time>
      </trkpt>
      <trkpt lat="47.497202" lon="8.187946">
        <ele>379.427122</ele>
        <time>2021-11-22T00:14:24.861Z</time>
      </trkpt>
      <trkpt lat="47.497264" lon="8.187976">
        <ele>379.315798</ele>
        <time>2021-11-22T00:14:25.644Z</time>
      </trkpt>
      <trkpt lat="47.497291" lon="8.187842">
        <ele>379.154563</ele>
        <time>2021-11-22T00:14:27.148Z</time>
      </trkpt>
      <trkpt lat="47.497410" lon="8.187881">
        <ele>378.946552</ele>
        <time>2021-11-22T00:14:28.664Z</time>
      </trkpt>
      <trkpt lat="47.497730" lon="8.187984">
        <ele>378.387657</ele>
        <time>2021-11-22T00:14:32.516Z</time>
      </trkpt>
      <trkpt lat="47.498561" lon="8.187972">
        <ele>377.243324</ele>
        <time>2021-11-22T00:14:42.240Z</time>
      </trkpt>
      <trkpt lat="47.499059" lon="8.188059">
        <ele>376.623463</ele>
        <time>2021-11-22T00:14:48.239Z</time>
      </trkpt>
      <trkpt lat="47.499265" lon="8.188144">
        <ele>376.359112</ele>
        <time>2021-11-22T00:14:50.730Z</time>
      </trkpt>
      <trkpt lat="47.499435" lon="8.188227">
        <ele>376.137835</ele>
        <time>2021-11-22T00:14:52.801Z</time>
      </trkpt>
      <trkpt lat="47.499883" lon="8.188500">
        <ele>375.711878</ele>
        <time>2021-11-22T00:14:58.632Z</time>
      </trkpt>
      <trkpt lat="47.500524" lon="8.188909">
        <ele>375.592265</ele>
        <time>2021-11-22T00:15:07.327Z</time>
      </trkpt>
      <trkpt lat="47.501133" lon="8.189376">
        <ele>375.474735</ele>
        <time>2021-11-22T00:15:17.994Z</time>
      </trkpt>
      <trkpt lat="47.501994" lon="8.189880">
        <ele>376.500954</ele>
        <time>2021-11-22T00:15:36.147Z</time>
      </trkpt>
      <trkpt lat="47.502238" lon="8.190013">
        <ele>376.913823</ele>
        <time>2021-11-22T00:15:41.980Z</time>
      </trkpt>
      <trkpt lat="47.502512" lon="8.190134">
        <ele>377.367843</ele>
        <time>2021-11-22T00:15:48.274Z</time>
      </trkpt>
      <trkpt lat="47.504571" lon="8.190828">
        <ele>381.320115</ele>
        <time>2021-11-22T00:16:36.513Z</time>
      </trkpt>
      <trkpt lat="47.504697" lon="8.190913">
        <ele>381.594119</ele>
        <time>2021-11-22T00:16:39.915Z</time>
      </trkpt>
      <trkpt lat="47.505078" lon="8.191139">
        <ele>382.111331</ele>
        <time>2021-11-22T00:16:49.062Z</time>
      </trkpt>
      <trkpt lat="47.505475" lon="8.191354">
        <ele>382.506895</ele>
        <time>2021-11-22T00:16:57.496Z</time>
      </trkpt>
      <trkpt lat="47.505533" lon="8.191387">
        <ele>382.565038</ele>
        <time>2021-11-22T00:16:58.651Z</time>
      </trkpt>
      <trkpt lat="47.505787" lon="8.191485">
        <ele>382.810653</ele>
        <time>2021-11-22T00:17:03.616Z</time>
      </trkpt>
      <trkpt lat="47.506227" lon="8.191534">
        <ele>383.223538</ele>
        <time>2021-11-22T00:17:10.856Z</time>
      </trkpt>
      <trkpt lat="47.506475" lon="8.191477">
        <ele>383.458379</ele>
        <time>2021-11-22T00:17:14.347Z</time>
      </trkpt>
      <trkpt lat="47.506547" lon="8.191465">
        <ele>383.526177</ele>
        <time>2021-11-22T00:17:15.402Z</time>
      </trkpt>
      <trkpt lat="47.506625" lon="8.191443">
        <ele>383.628581</ele>
        <time>2021-11-22T00:17:16.749Z</time>
      </trkpt>
      <trkpt lat="47.506804" lon="8.191413">
        <ele>383.864119</ele>
        <time>2021-11-22T00:17:19.518Z</time>
      </trkpt>
      <trkpt lat="47.507123" lon="8.191385">
        <ele>384.281944</ele>
        <time>2021-11-22T00:17:25.175Z</time>
      </trkpt>
      <trkpt lat="47.507399" lon="8.191406">
        <ele>384.643291</ele>
        <time>2021-11-22T00:17:30.374Z</time>
      </trkpt>
      <trkpt lat="47.507901" lon="8.191497">
        <ele>385.304559</ele>
        <time>2021-11-22T00:17:40.584Z</time>
      </trkpt>
      <trkpt lat="47.509200" lon="8.191704">
        <ele>388.490247</ele>
        <time>2021-11-22T00:18:13.021Z</time>
      </trkpt>
      <trkpt lat="47.509806" lon="8.191820">
        <ele>390.332533</ele>
        <time>2021-11-22T00:18:31.546Z</time>
      </trkpt>
      <trkpt lat="47.510521" lon="8.191916">
        <ele>392.416613</ele>
        <time>2021-11-22T00:18:51.755Z</time>
      </trkpt>
      <trkpt lat="47.510727" lon="8.191889">
        <ele>392.998058</ele>
        <time>2021-11-22T00:18:57.318Z</time>
      </trkpt>
      <trkpt lat="47.511186" lon="8.191753">
        <ele>394.314151</ele>
        <time>2021-11-22T00:19:09.273Z</time>
      </trkpt>
      <trkpt lat="47.511286" lon="8.191684">
        <ele>394.624342</ele>
        <time>2021-11-22T00:19:11.506Z</time>
      </trkpt>
      <trkpt lat="47.511503" lon="8.191538">
        <ele>395.294494</ele>
        <time>2021-11-22T00:19:17.958Z</time>
      </trkpt>
      <trkpt lat="47.511548" lon="8.191673">
        <ele>395.580384</ele>
        <time>2021-11-22T00:19:20.800Z</time>
      </trkpt>
      <trkpt lat="47.511620" lon="8.191643">
        <ele>395.790680</ele>
        <time>2021-11-22T00:19:22.875Z</time>
      </trkpt>
      <trkpt lat="47.511975" lon="8.191570">
        <ele>396.352701</ele>
        <time>2021-11-22T00:19:31.992Z</time>
      </trkpt>
      <trkpt lat="47.512044" lon="8.191530">
        <ele>396.348592</ele>
        <time>2021-11-22T00:19:33.738Z</time>
      </trkpt>
      <trkpt lat="47.512152" lon="8.191459">
        <ele>396.342038</ele>
        <time>2021-11-22T00:19:36.967Z</time>
      </trkpt>
      <trkpt lat="47.512407" lon="8.191163">
        <ele>396.324067</ele>
        <time>2021-11-22T00:19:44.203Z</time>
      </trkpt>
      <trkpt lat="47.512539" lon="8.190806">
        <ele>396.308821</ele>
        <time>2021-11-22T00:19:48.877Z</time>
      </trkpt>
      <trkpt lat="47.512656" lon="8.190486">
        <ele>396.295190</ele>
        <time>2021-11-22T00:19:51.761Z</time>
      </trkpt>
      <trkpt lat="47.512675" lon="8.190433">
        <ele>396.292942</ele>
        <time>2021-11-22T00:19:52.255Z</time>
      </trkpt>
      <trkpt lat="47.513186" lon="8.189223">
        <ele>395.166893</ele>
        <time>2021-11-22T00:20:02.363Z</time>
      </trkpt>
      <trkpt lat="47.513282" lon="8.189089">
        <ele>394.804156</ele>
        <time>2021-11-22T00:20:03.950Z</time>
      </trkpt>
      <trkpt lat="47.513337" lon="8.189036">
        <ele>394.623737</ele>
        <time>2021-11-22T00:20:04.590Z</time>
      </trkpt>
      <trkpt lat="47.513414" lon="8.188995">
        <ele>394.398765</ele>
        <time>2021-11-22T00:20:05.435Z</time>
      </trkpt>
      <trkpt lat="47.513445" lon="8.188987">
        <ele>394.312252</ele>
        <time>2021-11-22T00:20:05.761Z</time>
      </trkpt>
      <trkpt lat="47.513495" lon="8.188975">
        <ele>394.172991</ele>
        <time>2021-11-22T00:20:06.247Z</time>
      </trkpt>
      <trkpt lat="47.513506" lon="8.188973">
        <ele>394.142522</ele>
        <time>2021-11-22T00:20:06.393Z</time>
      </trkpt>
      <trkpt lat="47.513553" lon="8.188965">
        <ele>394.012453</ele>
        <time>2021-11-22T00:20:07.092Z</time>
      </trkpt>
      <trkpt lat="47.513790" lon="8.188940">
        <ele>393.359214</ele>
        <time>2021-11-22T00:20:09.469Z</time>
      </trkpt>
      <trkpt lat="47.514209" lon="8.188910">
        <ele>392.205904</ele>
        <time>2021-11-22T00:20:13.681Z</time>
      </trkpt>
      <trkpt lat="47.514583" lon="8.188913">
        <ele>391.337804</ele>
        <time>2021-11-22T00:20:17.487Z</time>
      </trkpt>
      <trkpt lat="47.514624" lon="8.188920">
        <ele>391.355184</ele>
        <time>2021-11-22T00:20:18.002Z</time>
      </trkpt>
      <trkpt lat="47.514668" lon="8.188944">
        <ele>391.374930</ele>
        <time>2021-11-22T00:20:18.519Z</time>
      </trkpt>
      <trkpt lat="47.514726" lon="8.189055">
        <ele>391.414846</ele>
        <time>2021-11-22T00:20:19.466Z</time>
      </trkpt>
      <trkpt lat="47.514763" lon="8.189216">
        <ele>391.463216</ele>
        <time>2021-11-22T00:20:20.623Z</time>
      </trkpt>
      <trkpt lat="47.514808" lon="8.189201">
        <ele>391.482641</ele>
        <time>2021-11-22T00:20:21.068Z</time>
      </trkpt>
      <trkpt lat="47.515385" lon="8.189286">
        <ele>391.726823</ele>
        <time>2021-11-22T00:20:30.461Z</time>
      </trkpt>
      <trkpt lat="47.515418" lon="8.189292">
        <ele>391.740824</ele>
        <time>2021-11-22T00:20:31.224Z</time>
      </trkpt>
      <trkpt lat="47.515505" lon="8.189300">
        <ele>391.777532</ele>
        <time>2021-11-22T00:20:33.230Z</time>
      </trkpt>
      <trkpt lat="47.515617" lon="8.189298">
        <ele>391.824700</ele>
        <time>2021-11-22T00:20:35.976Z</time>
      </trkpt>
      <trkpt lat="47.515726" lon="8.189285">
        <ele>391.870750</ele>
        <time>2021-11-22T00:20:38.353Z</time>
      </trkpt>
      <trkpt lat="47.515946" lon="8.189248">
        <ele>391.963991</ele>
        <time>2021-11-22T00:20:43.873Z</time>
      </trkpt>
      <trkpt lat="47.516213" lon="8.189152">
        <ele>392.118420</ele>
        <time>2021-11-22T00:20:50.730Z</time>
      </trkpt>
      <trkpt lat="47.516390" lon="8.189083">
        <ele>392.716266</ele>
        <time>2021-11-22T00:20:55.573Z</time>
      </trkpt>
      <trkpt lat="47.516551" lon="8.189020">
        <ele>393.260203</ele>
        <time>2021-11-22T00:20:59.934Z</time>
      </trkpt>
      <trkpt lat="47.516623" lon="8.188992">
        <ele>393.503356</ele>
        <time>2021-11-22T00:21:01.934Z</time>
      </trkpt>
      <trkpt lat="47.516826" lon="8.188896">
        <ele>394.199424</ele>
        <time>2021-11-22T00:21:07.842Z</time>
      </trkpt>
      <trkpt lat="47.516944" lon="8.188840">
        <ele>394.604167</ele>
        <time>2021-11-22T00:21:11.162Z</time>
      </trkpt>
      <trkpt lat="47.517117" lon="8.188760">
        <ele>395.196162</ele>
        <time>2021-11-22T00:21:16.283Z</time>
      </trkpt>
      <trkpt lat="47.517285" lon="8.188659">
        <ele>395.788416</ele>
        <time>2021-11-22T00:21:21.372Z</time>
      </trkpt>
      <trkpt lat="47.517536" lon="8.188495">
        <ele>396.684544</ele>
        <time>2021-11-22T00:21:29.455Z</time>
      </trkpt>
      <trkpt lat="47.517762" lon="8.188338">
        <ele>397.499947</ele>
        <time>2021-11-22T00:21:37.014Z</time>
      </trkpt>
      <trkpt lat="47.518144" lon="8.188042">
        <ele>398.949488</ele>
        <time>2021-11-22T00:21:50.150Z</time>
      </trkpt>
      <trkpt lat="47.518797" lon="8.187487">
        <ele>401.514615</ele>
        <time>2021-11-22T00:22:11.467Z</time>
      </trkpt>
      <trkpt lat="47.518919" lon="8.187383">
        <ele>401.994212</ele>
        <time>2021-11-22T00:22:15.263Z</time>
      </trkpt>
      <trkpt lat="47.519082" lon="8.187247">
        <ele>402.631624</ele>
        <time>2021-11-22T00:22:19.941Z</time>
      </trkpt>
      <trkpt lat="47.519270" lon="8.187089">
        <ele>403.368090</ele>
        <time>2021-11-22T00:22:26.116Z</time>
      </trkpt>
      <trkpt lat="47.519650" lon="8.186763">
        <ele>404.938245</ele>
        <time>2021-11-22T00:22:38.661Z</time>
      </trkpt>
      <trkpt lat="47.519919" lon="8.186523">
        <ele>406.108665</ele>
        <time>2021-11-22T00:22:47.793Z</time>
      </trkpt>
      <trkpt lat="47.520283" lon="8.186229">
        <ele>407.653900</ele>
        <time>2021-11-22T00:22:59.626Z</time>
      </trkpt>
      <trkpt lat="47.520432" lon="8.186093">
        <ele>408.306211</ele>
        <time>2021-11-22T00:23:04.744Z</time>
      </trkpt>
      <trkpt lat="47.520524" lon="8.186006">
        <ele>408.713028</ele>
        <time>2021-11-22T00:23:07.919Z</time>
      </trkpt>
      <trkpt lat="47.520676" lon="8.185836">
        <ele>409.422923</ele>
        <time>2021-11-22T00:23:13.538Z</time>
      </trkpt>
      <trkpt lat="47.521014" lon="8.185264">
        <ele>411.552614</ele>
        <time>2021-11-22T00:23:29.779Z</time>
      </trkpt>
      <trkpt lat="47.521136" lon="8.184787">
        <ele>413.336917</ele>
        <time>2021-11-22T00:23:41.639Z</time>
      </trkpt>
      <trkpt lat="47.521251" lon="8.183982">
        <ele>416.215276</ele>
        <time>2021-11-22T00:24:01.587Z</time>
      </trkpt>
      <trkpt lat="47.521367" lon="8.183213">
        <ele>418.971669</ele>
        <time>2021-11-22T00:24:21.490Z</time>
      </trkpt>
      <trkpt lat="47.521447" lon="8.182661">
        <ele>420.999189</ele>
        <time>2021-11-22T00:24:35.706Z</time>
      </trkpt>
      <trkpt lat="47.521560" lon="8.182094">
        <ele>423.195151</ele>
        <time>2021-11-22T00:24:50.467Z</time>
      </trkpt>
      <trkpt lat="47.521670" lon="8.181716">
        <ele>424.724073</ele>
        <time>2021-11-22T00:25:02.056Z</time>
      </trkpt>
      <trkpt lat="47.521736" lon="8.181541">
        <ele>425.468623</ele>
        <time>2021-11-22T00:25:07.299Z</time>
      </trkpt>
      <trkpt lat="47.521964" lon="8.181072">
        <ele>427.615201</ele>
        <time>2021-11-22T00:25:21.877Z</time>
      </trkpt>
      <trkpt lat="47.522489" lon="8.180212">
        <ele>431.561391</ele>
        <time>2021-11-22T00:25:47.811Z</time>
      </trkpt>
      <trkpt lat="47.522561" lon="8.180084">
        <ele>432.064798</ele>
        <time>2021-11-22T00:25:52.362Z</time>
      </trkpt>
      <trkpt lat="47.522604" lon="8.180007">
        <ele>432.366736</ele>
        <time>2021-11-22T00:25:54.423Z</time>
      </trkpt>
      <trkpt lat="47.522744" lon="8.179763">
        <ele>433.334277</ele>
        <time>2021-11-22T00:26:00.622Z</time>
      </trkpt>
      <trkpt lat="47.522960" lon="8.179132">
        <ele>435.472051</ele>
        <time>2021-11-22T00:26:15.391Z</time>
      </trkpt>
      <trkpt lat="47.523042" lon="8.178308">
        <ele>437.988936</ele>
        <time>2021-11-22T00:26:33.473Z</time>
      </trkpt>
      <trkpt lat="47.523061" lon="8.177323">
        <ele>442.359215</ele>
        <time>2021-11-22T00:26:57.702Z</time>
      </trkpt>
      <trkpt lat="47.523093" lon="8.176377">
        <ele>446.582927</ele>
        <time>2021-11-22T00:27:23.920Z</time>
      </trkpt>
      <trkpt lat="47.523138" lon="8.175042">
        <ele>453.592330</ele>
        <time>2021-11-22T00:28:07.919Z</time>
      </trkpt>
      <trkpt lat="47.523512" lon="8.172934">
        <ele>467.153606</ele>
        <time>2021-11-22T00:29:26.388Z</time>
      </trkpt>
      <trkpt lat="47.523811" lon="8.171359">
        <ele>476.768340</ele>
        <time>2021-11-22T00:30:23.669Z</time>
      </trkpt>
      <trkpt lat="47.523894" lon="8.170892">
        <ele>479.606250</ele>
        <time>2021-11-22T00:30:39.569Z</time>
      </trkpt>
      <trkpt lat="47.524251" lon="8.168070">
        <ele>493.742123</ele>
        <time>2021-11-22T00:32:02.323Z</time>
      </trkpt>
      <trkpt lat="47.524502" lon="8.166796">
        <ele>500.244098</ele>
        <time>2021-11-22T00:32:40.137Z</time>
      </trkpt>
      <trkpt lat="47.524572" lon="8.166545">
        <ele>501.583084</ele>
        <time>2021-11-22T00:32:48.238Z</time>
      </trkpt>
      <trkpt lat="47.524622" lon="8.166379">
        <ele>502.479303</ele>
        <time>2021-11-22T00:32:53.377Z</time>
      </trkpt>
      <trkpt lat="47.524789" lon="8.165884">
        <ele>505.207627</ele>
        <time>2021-11-22T00:33:09.777Z</time>
      </trkpt>
      <trkpt lat="47.525278" lon="8.164811">
        <ele>512.072513</ele>
        <time>2021-11-22T00:33:51.304Z</time>
      </trkpt>
      <trkpt lat="47.525520" lon="8.164388">
        <ele>515.170829</ele>
        <time>2021-11-22T00:34:10.520Z</time>
      </trkpt>
      <trkpt lat="47.526029" lon="8.163712">
        <ele>520.829227</ele>
        <time>2021-11-22T00:34:43.072Z</time>
      </trkpt>
      <trkpt lat="47.526202" lon="8.163510">
        <ele>522.652495</ele>
        <time>2021-11-22T00:34:54.127Z</time>
      </trkpt>
      <trkpt lat="47.526614" lon="8.163062">
        <ele>526.555881</ele>
        <time>2021-11-22T00:35:17.461Z</time>
      </trkpt>
      <trkpt lat="47.526845" lon="8.162813">
        <ele>528.728231</ele>
        <time>2021-11-22T00:35:30.151Z</time>
      </trkpt>
      <trkpt lat="47.527073" lon="8.162555">
        <ele>530.909919</ele>
        <time>2021-11-22T00:35:44.167Z</time>
      </trkpt>
      <trkpt lat="47.527259" lon="8.162351">
        <ele>532.669733</ele>
        <time>2021-11-22T00:35:55.187Z</time>
      </trkpt>
      <trkpt lat="47.527699" lon="8.161810">
        <ele>536.952943</ele>
        <time>2021-11-22T00:36:18.827Z</time>
      </trkpt>
      <trkpt lat="47.527813" lon="8.161522">
        <ele>538.434736</ele>
        <time>2021-11-22T00:36:28.133Z</time>
      </trkpt>
      <trkpt lat="47.527850" lon="8.161247">
        <ele>539.679362</ele>
        <time>2021-11-22T00:36:36.200Z</time>
      </trkpt>
      <trkpt lat="47.527845" lon="8.161149">
        <ele>540.115590</ele>
        <time>2021-11-22T00:36:39.866Z</time>
      </trkpt>
      <trkpt lat="47.527842" lon="8.161073">
        <ele>540.453504</ele>
        <time>2021-11-22T00:36:41.459Z</time>
      </trkpt>
      <trkpt lat="47.527767" lon="8.160384">
        <ele>543.551222</ele>
        <time>2021-11-22T00:36:59.577Z</time>
      </trkpt>
      <trkpt lat="47.527761" lon="8.160295">
        <ele>543.948226</ele>
        <time>2021-11-22T00:37:01.412Z</time>
      </trkpt>
      <trkpt lat="47.527764" lon="8.160196">
        <ele>544.388096</ele>
        <time>2021-11-22T00:37:05.243Z</time>
      </trkpt>
      <trkpt lat="47.527794" lon="8.159980">
        <ele>545.366918</ele>
        <time>2021-11-22T00:37:11.166Z</time>
      </trkpt>
      <trkpt lat="47.527823" lon="8.159869">
        <ele>545.895202</ele>
        <time>2021-11-22T00:37:16.362Z</time>
      </trkpt>
      <trkpt lat="47.527866" lon="8.159756">
        <ele>546.470935</ele>
        <time>2021-11-22T00:37:19.191Z</time>
      </trkpt>
      <trkpt lat="47.528044" lon="8.159481">
        <ele>548.161803</ele>
        <time>2021-11-22T00:37:31.381Z</time>
      </trkpt>
      <trkpt lat="47.528235" lon="8.159313">
        <ele>548.514464</ele>
        <time>2021-11-22T00:37:40.333Z</time>
      </trkpt>
      <trkpt lat="47.528358" lon="8.159233">
        <ele>548.621525</ele>
        <time>2021-11-22T00:37:44.460Z</time>
      </trkpt>
      <trkpt lat="47.528551" lon="8.159101">
        <ele>548.790946</ele>
        <time>2021-11-22T00:37:51.458Z</time>
      </trkpt>
      <trkpt lat="47.528696" lon="8.159009">
        <ele>548.916662</ele>
        <time>2021-11-22T00:37:55.777Z</time>
      </trkpt>
      <trkpt lat="47.528773" lon="8.158954">
        <ele>548.984791</ele>
        <time>2021-11-22T00:37:56.905Z</time>
      </trkpt>
      <trkpt lat="47.528873" lon="8.158872">
        <ele>549.075886</ele>
        <time>2021-11-22T00:38:00.303Z</time>
      </trkpt>
      <trkpt lat="47.528962" lon="8.158795">
        <ele>549.158030</ele>
        <time>2021-11-22T00:38:01.319Z</time>
      </trkpt>
      <trkpt lat="47.529013" lon="8.158747">
        <ele>549.206187</ele>
        <time>2021-11-22T00:38:04.738Z</time>
      </trkpt>
      <trkpt lat="47.529039" lon="8.158720">
        <ele>549.231494</ele>
        <time>2021-11-22T00:38:05.058Z</time>
      </trkpt>
      <trkpt lat="47.529091" lon="8.158660">
        <ele>549.284028</ele>
        <time>2021-11-22T00:38:05.712Z</time>
      </trkpt>
      <trkpt lat="47.529235" lon="8.158441">
        <ele>549.448521</ele>
        <time>2021-11-22T00:38:07.816Z</time>
      </trkpt>
      <trkpt lat="47.529315" lon="8.158315">
        <ele>549.541590</ele>
        <time>2021-11-22T00:38:09.486Z</time>
      </trkpt>
      <trkpt lat="47.529437" lon="8.158073">
        <ele>549.704105</ele>
        <time>2021-11-22T00:38:11.488Z</time>
      </trkpt>
      <trkpt lat="47.529679" lon="8.157567">
        <ele>547.169291</ele>
        <time>2021-11-22T00:38:15.425Z</time>
      </trkpt>
      <trkpt lat="47.529810" lon="8.157300">
        <ele>545.247765</ele>
        <time>2021-11-22T00:38:17.515Z</time>
      </trkpt>
      <trkpt lat="47.529856" lon="8.157192">
        <ele>544.504343</ele>
        <time>2021-11-22T00:38:18.233Z</time>
      </trkpt>
      <trkpt lat="47.530071" lon="8.156701">
        <ele>541.097259</ele>
        <time>2021-11-22T00:38:21.649Z</time>
      </trkpt>
      <trkpt lat="47.530199" lon="8.156282">
        <ele>538.419805</ele>
        <time>2021-11-22T00:38:24.302Z</time>
      </trkpt>
      <trkpt lat="47.530239" lon="8.155804">
        <ele>535.615629</ele>
        <time>2021-11-22T00:38:27.106Z</time>
      </trkpt>
      <trkpt lat="47.530234" lon="8.155720">
        <ele>535.124690</ele>
        <time>2021-11-22T00:38:27.577Z</time>
      </trkpt>
      <trkpt lat="47.530211" lon="8.155580">
        <ele>534.285849</ele>
        <time>2021-11-22T00:38:28.396Z</time>
      </trkpt>
      <trkpt lat="47.530058" lon="8.154979">
        <ele>530.636451</ele>
        <time>2021-11-22T00:38:32.125Z</time>
      </trkpt>
      <trkpt lat="47.529728" lon="8.154087">
        <ele>524.857384</ele>
        <time>2021-11-22T00:38:38.124Z</time>
      </trkpt>
      <trkpt lat="47.529587" lon="8.153510">
        <ele>521.370869</ele>
        <time>2021-11-22T00:38:41.833Z</time>
      </trkpt>
      <trkpt lat="47.529529" lon="8.153239">
        <ele>519.755591</ele>
        <time>2021-11-22T00:38:43.597Z</time>
      </trkpt>
      <trkpt lat="47.529405" lon="8.152475">
        <ele>516.681363</ele>
        <time>2021-11-22T00:38:48.486Z</time>
      </trkpt>
      <trkpt lat="47.529292" lon="8.151912">
        <ele>514.546254</ele>
        <time>2021-11-22T00:38:52.141Z</time>
      </trkpt>
      <trkpt lat="47.529120" lon="8.151400">
        <ele>512.467406</ele>
        <time>2021-11-22T00:38:55.695Z</time>
      </trkpt>
      <trkpt lat="47.529014" lon="8.151078">
        <ele>511.165170</ele>
        <time>2021-11-22T00:38:57.972Z</time>
      </trkpt>
      <trkpt lat="47.528964" lon="8.150888">
        <ele>510.423879</ele>
        <time>2021-11-22T00:38:59.279Z</time>
      </trkpt>
      <trkpt lat="47.528852" lon="8.149954">
        <ele>508.280655</ele>
        <time>2021-11-22T00:39:05.670Z</time>
      </trkpt>
      <trkpt lat="47.528834" lon="8.149583">
        <ele>507.636729</ele>
        <time>2021-11-22T00:39:08.250Z</time>
      </trkpt>
      <trkpt lat="47.528815" lon="8.149196">
        <ele>506.964990</ele>
        <time>2021-11-22T00:39:11.002Z</time>
      </trkpt>
      <trkpt lat="47.528722" lon="8.148418">
        <ele>505.597182</ele>
        <time>2021-11-22T00:39:16.859Z</time>
      </trkpt>
      <trkpt lat="47.528534" lon="8.147807">
        <ele>504.272230</ele>
        <time>2021-11-22T00:39:22.280Z</time>
      </trkpt>
      <trkpt lat="47.528477" lon="8.147642">
        <ele>503.827504</ele>
        <time>2021-11-22T00:39:23.880Z</time>
      </trkpt>
      <trkpt lat="47.528291" lon="8.147059">
        <ele>502.280298</ele>
        <time>2021-11-22T00:39:29.115Z</time>
      </trkpt>
      <trkpt lat="47.528185" lon="8.146699">
        <ele>501.337915</ele>
        <time>2021-11-22T00:39:32.348Z</time>
      </trkpt>
      <trkpt lat="47.528149" lon="8.146523">
        <ele>500.896649</ele>
        <time>2021-11-22T00:39:33.627Z</time>
      </trkpt>
      <trkpt lat="47.528029" lon="8.145634">
        <ele>498.721269</ele>
        <time>2021-11-22T00:39:39.393Z</time>
      </trkpt>
      <trkpt lat="47.528031" lon="8.145045">
        <ele>494.484836</ele>
        <time>2021-11-22T00:39:42.820Z</time>
      </trkpt>
      <trkpt lat="47.528059" lon="8.144815">
        <ele>492.554742</ele>
        <time>2021-11-22T00:39:44.166Z</time>
      </trkpt>
      <trkpt lat="47.528102" lon="8.144463">
        <ele>489.600539</ele>
        <time>2021-11-22T00:39:46.229Z</time>
      </trkpt>
      <trkpt lat="47.528165" lon="8.144175">
        <ele>487.100378</ele>
        <time>2021-11-22T00:39:47.962Z</time>
      </trkpt>
      <trkpt lat="47.528319" lon="8.143633">
        <ele>482.244104</ele>
        <time>2021-11-22T00:39:51.297Z</time>
      </trkpt>
      <trkpt lat="47.528529" lon="8.143139">
        <ele>477.423219</ele>
        <time>2021-11-22T00:39:54.564Z</time>
      </trkpt>
      <trkpt lat="47.529056" lon="8.142203">
        <ele>465.474610</ele>
        <time>2021-11-22T00:40:01.339Z</time>
      </trkpt>
      <trkpt lat="47.529206" lon="8.141942">
        <ele>462.058554</ele>
        <time>2021-11-22T00:40:03.248Z</time>
      </trkpt>
      <trkpt lat="47.529330" lon="8.141745">
        <ele>459.374266</ele>
        <time>2021-11-22T00:40:04.751Z</time>
      </trkpt>
      <trkpt lat="47.529595" lon="8.141302">
        <ele>453.475472</ele>
        <time>2021-11-22T00:40:08.103Z</time>
      </trkpt>
      <trkpt lat="47.529775" lon="8.140977">
        <ele>449.562785</ele>
        <time>2021-11-22T00:40:10.505Z</time>
      </trkpt>
      <trkpt lat="47.530071" lon="8.140473">
        <ele>445.832077</ele>
        <time>2021-11-22T00:40:14.496Z</time>
      </trkpt>
      <trkpt lat="47.530742" lon="8.139379">
        <ele>437.577530</ele>
        <time>2021-11-22T00:40:23.159Z</time>
      </trkpt>
      <trkpt lat="47.531156" lon="8.138865">
        <ele>433.856918</ele>
        <time>2021-11-22T00:40:28.858Z</time>
      </trkpt>
      <trkpt lat="47.531239" lon="8.138781">
        <ele>433.347811</ele>
        <time>2021-11-22T00:40:29.683Z</time>
      </trkpt>
      <trkpt lat="47.531449" lon="8.138596">
        <ele>432.110378</ele>
        <time>2021-11-22T00:40:36.030Z</time>
      </trkpt>
      <trkpt lat="47.531461" lon="8.138588">
        <ele>432.043733</ele>
        <time>2021-11-22T00:40:36.402Z</time>
      </trkpt>
      <trkpt lat="47.531896" lon="8.138317">
        <ele>429.653773</ele>
        <time>2021-11-22T00:40:40.605Z</time>
      </trkpt>
      <trkpt lat="47.532062" lon="8.138249">
        <ele>428.781524</ele>
        <time>2021-11-22T00:40:44.768Z</time>
      </trkpt>
      <trkpt lat="47.532251" lon="8.138188">
        <ele>427.801894</ele>
        <time>2021-11-22T00:40:46.434Z</time>
      </trkpt>
      <trkpt lat="47.532921" lon="8.138051">
        <ele>424.373493</ele>
        <time>2021-11-22T00:40:52.737Z</time>
      </trkpt>
      <trkpt lat="47.533257" lon="8.137990">
        <ele>422.655720</ele>
        <time>2021-11-22T00:40:56.021Z</time>
      </trkpt>
      <trkpt lat="47.533600" lon="8.137926">
        <ele>420.901429</ele>
        <time>2021-11-22T00:40:59.301Z</time>
      </trkpt>
      <trkpt lat="47.533889" lon="8.137879">
        <ele>419.426102</ele>
        <time>2021-11-22T00:41:02.033Z</time>
      </trkpt>
      <trkpt lat="47.534074" lon="8.137846">
        <ele>418.480547</ele>
        <time>2021-11-22T00:41:03.790Z</time>
      </trkpt>
      <trkpt lat="47.534107" lon="8.137840">
        <ele>418.311833</ele>
        <time>2021-11-22T00:41:04.122Z</time>
      </trkpt>
      <trkpt lat="47.534213" lon="8.137821">
        <ele>417.770018</ele>
        <time>2021-11-22T00:41:05.096Z</time>
      </trkpt>
      <trkpt lat="47.534814" lon="8.137722">
        <ele>414.804018</ele>
        <time>2021-11-22T00:41:10.726Z</time>
      </trkpt>
      <trkpt lat="47.535048" lon="8.137685">
        <ele>413.668155</ele>
        <time>2021-11-22T00:41:12.915Z</time>
      </trkpt>
      <trkpt lat="47.535119" lon="8.137674">
        <ele>413.323590</ele>
        <time>2021-11-22T00:41:13.577Z</time>
      </trkpt>
      <trkpt lat="47.535263" lon="8.137663">
        <ele>412.627623</ele>
        <time>2021-11-22T00:41:14.957Z</time>
      </trkpt>
      <trkpt lat="47.535322" lon="8.137658">
        <ele>412.342382</ele>
        <time>2021-11-22T00:41:15.508Z</time>
      </trkpt>
      <trkpt lat="47.535430" lon="8.137649">
        <ele>411.820275</ele>
        <time>2021-11-22T00:41:16.545Z</time>
      </trkpt>
      <trkpt lat="47.535502" lon="8.137652">
        <ele>411.472615</ele>
        <time>2021-11-22T00:41:17.218Z</time>
      </trkpt>
      <trkpt lat="47.535749" lon="8.137651">
        <ele>410.280418</ele>
        <time>2021-11-22T00:41:19.583Z</time>
      </trkpt>
      <trkpt lat="47.536065" lon="8.137655">
        <ele>408.755127</ele>
        <time>2021-11-22T00:41:22.675Z</time>
      </trkpt>
      <trkpt lat="47.536180" lon="8.137660">
        <ele>408.199819</ele>
        <time>2021-11-22T00:41:23.777Z</time>
      </trkpt>
      <trkpt lat="47.536180" lon="8.137660">
        <ele>408.199819</ele>
        <time>2021-11-22T00:41:23.783Z</time>
      </trkpt>
      <trkpt lat="47.536373" lon="8.137663">
        <ele>407.516647</ele>
        <time>2021-11-22T00:41:25.661Z</time>
      </trkpt>
      <trkpt lat="47.537303" lon="8.137605">
        <ele>404.333807</ele>
        <time>2021-11-22T00:41:34.792Z</time>
      </trkpt>
      <trkpt lat="47.537561" lon="8.137544">
        <ele>403.440439</ele>
        <time>2021-11-22T00:41:37.555Z</time>
      </trkpt>
      <trkpt lat="47.537646" lon="8.137515">
        <ele>403.142182</ele>
        <time>2021-11-22T00:41:38.402Z</time>
      </trkpt>
      <trkpt lat="47.537954" lon="8.137399">
        <ele>402.055503</ele>
        <time>2021-11-22T00:41:41.830Z</time>
      </trkpt>
      <trkpt lat="47.538245" lon="8.137269">
        <ele>401.316889</ele>
        <time>2021-11-22T00:41:45.152Z</time>
      </trkpt>
      <trkpt lat="47.538326" lon="8.137234">
        <ele>401.119329</ele>
        <time>2021-11-22T00:41:46.030Z</time>
      </trkpt>
      <trkpt lat="47.539177" lon="8.136833">
        <ele>399.028390</ele>
        <time>2021-11-22T00:41:55.700Z</time>
      </trkpt>
      <trkpt lat="47.539418" lon="8.136710">
        <ele>398.431553</ele>
        <time>2021-11-22T00:41:58.469Z</time>
      </trkpt>
      <trkpt lat="47.539754" lon="8.136528">
        <ele>397.545865</ele>
        <time>2021-11-22T00:42:02.246Z</time>
      </trkpt>
      <trkpt lat="47.540238" lon="8.136236">
        <ele>395.965569</ele>
        <time>2021-11-22T00:42:07.647Z</time>
      </trkpt>
      <trkpt lat="47.540569" lon="8.135993">
        <ele>394.848481</ele>
        <time>2021-11-22T00:42:11.457Z</time>
      </trkpt>
      <trkpt lat="47.540731" lon="8.135878">
        <ele>394.305265</ele>
        <time>2021-11-22T00:42:13.364Z</time>
      </trkpt>
      <trkpt lat="47.540869" lon="8.135758">
        <ele>393.821382</ele>
        <time>2021-11-22T00:42:14.888Z</time>
      </trkpt>
      <trkpt lat="47.541466" lon="8.135315">
        <ele>391.805457</ele>
        <time>2021-11-22T00:42:21.682Z</time>
      </trkpt>
      <trkpt lat="47.541516" lon="8.135303">
        <ele>391.653230</ele>
        <time>2021-11-22T00:42:22.140Z</time>
      </trkpt>
      <trkpt lat="47.541574" lon="8.135288">
        <ele>391.476283</ele>
        <time>2021-11-22T00:42:22.719Z</time>
      </trkpt>
      <trkpt lat="47.541750" lon="8.135267">
        <ele>390.945627</ele>
        <time>2021-11-22T00:42:24.537Z</time>
      </trkpt>
      <trkpt lat="47.541919" lon="8.135253">
        <ele>390.436928</ele>
        <time>2021-11-22T00:42:26.169Z</time>
      </trkpt>
      <trkpt lat="47.542003" lon="8.135244">
        <ele>390.183819</ele>
        <time>2021-11-22T00:42:27.053Z</time>
      </trkpt>
      <trkpt lat="47.542148" lon="8.135197">
        <ele>389.737732</ele>
        <time>2021-11-22T00:42:28.582Z</time>
      </trkpt>
      <trkpt lat="47.542698" lon="8.134836">
        <ele>387.929802</ele>
        <time>2021-11-22T00:42:34.804Z</time>
      </trkpt>
      <trkpt lat="47.542844" lon="8.134643">
        <ele>387.341723</ele>
        <time>2021-11-22T00:42:36.851Z</time>
      </trkpt>
      <trkpt lat="47.542894" lon="8.134525">
        <ele>387.059078</ele>
        <time>2021-11-22T00:42:37.792Z</time>
      </trkpt>
      <trkpt lat="47.542926" lon="8.134419">
        <ele>386.844747</ele>
        <time>2021-11-22T00:42:38.742Z</time>
      </trkpt>
      <trkpt lat="47.543005" lon="8.134187">
        <ele>386.441104</ele>
        <time>2021-11-22T00:42:40.631Z</time>
      </trkpt>
      <trkpt lat="47.543075" lon="8.134036">
        <ele>386.156557</ele>
        <time>2021-11-22T00:42:41.909Z</time>
      </trkpt>
      <trkpt lat="47.543149" lon="8.133918">
        <ele>385.906364</ele>
        <time>2021-11-22T00:42:43.154Z</time>
      </trkpt>
      <trkpt lat="47.543220" lon="8.133852">
        <ele>385.713476</ele>
        <time>2021-11-22T00:42:44.013Z</time>
      </trkpt>
      <trkpt lat="47.543321" lon="8.133795">
        <ele>385.464761</ele>
        <time>2021-11-22T00:42:45.112Z</time>
      </trkpt>
      <trkpt lat="47.543505" lon="8.133721">
        <ele>385.026016</ele>
        <time>2021-11-22T00:42:47.324Z</time>
      </trkpt>
      <trkpt lat="47.543619" lon="8.133664">
        <ele>384.749141</ele>
        <time>2021-11-22T00:42:48.610Z</time>
      </trkpt>
      <trkpt lat="47.543708" lon="8.133619">
        <ele>384.532735</ele>
        <time>2021-11-22T00:42:49.551Z</time>
      </trkpt>
      <trkpt lat="47.543845" lon="8.133524">
        <ele>384.184643</ele>
        <time>2021-11-22T00:42:51.420Z</time>
      </trkpt>
      <trkpt lat="47.544105" lon="8.133316">
        <ele>383.504667</ele>
        <time>2021-11-22T00:42:54.530Z</time>
      </trkpt>
      <trkpt lat="47.544222" lon="8.133222">
        <ele>383.198382</ele>
        <time>2021-11-22T00:42:55.990Z</time>
      </trkpt>
      <trkpt lat="47.544453" lon="8.133038">
        <ele>382.558717</ele>
        <time>2021-11-22T00:42:58.919Z</time>
      </trkpt>
      <trkpt lat="47.544650" lon="8.132899">
        <ele>381.955985</ele>
        <time>2021-11-22T00:43:01.149Z</time>
      </trkpt>
      <trkpt lat="47.544810" lon="8.132765">
        <ele>381.448290</ele>
        <time>2021-11-22T00:43:03.190Z</time>
      </trkpt>
      <trkpt lat="47.545059" lon="8.132589">
        <ele>380.686214</ele>
        <time>2021-11-22T00:43:06.081Z</time>
      </trkpt>
      <trkpt lat="47.545184" lon="8.132503">
        <ele>380.305515</ele>
        <time>2021-11-22T00:43:07.496Z</time>
      </trkpt>
      <trkpt lat="47.545331" lon="8.132442">
        <ele>379.883836</ele>
        <time>2021-11-22T00:43:09.057Z</time>
      </trkpt>
      <trkpt lat="47.545734" lon="8.132329">
        <ele>378.750885</ele>
        <time>2021-11-22T00:43:13.286Z</time>
      </trkpt>
      <trkpt lat="47.545962" lon="8.132304">
        <ele>378.119369</ele>
        <time>2021-11-22T00:43:15.596Z</time>
      </trkpt>
      <trkpt lat="47.546023" lon="8.132300">
        <ele>377.950707</ele>
        <time>2021-11-22T00:43:16.199Z</time>
      </trkpt>
      <trkpt lat="47.546602" lon="8.132235">
        <ele>376.220319</ele>
        <time>2021-11-22T00:43:22.086Z</time>
      </trkpt>
      <trkpt lat="47.546938" lon="8.132181">
        <ele>375.205900</ele>
        <time>2021-11-22T00:43:25.460Z</time>
      </trkpt>
      <trkpt lat="47.547951" lon="8.132055">
        <ele>372.279821</ele>
        <time>2021-11-22T00:43:35.947Z</time>
      </trkpt>
      <trkpt lat="47.548544" lon="8.131974">
        <ele>371.374641</ele>
        <time>2021-11-22T00:43:42.511Z</time>
      </trkpt>
      <trkpt lat="47.549752" lon="8.131786">
        <ele>369.583727</ele>
        <time>2021-11-22T00:43:57.160Z</time>
      </trkpt>
      <trkpt lat="47.550488" lon="8.131671">
        <ele>368.885542</ele>
        <time>2021-11-22T00:44:06.748Z</time>
      </trkpt>
      <trkpt lat="47.550614" lon="8.131652">
        <ele>368.766061</ele>
        <time>2021-11-22T00:44:08.604Z</time>
      </trkpt>
      <trkpt lat="47.550712" lon="8.131637">
        <ele>368.673117</ele>
        <time>2021-11-22T00:44:09.740Z</time>
      </trkpt>
      <trkpt lat="47.551029" lon="8.131586">
        <ele>368.372304</ele>
        <time>2021-11-22T00:44:13.763Z</time>
      </trkpt>
      <trkpt lat="47.551383" lon="8.131531">
        <ele>368.036513</ele>
        <time>2021-11-22T00:44:17.905Z</time>
      </trkpt>
      <trkpt lat="47.551749" lon="8.131479">
        <ele>367.472176</ele>
        <time>2021-11-22T00:44:22.182Z</time>
      </trkpt>
      <trkpt lat="47.551784" lon="8.131474">
        <ele>367.413939</ele>
        <time>2021-11-22T00:44:22.528Z</time>
      </trkpt>
      <trkpt lat="47.551873" lon="8.131469">
        <ele>367.266428</ele>
        <time>2021-11-22T00:44:23.547Z</time>
      </trkpt>
      <trkpt lat="47.552293" lon="8.131579">
        <ele>366.560025</ele>
        <time>2021-11-22T00:44:28.573Z</time>
      </trkpt>
      <trkpt lat="47.552326" lon="8.131597">
        <ele>366.501783</ele>
        <time>2021-11-22T00:44:28.885Z</time>
      </trkpt>
      <trkpt lat="47.552402" lon="8.131645">
        <ele>366.364951</ele>
        <time>2021-11-22T00:44:29.887Z</time>
      </trkpt>
      <trkpt lat="47.552493" lon="8.131722">
        <ele>366.191388</ele>
        <time>2021-11-22T00:44:31.044Z</time>
      </trkpt>
      <trkpt lat="47.552602" lon="8.131831">
        <ele>365.973588</ele>
        <time>2021-11-22T00:44:32.555Z</time>
      </trkpt>
      <trkpt lat="47.553483" lon="8.132756">
        <ele>364.136149</ele>
        <time>2021-11-22T00:44:44.611Z</time>
      </trkpt>
      <trkpt lat="47.553541" lon="8.132821">
        <ele>364.008434</ele>
        <time>2021-11-22T00:44:45.307Z</time>
      </trkpt>
      <trkpt lat="47.553641" lon="8.132928">
        <ele>363.791807</ele>
        <time>2021-11-22T00:44:46.838Z</time>
      </trkpt>
      <trkpt lat="47.553708" lon="8.133003">
        <ele>363.644336</ele>
        <time>2021-11-22T00:44:47.917Z</time>
      </trkpt>
      <trkpt lat="47.553759" lon="8.133056">
        <ele>363.534936</ele>
        <time>2021-11-22T00:44:48.648Z</time>
      </trkpt>
      <trkpt lat="47.553847" lon="8.133128">
        <ele>363.358393</ele>
        <time>2021-11-22T00:44:49.734Z</time>
      </trkpt>
      <trkpt lat="47.554071" lon="8.133239">
        <ele>362.943584</ele>
        <time>2021-11-22T00:44:52.493Z</time>
      </trkpt>
      <trkpt lat="47.554467" lon="8.133300">
        <ele>362.244376</ele>
        <time>2021-11-22T00:44:57.042Z</time>
      </trkpt>
      <trkpt lat="47.554619" lon="8.133314">
        <ele>361.976916</ele>
        <time>2021-11-22T00:44:58.647Z</time>
      </trkpt>
      <trkpt lat="47.554855" lon="8.133333">
        <ele>361.502939</ele>
        <time>2021-11-22T00:45:01.285Z</time>
      </trkpt>
      <trkpt lat="47.555303" lon="8.133375">
        <ele>360.547456</ele>
        <time>2021-11-22T00:45:06.217Z</time>
      </trkpt>
      <trkpt lat="47.555444" lon="8.133390">
        <ele>360.246563</ele>
        <time>2021-11-22T00:45:07.723Z</time>
      </trkpt>
      <trkpt lat="47.555690" lon="8.133401">
        <ele>359.722709</ele>
        <time>2021-11-22T00:45:10.478Z</time>
      </trkpt>
      <trkpt lat="47.555896" lon="8.133399">
        <ele>359.284225</ele>
        <time>2021-11-22T00:45:12.721Z</time>
      </trkpt>
      <trkpt lat="47.556093" lon="8.133383">
        <ele>358.864278</ele>
        <time>2021-11-22T00:45:14.850Z</time>
      </trkpt>
      <trkpt lat="47.556204" lon="8.133369">
        <ele>358.627158</ele>
        <time>2021-11-22T00:45:16.018Z</time>
      </trkpt>
      <trkpt lat="47.556513" lon="8.133340">
        <ele>357.965673</ele>
        <time>2021-11-22T00:45:19.329Z</time>
      </trkpt>
      <trkpt lat="47.557021" lon="8.133293">
        <ele>356.820583</ele>
        <time>2021-11-22T00:45:24.694Z</time>
      </trkpt>
      <trkpt lat="47.557237" lon="8.133273">
        <ele>356.333693</ele>
        <time>2021-11-22T00:45:26.985Z</time>
      </trkpt>
      <trkpt lat="47.557846" lon="8.133209">
        <ele>354.960163</ele>
        <time>2021-11-22T00:45:33.602Z</time>
      </trkpt>
      <trkpt lat="47.558277" lon="8.133165">
        <ele>353.988230</ele>
        <time>2021-11-22T00:45:38.217Z</time>
      </trkpt>
      <trkpt lat="47.558609" lon="8.133121">
        <ele>353.543129</ele>
        <time>2021-11-22T00:45:41.873Z</time>
      </trkpt>
      <trkpt lat="47.559286" lon="8.133042">
        <ele>352.656365</ele>
        <time>2021-11-22T00:45:49.841Z</time>
      </trkpt>
      <trkpt lat="47.559423" lon="8.133034">
        <ele>352.477332</ele>
        <time>2021-11-22T00:45:51.469Z</time>
      </trkpt>
      <trkpt lat="47.559553" lon="8.133012">
        <ele>352.306474</ele>
        <time>2021-11-22T00:45:55.920Z</time>
      </trkpt>
      <trkpt lat="47.559972" lon="8.132981">
        <ele>351.758663</ele>
        <time>2021-11-22T00:46:10.383Z</time>
      </trkpt>
      <trkpt lat="47.560046" lon="8.132973">
        <ele>351.661777</ele>
        <time>2021-11-22T00:46:12.809Z</time>
      </trkpt>
      <trkpt lat="47.560143" lon="8.132963">
        <ele>351.572585</ele>
        <time>2021-11-22T00:46:14.069Z</time>
      </trkpt>
      <trkpt lat="47.560243" lon="8.132948">
        <ele>351.502332</ele>
        <time>2021-11-22T00:46:15.305Z</time>
      </trkpt>
      <trkpt lat="47.560335" lon="8.132935">
        <ele>351.437736</ele>
        <time>2021-11-22T00:46:16.821Z</time>
      </trkpt>
      <trkpt lat="47.560777" lon="8.132722">
        <ele>351.112870</ele>
        <time>2021-11-22T00:46:22.693Z</time>
      </trkpt>
      <trkpt lat="47.560827" lon="8.132679">
        <ele>351.072463</ele>
        <time>2021-11-22T00:46:23.516Z</time>
      </trkpt>
      <trkpt lat="47.560889" lon="8.132614">
        <ele>351.019379</ele>
        <time>2021-11-22T00:46:24.443Z</time>
      </trkpt>
      <trkpt lat="47.561056" lon="8.132422">
        <ele>350.871642</ele>
        <time>2021-11-22T00:46:27.240Z</time>
      </trkpt>
      <trkpt lat="47.561185" lon="8.132211">
        <ele>350.737351</ele>
        <time>2021-11-22T00:46:29.726Z</time>
      </trkpt>
      <trkpt lat="47.561796" lon="8.130897">
        <ele>349.708700</ele>
        <time>2021-11-22T00:46:43.414Z</time>
      </trkpt>
      <trkpt lat="47.562119" lon="8.130197">
        <ele>349.013743</ele>
        <time>2021-11-22T00:46:49.989Z</time>
      </trkpt>
      <trkpt lat="47.562169" lon="8.130101">
        <ele>348.914361</ele>
        <time>2021-11-22T00:46:50.991Z</time>
      </trkpt>
      <trkpt lat="47.562200" lon="8.130042">
        <ele>348.853081</ele>
        <time>2021-11-22T00:46:51.619Z</time>
      </trkpt>
      <trkpt lat="47.562419" lon="8.129559">
        <ele>348.376200</ele>
        <time>2021-11-22T00:46:56.231Z</time>
      </trkpt>
      <trkpt lat="47.562839" lon="8.128684">
        <ele>347.413760</ele>
        <time>2021-11-22T00:47:04.512Z</time>
      </trkpt>
      <trkpt lat="47.562984" lon="8.128403">
        <ele>347.088623</ele>
        <time>2021-11-22T00:47:07.314Z</time>
      </trkpt>
      <trkpt lat="47.563096" lon="8.128178">
        <ele>346.831638</ele>
        <time>2021-11-22T00:47:09.767Z</time>
      </trkpt>
      <trkpt lat="47.563232" lon="8.127932">
        <ele>346.539337</ele>
        <time>2021-11-22T00:47:12.230Z</time>
      </trkpt>
      <trkpt lat="47.563398" lon="8.127697">
        <ele>346.226641</ele>
        <time>2021-11-22T00:47:14.843Z</time>
      </trkpt>
      <trkpt lat="47.563589" lon="8.127466">
        <ele>345.890839</ele>
        <time>2021-11-22T00:47:18.821Z</time>
      </trkpt>
      <trkpt lat="47.563627" lon="8.127420">
        <ele>345.824005</ele>
        <time>2021-11-22T00:47:19.259Z</time>
      </trkpt>
      <trkpt lat="47.563751" lon="8.127247">
        <ele>345.525176</ele>
        <time>2021-11-22T00:47:21.081Z</time>
      </trkpt>
      <trkpt lat="47.563829" lon="8.127101">
        <ele>345.267673</ele>
        <time>2021-11-22T00:47:23.723Z</time>
      </trkpt>
      <trkpt lat="47.563898" lon="8.126936">
        <ele>344.999251</ele>
        <time>2021-11-22T00:47:27.366Z</time>
      </trkpt>
      <trkpt lat="47.563932" lon="8.126822">
        <ele>344.826902</ele>
        <time>2021-11-22T00:47:29.924Z</time>
      </trkpt>
      <trkpt lat="47.563935" lon="8.126813">
        <ele>344.813021</ele>
        <time>2021-11-22T00:47:30.111Z</time>
      </trkpt>
      <trkpt lat="47.563988" lon="8.126616">
        <ele>344.519760</ele>
        <time>2021-11-22T00:47:36.325Z</time>
      </trkpt>
      <trkpt lat="47.564016" lon="8.126515">
        <ele>344.368771</ele>
        <time>2021-11-22T00:47:38.231Z</time>
      </trkpt>
      <trkpt lat="47.564050" lon="8.126343">
        <ele>344.120938</ele>
        <time>2021-11-22T00:47:41.985Z</time>
      </trkpt>
      <trkpt lat="47.564078" lon="8.126253">
        <ele>343.983897</ele>
        <time>2021-11-22T00:47:44.474Z</time>
      </trkpt>
      <trkpt lat="47.564142" lon="8.126069">
        <ele>343.697652</ele>
        <time>2021-11-22T00:47:48.989Z</time>
      </trkpt>
      <trkpt lat="47.564204" lon="8.125933">
        <ele>343.470697</ele>
        <time>2021-11-22T00:47:50.092Z</time>
      </trkpt>
      <trkpt lat="47.564281" lon="8.125780">
        <ele>343.206768</ele>
        <time>2021-11-22T00:47:51.674Z</time>
      </trkpt>
      <trkpt lat="47.564404" lon="8.125557">
        <ele>342.808499</ele>
        <time>2021-11-22T00:47:53.721Z</time>
      </trkpt>
      <trkpt lat="47.564445" lon="8.125480">
        <ele>342.672867</ele>
        <time>2021-11-22T00:47:54.364Z</time>
      </trkpt>
      <trkpt lat="47.564862" lon="8.124663">
        <ele>341.106854</ele>
        <time>2021-11-22T00:48:01.731Z</time>
      </trkpt>
      <trkpt lat="47.565033" lon="8.124341">
        <ele>340.431966</ele>
        <time>2021-11-22T00:48:04.669Z</time>
      </trkpt>
      <trkpt lat="47.565098" lon="8.124202">
        <ele>340.153429</ele>
        <time>2021-11-22T00:48:05.790Z</time>
      </trkpt>
      <trkpt lat="47.565268" lon="8.123888">
        <ele>339.490378</ele>
        <time>2021-11-22T00:48:08.569Z</time>
      </trkpt>
      <trkpt lat="47.565326" lon="8.123776">
        <ele>339.257850</ele>
        <time>2021-11-22T00:48:09.488Z</time>
      </trkpt>
      <trkpt lat="47.565434" lon="8.123568">
        <ele>338.825588</ele>
        <time>2021-11-22T00:48:11.391Z</time>
      </trkpt>
      <trkpt lat="47.565629" lon="8.123189">
        <ele>338.040612</ele>
        <time>2021-11-22T00:48:14.895Z</time>
      </trkpt>
      <trkpt lat="47.565954" lon="8.122541">
        <ele>337.234266</ele>
        <time>2021-11-22T00:48:21.235Z</time>
      </trkpt>
      <trkpt lat="47.566102" lon="8.122133">
        <ele>336.897300</ele>
        <time>2021-11-22T00:48:25.104Z</time>
      </trkpt>
      <trkpt lat="47.566119" lon="8.122027">
        <ele>336.818044</ele>
        <time>2021-11-22T00:48:25.948Z</time>
      </trkpt>
      <trkpt lat="47.566151" lon="8.121930">
        <ele>336.739500</ele>
        <time>2021-11-22T00:48:27.043Z</time>
      </trkpt>
      <trkpt lat="47.566318" lon="8.120964">
        <ele>336.014100</ele>
        <time>2021-11-22T00:48:35.246Z</time>
      </trkpt>
      <trkpt lat="47.566366" lon="8.120637">
        <ele>335.770665</ele>
        <time>2021-11-22T00:48:38.069Z</time>
      </trkpt>
      <trkpt lat="47.566398" lon="8.120421">
        <ele>335.596776</ele>
        <time>2021-11-22T00:48:40.179Z</time>
      </trkpt>
      <trkpt lat="47.566431" lon="8.120180">
        <ele>335.394466</ele>
        <time>2021-11-22T00:48:42.178Z</time>
      </trkpt>
      <trkpt lat="47.566474" lon="8.119870">
        <ele>335.134098</ele>
        <time>2021-11-22T00:48:45.040Z</time>
      </trkpt>
      <trkpt lat="47.566566" lon="8.119245">
        <ele>334.607824</ele>
        <time>2021-11-22T00:48:50.361Z</time>
      </trkpt>
      <trkpt lat="47.566580" lon="8.119152">
        <ele>334.529433</ele>
        <time>2021-11-22T00:48:51.032Z</time>
      </trkpt>
      <trkpt lat="47.566644" lon="8.118715">
        <ele>334.161547</ele>
        <time>2021-11-22T00:48:54.645Z</time>
      </trkpt>
      <trkpt lat="47.566733" lon="8.118099">
        <ele>333.643284</ele>
        <time>2021-11-22T00:48:59.308Z</time>
      </trkpt>
      <trkpt lat="47.566811" lon="8.117556">
        <ele>333.296478</ele>
        <time>2021-11-22T00:49:03.480Z</time>
      </trkpt>
      <trkpt lat="47.566944" lon="8.116530">
        <ele>332.723593</ele>
        <time>2021-11-22T00:49:12.523Z</time>
      </trkpt>
      <trkpt lat="47.566983" lon="8.116203">
        <ele>332.541507</ele>
        <time>2021-11-22T00:49:15.465Z</time>
      </trkpt>
      <trkpt lat="47.567009" lon="8.116010">
        <ele>332.433589</ele>
        <time>2021-11-22T00:49:18.140Z</time>
      </trkpt>
      <trkpt lat="47.567157" lon="8.115310">
        <ele>332.029476</ele>
        <time>2021-11-22T00:49:24.399Z</time>
      </trkpt>
      <trkpt lat="47.567411" lon="8.114753">
        <ele>331.630963</ele>
        <time>2021-11-22T00:49:30.061Z</time>
      </trkpt>
      <trkpt lat="47.567654" lon="8.114290">
        <ele>331.283253</ele>
        <time>2021-11-22T00:49:35.380Z</time>
      </trkpt>
      <trkpt lat="47.567881" lon="8.113862">
        <ele>330.960547</ele>
        <time>2021-11-22T00:49:40.381Z</time>
      </trkpt>
      <trkpt lat="47.568167" lon="8.113323">
        <ele>330.554081</ele>
        <time>2021-11-22T00:49:46.329Z</time>
      </trkpt>
      <trkpt lat="47.568835" lon="8.112063">
        <ele>327.530934</ele>
        <time>2021-11-22T00:49:57.665Z</time>
      </trkpt>
      <trkpt lat="47.569083" lon="8.111567">
        <ele>326.292987</ele>
        <time>2021-11-22T00:50:01.853Z</time>
      </trkpt>
      <trkpt lat="47.569107" lon="8.111522">
        <ele>326.177964</ele>
        <time>2021-11-22T00:50:02.180Z</time>
      </trkpt>
      <trkpt lat="47.569423" lon="8.110628">
        <ele>324.387616</ele>
        <time>2021-11-22T00:50:08.996Z</time>
      </trkpt>
      <trkpt lat="47.569495" lon="8.110499">
        <ele>324.132331</ele>
        <time>2021-11-22T00:50:09.993Z</time>
      </trkpt>
      <trkpt lat="47.569574" lon="8.110385">
        <ele>323.883144</ele>
        <time>2021-11-22T00:50:11.058Z</time>
      </trkpt>
      <trkpt lat="47.569664" lon="8.110262">
        <ele>323.606470</ele>
        <time>2021-11-22T00:50:13.406Z</time>
      </trkpt>
      <trkpt lat="47.569787" lon="8.110094">
        <ele>323.228453</ele>
        <time>2021-11-22T00:50:14.962Z</time>
      </trkpt>
      <trkpt lat="47.569974" lon="8.109825">
        <ele>322.639509</ele>
        <time>2021-11-22T00:50:17.854Z</time>
      </trkpt>
      <trkpt lat="47.570263" lon="8.109376">
        <ele>321.693289</ele>
        <time>2021-11-22T00:50:22.434Z</time>
      </trkpt>
      <trkpt lat="47.570283" lon="8.109343">
        <ele>321.625650</ele>
        <time>2021-11-22T00:50:22.734Z</time>
      </trkpt>
      <trkpt lat="47.570582" lon="8.108889">
        <ele>321.492745</ele>
        <time>2021-11-22T00:50:28.318Z</time>
      </trkpt>
      <trkpt lat="47.570830" lon="8.108502">
        <ele>322.354269</ele>
        <time>2021-11-22T00:50:38.644Z</time>
      </trkpt>
      <trkpt lat="47.571253" lon="8.107823">
        <ele>323.846003</ele>
        <time>2021-11-22T00:50:58.005Z</time>
      </trkpt>
      <trkpt lat="47.571440" lon="8.107260">
        <ele>324.858890</ele>
        <time>2021-11-22T00:51:10.844Z</time>
      </trkpt>
      <trkpt lat="47.571458" lon="8.107087">
        <ele>325.141428</ele>
        <time>2021-11-22T00:51:14.968Z</time>
      </trkpt>
      <trkpt lat="47.571460" lon="8.106995">
        <ele>325.290000</ele>
        <time>2021-11-22T00:51:16.600Z</time>
      </trkpt>
      <trkpt lat="47.571461" lon="8.106820">
        <ele>325.304905</ele>
        <time>2021-11-22T00:51:18.186Z</time>
      </trkpt>
      <trkpt lat="47.571440" lon="8.106588">
        <ele>325.191425</ele>
        <time>2021-11-22T00:51:21.014Z</time>
      </trkpt>
      <trkpt lat="47.571298" lon="8.105561">
        <ele>324.683193</ele>
        <time>2021-11-22T00:51:29.327Z</time>
      </trkpt>
      <trkpt lat="47.571251" lon="8.105188">
        <ele>324.499238</ele>
        <time>2021-11-22T00:51:32.234Z</time>
      </trkpt>
      <trkpt lat="47.571234" lon="8.105037">
        <ele>324.425021</ele>
        <time>2021-11-22T00:51:33.871Z</time>
      </trkpt>
      <trkpt lat="47.571214" lon="8.104836">
        <ele>324.326523</ele>
        <time>2021-11-22T00:51:35.517Z</time>
      </trkpt>
      <trkpt lat="47.571252" lon="8.104668">
        <ele>324.240622</ele>
        <time>2021-11-22T00:51:37.020Z</time>
      </trkpt>
      <trkpt lat="47.571285" lon="8.104547">
        <ele>324.177351</ele>
        <time>2021-11-22T00:51:37.942Z</time>
      </trkpt>
      <trkpt lat="47.571319" lon="8.104520">
        <ele>324.149634</ele>
        <time>2021-11-22T00:51:38.359Z</time>
      </trkpt>
      <trkpt lat="47.571345" lon="8.104476">
        <ele>324.121278</ele>
        <time>2021-11-22T00:51:38.747Z</time>
      </trkpt>
      <trkpt lat="47.571359" lon="8.104422">
        <ele>324.093233</ele>
        <time>2021-11-22T00:51:39.119Z</time>
      </trkpt>
      <trkpt lat="47.571359" lon="8.104365">
        <ele>324.070385</ele>
        <time>2021-11-22T00:51:39.552Z</time>
      </trkpt>
      <trkpt lat="47.571346" lon="8.104311">
        <ele>324.057934</ele>
        <time>2021-11-22T00:51:39.934Z</time>
      </trkpt>
      <trkpt lat="47.571354" lon="8.104222">
        <ele>324.038437</ele>
        <time>2021-11-22T00:51:40.943Z</time>
      </trkpt>
      <trkpt lat="47.571310" lon="8.104135">
        <ele>324.014826</ele>
        <time>2021-11-22T00:51:41.680Z</time>
      </trkpt>
      <trkpt lat="47.571041" lon="8.104109">
        <ele>323.928061</ele>
        <time>2021-11-22T00:51:44.537Z</time>
      </trkpt>
      <trkpt lat="47.570788" lon="8.103933">
        <ele>323.838107</ele>
        <time>2021-11-22T00:51:47.513Z</time>
      </trkpt>
      <trkpt lat="47.570667" lon="8.103884">
        <ele>323.797734</ele>
        <time>2021-11-22T00:51:49.255Z</time>
      </trkpt>
      <trkpt lat="47.570391" lon="8.103841">
        <ele>323.708410</ele>
        <time>2021-11-22T00:51:58.065Z</time>
      </trkpt>
      <trkpt lat="47.570159" lon="8.103813">
        <ele>323.633491</ele>
        <time>2021-11-22T00:52:02.239Z</time>
      </trkpt>
      <trkpt lat="47.569679" lon="8.103705">
        <ele>323.644355</ele>
        <time>2021-11-22T00:52:14.966Z</time>
      </trkpt>
      <trkpt lat="47.569557" lon="8.103677">
        <ele>323.971037</ele>
        <time>2021-11-22T00:52:18.617Z</time>
      </trkpt>
      <trkpt lat="47.567683" lon="8.103272">
        <ele>328.973420</ele>
        <time>2021-11-22T00:53:06.969Z</time>
      </trkpt>
      <trkpt lat="47.566684" lon="8.102974">
        <ele>331.636591</ele>
        <time>2021-11-22T00:53:33.117Z</time>
      </trkpt>
      <trkpt lat="47.565727" lon="8.102512">
        <ele>333.912256</ele>
        <time>2021-11-22T00:53:58.389Z</time>
      </trkpt>
      <trkpt lat="47.564165" lon="8.101615">
        <ele>337.355615</ele>
        <time>2021-11-22T00:54:33.580Z</time>
      </trkpt>
      <trkpt lat="47.563202" lon="8.101042">
        <ele>340.018625</ele>
        <time>2021-11-22T00:54:59.393Z</time>
      </trkpt>
      <trkpt lat="47.563031" lon="8.100935">
        <ele>340.494961</ele>
        <time>2021-11-22T00:55:06.276Z</time>
      </trkpt>
      <trkpt lat="47.562207" lon="8.100413">
        <ele>343.050595</ele>
        <time>2021-11-22T00:55:36.717Z</time>
      </trkpt>
      <trkpt lat="47.561466" lon="8.099697">
        <ele>345.644535</ele>
        <time>2021-11-22T00:56:07.617Z</time>
      </trkpt>
      <trkpt lat="47.560787" lon="8.098864">
        <ele>345.072403</ele>
        <time>2021-11-22T00:56:27.287Z</time>
      </trkpt>
      <trkpt lat="47.560171" lon="8.097877">
        <ele>343.436198</ele>
        <time>2021-11-22T00:56:40.867Z</time>
      </trkpt>
      <trkpt lat="47.559606" lon="8.096837">
        <ele>339.367259</ele>
        <time>2021-11-22T00:56:52.879Z</time>
      </trkpt>
      <trkpt lat="47.558983" lon="8.095482">
        <ele>333.372480</ele>
        <time>2021-11-22T00:57:07.407Z</time>
      </trkpt>
      <trkpt lat="47.558857" lon="8.095293">
        <ele>332.623644</ele>
        <time>2021-11-22T00:57:09.899Z</time>
      </trkpt>
      <trkpt lat="47.558776" lon="8.095210">
        <ele>332.224312</ele>
        <time>2021-11-22T00:57:11.148Z</time>
      </trkpt>
      <trkpt lat="47.558531" lon="8.094661">
        <ele>330.423231</ele>
        <time>2021-11-22T00:57:15.429Z</time>
      </trkpt>
      <trkpt lat="47.557677" lon="8.092776">
        <ele>324.070230</ele>
        <time>2021-11-22T00:57:30.854Z</time>
      </trkpt>
      <trkpt lat="47.556850" lon="8.091457">
        <ele>318.755827</ele>
        <time>2021-11-22T00:57:42.478Z</time>
      </trkpt>
      <trkpt lat="47.556692" lon="8.091113">
        <ele>317.545682</ele>
        <time>2021-11-22T00:57:45.082Z</time>
      </trkpt>
      <trkpt lat="47.556527" lon="8.090721">
        <ele>316.223341</ele>
        <time>2021-11-22T00:57:47.962Z</time>
      </trkpt>
      <trkpt lat="47.556259" lon="8.090058">
        <ele>314.011308</ele>
        <time>2021-11-22T00:57:52.875Z</time>
      </trkpt>
      <trkpt lat="47.556193" lon="8.089926">
        <ele>313.541095</ele>
        <time>2021-11-22T00:57:54.006Z</time>
      </trkpt>
      <trkpt lat="47.556110" lon="8.089809">
        <ele>313.055230</ele>
        <time>2021-11-22T00:57:55.084Z</time>
      </trkpt>
      <trkpt lat="47.556137" lon="8.089730">
        <ele>312.801769</ele>
        <time>2021-11-22T00:57:55.637Z</time>
      </trkpt>
      <trkpt lat="47.556151" lon="8.089459">
        <ele>312.023829</ele>
        <time>2021-11-22T00:57:57.480Z</time>
      </trkpt>
      <trkpt lat="47.556111" lon="8.089266">
        <ele>311.445952</ele>
        <time>2021-11-22T00:57:58.769Z</time>
      </trkpt>
      <trkpt lat="47.556065" lon="8.089084">
        <ele>310.889687</ele>
        <time>2021-11-22T00:58:00.079Z</time>
      </trkpt>
      <trkpt lat="47.555997" lon="8.088801">
        <ele>310.596043</ele>
        <time>2021-11-22T00:58:02.388Z</time>
      </trkpt>
      <trkpt lat="47.555991" lon="8.088778">
        <ele>310.611070</ele>
        <time>2021-11-22T00:58:02.626Z</time>
      </trkpt>
      <trkpt lat="47.555939" lon="8.088552">
        <ele>310.756582</ele>
        <time>2021-11-22T00:58:04.456Z</time>
      </trkpt>
      <trkpt lat="47.555887" lon="8.088299">
        <ele>310.917756</ele>
        <time>2021-11-22T00:58:06.967Z</time>
      </trkpt>
      <trkpt lat="47.555829" lon="8.087941">
        <ele>311.142124</ele>
        <time>2021-11-22T00:58:10.783Z</time>
      </trkpt>
      <trkpt lat="47.555809" lon="8.087783">
        <ele>311.240091</ele>
        <time>2021-11-22T00:58:12.395Z</time>
      </trkpt>
      <trkpt lat="47.555780" lon="8.087557">
        <ele>311.380286</ele>
        <time>2021-11-22T00:58:14.571Z</time>
      </trkpt>
      <trkpt lat="47.555737" lon="8.087083">
        <ele>311.671746</ele>
        <time>2021-11-22T00:58:22.198Z</time>
      </trkpt>
      <trkpt lat="47.555733" lon="8.086819">
        <ele>311.832673</ele>
        <time>2021-11-22T00:58:27.220Z</time>
      </trkpt>
      <trkpt lat="47.555764" lon="8.085769">
        <ele>313.881690</ele>
        <time>2021-11-22T00:58:49.056Z</time>
      </trkpt>
      <trkpt lat="47.555899" lon="8.084472">
        <ele>317.878684</ele>
        <time>2021-11-22T00:59:18.467Z</time>
      </trkpt>
      <trkpt lat="47.555956" lon="8.084115">
        <ele>318.996017</ele>
        <time>2021-11-22T00:59:27.222Z</time>
      </trkpt>
      <trkpt lat="47.556083" lon="8.083354">
        <ele>321.523314</ele>
        <time>2021-11-22T00:59:45.419Z</time>
      </trkpt>
      <trkpt lat="47.556470" lon="8.081563">
        <ele>327.949487</ele>
        <time>2021-11-22T01:00:32.149Z</time>
      </trkpt>
      <trkpt lat="47.556853" lon="8.080477">
        <ele>330.806767</ele>
        <time>2021-11-22T01:00:58.011Z</time>
      </trkpt>
      <trkpt lat="47.557099" lon="8.079786">
        <ele>332.204403</ele>
        <time>2021-11-22T01:01:12.297Z</time>
      </trkpt>
      <trkpt lat="47.557256" lon="8.079416">
        <ele>332.986288</ele>
        <time>2021-11-22T01:01:19.100Z</time>
      </trkpt>
      <trkpt lat="47.557316" lon="8.079291">
        <ele>333.260703</ele>
        <time>2021-11-22T01:01:21.248Z</time>
      </trkpt>
      <trkpt lat="47.557793" lon="8.078299">
        <ele>333.650068</ele>
        <time>2021-11-22T01:01:35.335Z</time>
      </trkpt>
      <trkpt lat="47.558613" lon="8.076826">
        <ele>332.456417</ele>
        <time>2021-11-22T01:01:49.955Z</time>
      </trkpt>
      <trkpt lat="47.559046" lon="8.076086">
        <ele>331.386535</ele>
        <time>2021-11-22T01:01:57.343Z</time>
      </trkpt>
      <trkpt lat="47.559426" lon="8.075372">
        <ele>330.386893</ele>
        <time>2021-11-22T01:02:04.340Z</time>
      </trkpt>
      <trkpt lat="47.559811" lon="8.074398">
        <ele>328.962096</ele>
        <time>2021-11-22T01:02:13.234Z</time>
      </trkpt>
      <trkpt lat="47.560318" lon="8.072316">
        <ele>325.323876</ele>
        <time>2021-11-22T01:02:29.195Z</time>
      </trkpt>
      <trkpt lat="47.560524" lon="8.071179">
        <ele>322.376786</ele>
        <time>2021-11-22T01:02:36.928Z</time>
      </trkpt>
      <trkpt lat="47.560553" lon="8.071099">
        <ele>322.141071</ele>
        <time>2021-11-22T01:02:37.493Z</time>
      </trkpt>
      <trkpt lat="47.560636" lon="8.071093">
        <ele>321.821435</ele>
        <time>2021-11-22T01:02:38.502Z</time>
      </trkpt>
      <trkpt lat="47.560885" lon="8.071064">
        <ele>320.860714</ele>
        <time>2021-11-22T01:02:42.518Z</time>
      </trkpt>
      <trkpt lat="47.560962" lon="8.071117">
        <ele>320.534147</ele>
        <time>2021-11-22T01:02:43.537Z</time>
      </trkpt>
      <trkpt lat="47.561013" lon="8.070908">
        <ele>319.957285</ele>
        <time>2021-11-22T01:02:45.133Z</time>
      </trkpt>
      <trkpt lat="47.561500" lon="8.068915">
        <ele>317.134124</ele>
        <time>2021-11-22T01:02:59.781Z</time>
      </trkpt>
      <trkpt lat="47.561615" lon="8.068423">
        <ele>316.744841</ele>
        <time>2021-11-22T01:03:06.250Z</time>
      </trkpt>
      <trkpt lat="47.561643" lon="8.068242">
        <ele>316.606007</ele>
        <time>2021-11-22T01:03:09.101Z</time>
      </trkpt>
      <trkpt lat="47.561666" lon="8.068004">
        <ele>316.426253</ele>
        <time>2021-11-22T01:03:11.846Z</time>
      </trkpt>
      <trkpt lat="47.561678" lon="8.067656">
        <ele>316.294124</ele>
        <time>2021-11-22T01:03:16.878Z</time>
      </trkpt>
      <trkpt lat="47.561638" lon="8.066880">
        <ele>316.972354</ele>
        <time>2021-11-22T01:03:27.757Z</time>
      </trkpt>
      <trkpt lat="47.561611" lon="8.066708">
        <ele>317.126249</ele>
        <time>2021-11-22T01:03:30.801Z</time>
      </trkpt>
      <trkpt lat="47.561397" lon="8.065301">
        <ele>318.383170</ele>
        <time>2021-11-22T01:03:50.698Z</time>
      </trkpt>
      <trkpt lat="47.561318" lon="8.064977">
        <ele>318.547140</ele>
        <time>2021-11-22T01:03:54.977Z</time>
      </trkpt>
      <trkpt lat="47.560923" lon="8.063368">
        <ele>318.538941</ele>
        <time>2021-11-22T01:04:11.693Z</time>
      </trkpt>
      <trkpt lat="47.560837" lon="8.063012">
        <ele>318.537130</ele>
        <time>2021-11-22T01:04:15.246Z</time>
      </trkpt>
      <trkpt lat="47.560765" lon="8.062729">
        <ele>318.535682</ele>
        <time>2021-11-22T01:04:17.946Z</time>
      </trkpt>
      <trkpt lat="47.560570" lon="8.061926">
        <ele>318.322528</ele>
        <time>2021-11-22T01:04:25.496Z</time>
      </trkpt>
      <trkpt lat="47.560335" lon="8.060984">
        <ele>318.032519</ele>
        <time>2021-11-22T01:04:34.454Z</time>
      </trkpt>
      <trkpt lat="47.560293" lon="8.060828">
        <ele>317.984019</ele>
        <time>2021-11-22T01:04:35.999Z</time>
      </trkpt>
      <trkpt lat="47.560262" lon="8.060729">
        <ele>317.952503</ele>
        <time>2021-11-22T01:04:37.029Z</time>
      </trkpt>
      <trkpt lat="47.560130" lon="8.060196">
        <ele>317.788553</ele>
        <time>2021-11-22T01:04:42.228Z</time>
      </trkpt>
      <trkpt lat="47.560069" lon="8.059943">
        <ele>317.730772</ele>
        <time>2021-11-22T01:04:44.640Z</time>
      </trkpt>
      <trkpt lat="47.560040" lon="8.059827">
        <ele>317.708034</ele>
        <time>2021-11-22T01:04:45.857Z</time>
      </trkpt>
      <trkpt lat="47.560019" lon="8.059741">
        <ele>317.691223</ele>
        <time>2021-11-22T01:04:46.748Z</time>
      </trkpt>
      <trkpt lat="47.559979" lon="8.059591">
        <ele>317.661577</ele>
        <time>2021-11-22T01:04:48.209Z</time>
      </trkpt>
      <trkpt lat="47.559859" lon="8.059093">
        <ele>317.564379</ele>
        <time>2021-11-22T01:04:53.231Z</time>
      </trkpt>
      <trkpt lat="47.559725" lon="8.058554">
        <ele>317.458796</ele>
        <time>2021-11-22T01:04:58.641Z</time>
      </trkpt>
      <trkpt lat="47.559654" lon="8.058257">
        <ele>317.400880</ele>
        <time>2021-11-22T01:05:01.593Z</time>
      </trkpt>
      <trkpt lat="47.559579" lon="8.057955">
        <ele>317.341729</ele>
        <time>2021-11-22T01:05:04.497Z</time>
      </trkpt>
      <trkpt lat="47.559548" lon="8.057827">
        <ele>317.316732</ele>
        <time>2021-11-22T01:05:05.793Z</time>
      </trkpt>
      <trkpt lat="47.559447" lon="8.057490">
        <ele>317.259423</ele>
        <time>2021-11-22T01:05:09.221Z</time>
      </trkpt>
      <trkpt lat="47.559294" lon="8.057130">
        <ele>317.212033</ele>
        <time>2021-11-22T01:05:13.359Z</time>
      </trkpt>
      <trkpt lat="47.559116" lon="8.056760">
        <ele>317.161418</ele>
        <time>2021-11-22T01:05:17.797Z</time>
      </trkpt>
      <trkpt lat="47.558662" lon="8.056061">
        <ele>317.053352</ele>
        <time>2021-11-22T01:05:27.135Z</time>
      </trkpt>
      <trkpt lat="47.558447" lon="8.055831">
        <ele>317.009581</ele>
        <time>2021-11-22T01:05:30.666Z</time>
      </trkpt>
      <trkpt lat="47.558239" lon="8.055639">
        <ele>316.979573</ele>
        <time>2021-11-22T01:05:34.348Z</time>
      </trkpt>
      <trkpt lat="47.558012" lon="8.055477">
        <ele>316.983681</ele>
        <time>2021-11-22T01:05:37.992Z</time>
      </trkpt>
      <trkpt lat="47.557918" lon="8.055409">
        <ele>316.985387</ele>
        <time>2021-11-22T01:05:39.790Z</time>
      </trkpt>
      <trkpt lat="47.557710" lon="8.055283">
        <ele>316.989050</ele>
        <time>2021-11-22T01:05:43.156Z</time>
      </trkpt>
      <trkpt lat="47.557500" lon="8.055133">
        <ele>316.992851</ele>
        <time>2021-11-22T01:05:46.980Z</time>
      </trkpt>
      <trkpt lat="47.557273" lon="8.054941">
        <ele>316.997113</ele>
        <time>2021-11-22T01:05:51.220Z</time>
      </trkpt>
      <trkpt lat="47.557097" lon="8.054768">
        <ele>317.000556</ele>
        <time>2021-11-22T01:05:54.185Z</time>
      </trkpt>
      <trkpt lat="47.557019" lon="8.054678">
        <ele>317.002168</ele>
        <time>2021-11-22T01:05:55.990Z</time>
      </trkpt>
      <trkpt lat="47.556494" lon="8.054073">
        <ele>317.028367</ele>
        <time>2021-11-22T01:06:04.841Z</time>
      </trkpt>
      <trkpt lat="47.556239" lon="8.053780">
        <ele>317.049621</ele>
        <time>2021-11-22T01:06:09.248Z</time>
      </trkpt>
      <trkpt lat="47.556032" lon="8.053510">
        <ele>317.067785</ele>
        <time>2021-11-22T01:06:13.472Z</time>
      </trkpt>
      <trkpt lat="47.555890" lon="8.053286">
        <ele>317.081446</ele>
        <time>2021-11-22T01:06:17.108Z</time>
      </trkpt>
      <trkpt lat="47.555773" lon="8.053070">
        <ele>317.093758</ele>
        <time>2021-11-22T01:06:20.050Z</time>
      </trkpt>
      <trkpt lat="47.555603" lon="8.052757">
        <ele>317.111617</ele>
        <time>2021-11-22T01:06:24.272Z</time>
      </trkpt>
      <trkpt lat="47.555259" lon="8.052135">
        <ele>317.489931</ele>
        <time>2021-11-22T01:06:32.969Z</time>
      </trkpt>
      <trkpt lat="47.554988" lon="8.051475">
        <ele>318.086223</ele>
        <time>2021-11-22T01:06:41.959Z</time>
      </trkpt>
      <trkpt lat="47.554715" lon="8.050527">
        <ele>318.881761</ele>
        <time>2021-11-22T01:06:56.749Z</time>
      </trkpt>
      <trkpt lat="47.554412" lon="8.049127">
        <ele>320.567274</ele>
        <time>2021-11-22T01:07:19.310Z</time>
      </trkpt>
      <trkpt lat="47.554309" lon="8.048719">
        <ele>321.125770</ele>
        <time>2021-11-22T01:07:26.327Z</time>
      </trkpt>
      <trkpt lat="47.553996" lon="8.047557">
        <ele>322.620720</ele>
        <time>2021-11-22T01:07:45.557Z</time>
      </trkpt>
      <trkpt lat="47.553619" lon="8.046372">
        <ele>322.884342</ele>
        <time>2021-11-22T01:08:01.994Z</time>
      </trkpt>
      <trkpt lat="47.552844" lon="8.044355">
        <ele>321.935540</ele>
        <time>2021-11-22T01:08:21.924Z</time>
      </trkpt>
      <trkpt lat="47.551627" lon="8.041127">
        <ele>317.091277</ele>
        <time>2021-11-22T01:08:48.677Z</time>
      </trkpt>
      <trkpt lat="47.551167" lon="8.039905">
        <ele>315.815393</ele>
        <time>2021-11-22T01:08:59.307Z</time>
      </trkpt>
      <trkpt lat="47.551001" lon="8.039426">
        <ele>315.521140</ele>
        <time>2021-11-22T01:09:03.663Z</time>
      </trkpt>
      <trkpt lat="47.550515" lon="8.038174">
        <ele>314.896007</ele>
        <time>2021-11-22T01:09:17.366Z</time>
      </trkpt>
      <trkpt lat="47.550424" lon="8.037956">
        <ele>315.033619</ele>
        <time>2021-11-22T01:09:20.336Z</time>
      </trkpt>
      <trkpt lat="47.550111" lon="8.037123">
        <ele>315.545462</ele>
        <time>2021-11-22T01:09:32.704Z</time>
      </trkpt>
      <trkpt lat="47.549832" lon="8.036349">
        <ele>316.016550</ele>
        <time>2021-11-22T01:09:43.987Z</time>
      </trkpt>
      <trkpt lat="47.549753" lon="8.036077">
        <ele>316.175526</ele>
        <time>2021-11-22T01:09:47.759Z</time>
      </trkpt>
      <trkpt lat="47.549699" lon="8.035900">
        <ele>316.261279</ele>
        <time>2021-11-22T01:09:50.091Z</time>
      </trkpt>
      <trkpt lat="47.549632" lon="8.035633">
        <ele>316.331967</ele>
        <time>2021-11-22T01:09:53.409Z</time>
      </trkpt>
      <trkpt lat="47.549554" lon="8.035288">
        <ele>316.422256</ele>
        <time>2021-11-22T01:09:57.700Z</time>
      </trkpt>
      <trkpt lat="47.549494" lon="8.034935">
        <ele>316.512590</ele>
        <time>2021-11-22T01:10:02.159Z</time>
      </trkpt>
      <trkpt lat="47.549442" lon="8.034584">
        <ele>316.601766</ele>
        <time>2021-11-22T01:10:05.563Z</time>
      </trkpt>
      <trkpt lat="47.549395" lon="8.034029">
        <ele>316.740572</ele>
        <time>2021-11-22T01:10:11.624Z</time>
      </trkpt>
      <trkpt lat="47.549394" lon="8.034003">
        <ele>316.747034</ele>
        <time>2021-11-22T01:10:13.100Z</time>
      </trkpt>
      <trkpt lat="47.549386" lon="8.033799">
        <ele>316.797743</ele>
        <time>2021-11-22T01:10:14.633Z</time>
      </trkpt>
      <trkpt lat="47.549374" lon="8.033423">
        <ele>316.891154</ele>
        <time>2021-11-22T01:10:19.148Z</time>
      </trkpt>
      <trkpt lat="47.549363" lon="8.032869">
        <ele>316.907560</ele>
        <time>2021-11-22T01:10:24.308Z</time>
      </trkpt>
      <trkpt lat="47.549368" lon="8.032544">
        <ele>316.908164</ele>
        <time>2021-11-22T01:10:26.905Z</time>
      </trkpt>
      <trkpt lat="47.549372" lon="8.031883">
        <ele>316.909392</ele>
        <time>2021-11-22T01:10:33.924Z</time>
      </trkpt>
      <trkpt lat="47.549378" lon="8.030790">
        <ele>316.911422</ele>
        <time>2021-11-22T01:10:44.584Z</time>
      </trkpt>
      <trkpt lat="47.549380" lon="8.030702">
        <ele>316.911585</ele>
        <time>2021-11-22T01:10:45.424Z</time>
      </trkpt>
      <trkpt lat="47.549418" lon="8.028906">
        <ele>317.468837</ele>
        <time>2021-11-22T01:11:06.131Z</time>
      </trkpt>
      <trkpt lat="47.549431" lon="8.028306">
        <ele>317.655608</ele>
        <time>2021-11-22T01:11:12.876Z</time>
      </trkpt>
      <trkpt lat="47.549445" lon="8.027599">
        <ele>317.910639</ele>
        <time>2021-11-22T01:11:21.053Z</time>
      </trkpt>
      <trkpt lat="47.549454" lon="8.027138">
        <ele>318.091305</ele>
        <time>2021-11-22T01:11:26.579Z</time>
      </trkpt>
      <trkpt lat="47.549436" lon="8.026046">
        <ele>318.519209</ele>
        <time>2021-11-22T01:11:39.863Z</time>
      </trkpt>
      <trkpt lat="47.549322" lon="8.024323">
        <ele>318.778260</ele>
        <time>2021-11-22T01:11:58.468Z</time>
      </trkpt>
      <trkpt lat="47.549268" lon="8.023385">
        <ele>318.772588</ele>
        <time>2021-11-22T01:12:07.914Z</time>
      </trkpt>
      <trkpt lat="47.549201" lon="8.022146">
        <ele>318.416860</ele>
        <time>2021-11-22T01:12:19.131Z</time>
      </trkpt>
      <trkpt lat="47.549191" lon="8.021436">
        <ele>317.981219</ele>
        <time>2021-11-22T01:12:25.098Z</time>
      </trkpt>
      <trkpt lat="47.549186" lon="8.021006">
        <ele>317.717399</ele>
        <time>2021-11-22T01:12:28.683Z</time>
      </trkpt>
      <trkpt lat="47.549208" lon="8.019997">
        <ele>317.073984</ele>
        <time>2021-11-22T01:12:36.916Z</time>
      </trkpt>
      <trkpt lat="47.549261" lon="8.017878">
        <ele>314.894643</ele>
        <time>2021-11-22T01:12:53.038Z</time>
      </trkpt>
      <trkpt lat="47.549256" lon="8.017769">
        <ele>314.782357</ele>
        <time>2021-11-22T01:12:53.903Z</time>
      </trkpt>
      <trkpt lat="47.549291" lon="8.017761">
        <ele>314.728431</ele>
        <time>2021-11-22T01:12:54.299Z</time>
      </trkpt>
      <trkpt lat="47.549324" lon="8.017738">
        <ele>314.672899</ele>
        <time>2021-11-22T01:12:54.689Z</time>
      </trkpt>
      <trkpt lat="47.549351" lon="8.017702">
        <ele>314.617588</ele>
        <time>2021-11-22T01:12:55.091Z</time>
      </trkpt>
      <trkpt lat="47.549370" lon="8.017656">
        <ele>314.562161</ele>
        <time>2021-11-22T01:12:55.550Z</time>
      </trkpt>
      <trkpt lat="47.549379" lon="8.017603">
        <ele>314.505992</ele>
        <time>2021-11-22T01:12:55.956Z</time>
      </trkpt>
      <trkpt lat="47.549377" lon="8.017547">
        <ele>314.448356</ele>
        <time>2021-11-22T01:12:56.514Z</time>
      </trkpt>
      <trkpt lat="47.549310" lon="8.017418">
        <ele>314.303620</ele>
        <time>2021-11-22T01:12:57.860Z</time>
      </trkpt>
      <trkpt lat="47.549274" lon="8.017401">
        <ele>314.257476</ele>
        <time>2021-11-22T01:12:58.342Z</time>
      </trkpt>
      <trkpt lat="47.549281" lon="8.017304">
        <ele>314.177063</ele>
        <time>2021-11-22T01:12:59.058Z</time>
      </trkpt>
      <trkpt lat="47.549431" lon="8.015998">
        <ele>313.085063</ele>
        <time>2021-11-22T01:13:09.802Z</time>
      </trkpt>
      <trkpt lat="47.549589" lon="8.015316">
        <ele>312.490703</ele>
        <time>2021-11-22T01:13:15.646Z</time>
      </trkpt>
      <trkpt lat="47.549795" lon="8.014667">
        <ele>311.845914</ele>
        <time>2021-11-22T01:13:21.462Z</time>
      </trkpt>
      <trkpt lat="47.549871" lon="8.014427">
        <ele>311.588186</ele>
        <time>2021-11-22T01:13:23.597Z</time>
      </trkpt>
      <trkpt lat="47.550001" lon="8.014034">
        <ele>311.162699</ele>
        <time>2021-11-22T01:13:26.985Z</time>
      </trkpt>
      <trkpt lat="47.550565" lon="8.012461">
        <ele>309.561081</ele>
        <time>2021-11-22T01:13:40.592Z</time>
      </trkpt>
      <trkpt lat="47.550764" lon="8.011985">
        <ele>309.417514</ele>
        <time>2021-11-22T01:13:45.092Z</time>
      </trkpt>
      <trkpt lat="47.551187" lon="8.011080">
        <ele>309.135258</ele>
        <time>2021-11-22T01:13:55.210Z</time>
      </trkpt>
      <trkpt lat="47.551275" lon="8.010934">
        <ele>309.085068</ele>
        <time>2021-11-22T01:13:57.020Z</time>
      </trkpt>
      <trkpt lat="47.551902" lon="8.009884">
        <ele>309.481861</ele>
        <time>2021-11-22T01:14:13.974Z</time>
      </trkpt>
      <trkpt lat="47.552604" lon="8.008677">
        <ele>310.627784</ele>
        <time>2021-11-22T01:14:36.454Z</time>
      </trkpt>
      <trkpt lat="47.552640" lon="8.008615">
        <ele>310.686605</ele>
        <time>2021-11-22T01:14:38.040Z</time>
      </trkpt>
      <trkpt lat="47.552935" lon="8.007851">
        <ele>310.641427</ele>
        <time>2021-11-22T01:14:47.639Z</time>
      </trkpt>
      <trkpt lat="47.553173" lon="8.006642">
        <ele>310.263758</ele>
        <time>2021-11-22T01:14:58.441Z</time>
      </trkpt>
      <trkpt lat="47.553211" lon="8.006270">
        <ele>310.150931</ele>
        <time>2021-11-22T01:15:01.655Z</time>
      </trkpt>
      <trkpt lat="47.553220" lon="8.006182">
        <ele>310.124240</ele>
        <time>2021-11-22T01:15:02.246Z</time>
      </trkpt>
      <trkpt lat="47.553251" lon="8.005657">
        <ele>309.983258</ele>
        <time>2021-11-22T01:15:06.494Z</time>
      </trkpt>
      <trkpt lat="47.553256" lon="8.004837">
        <ele>309.792830</ele>
        <time>2021-11-22T01:15:13.418Z</time>
      </trkpt>
      <trkpt lat="47.553266" lon="8.003502">
        <ele>309.482797</ele>
        <time>2021-11-22T01:15:26.005Z</time>
      </trkpt>
      <trkpt lat="47.553270" lon="8.002465">
        <ele>309.871833</ele>
        <time>2021-11-22T01:15:38.677Z</time>
      </trkpt>
      <trkpt lat="47.553271" lon="8.002109">
        <ele>310.076925</ele>
        <time>2021-11-22T01:15:43.655Z</time>
      </trkpt>
      <trkpt lat="47.553273" lon="8.001687">
        <ele>310.320044</ele>
        <time>2021-11-22T01:15:49.335Z</time>
      </trkpt>
      <trkpt lat="47.553275" lon="7.999860">
        <ele>310.790543</ele>
        <time>2021-11-22T01:16:11.522Z</time>
      </trkpt>
      <trkpt lat="47.553278" lon="7.999508">
        <ele>310.708457</ele>
        <time>2021-11-22T01:16:15.068Z</time>
      </trkpt>
      <trkpt lat="47.553287" lon="7.998380">
        <ele>310.445411</ele>
        <time>2021-11-22T01:16:24.835Z</time>
      </trkpt>
      <trkpt lat="47.553287" lon="7.997190">
        <ele>309.379217</ele>
        <time>2021-11-22T01:16:34.134Z</time>
      </trkpt>
      <trkpt lat="47.553279" lon="7.996528">
        <ele>308.503812</ele>
        <time>2021-11-22T01:16:39.150Z</time>
      </trkpt>
      <trkpt lat="47.553268" lon="7.996252">
        <ele>308.138263</ele>
        <time>2021-11-22T01:16:41.222Z</time>
      </trkpt>
      <trkpt lat="47.553246" lon="7.995617">
        <ele>307.297591</ele>
        <time>2021-11-22T01:16:45.404Z</time>
      </trkpt>
      <trkpt lat="47.553164" lon="7.993925">
        <ele>305.698712</ele>
        <time>2021-11-22T01:16:58.923Z</time>
      </trkpt>
      <trkpt lat="47.553156" lon="7.993696">
        <ele>305.506559</ele>
        <time>2021-11-22T01:17:00.325Z</time>
      </trkpt>
      <trkpt lat="47.553137" lon="7.993190">
        <ele>305.081887</ele>
        <time>2021-11-22T01:17:04.937Z</time>
      </trkpt>
      <trkpt lat="47.553130" lon="7.993014">
        <ele>304.934147</ele>
        <time>2021-11-22T01:17:09.122Z</time>
      </trkpt>
      <trkpt lat="47.553107" lon="7.992226">
        <ele>304.422303</ele>
        <time>2021-11-22T01:17:15.837Z</time>
      </trkpt>
      <trkpt lat="47.553091" lon="7.991915">
        <ele>304.287957</ele>
        <time>2021-11-22T01:17:20.069Z</time>
      </trkpt>
      <trkpt lat="47.553050" lon="7.990744">
        <ele>303.782889</ele>
        <time>2021-11-22T01:17:32.892Z</time>
      </trkpt>
      <trkpt lat="47.553126" lon="7.990240">
        <ele>303.560446</ele>
        <time>2021-11-22T01:17:36.804Z</time>
      </trkpt>
      <trkpt lat="47.553146" lon="7.990113">
        <ele>303.504273</ele>
        <time>2021-11-22T01:17:37.733Z</time>
      </trkpt>
      <trkpt lat="47.553163" lon="7.990004">
        <ele>303.456086</ele>
        <time>2021-11-22T01:17:38.518Z</time>
      </trkpt>
      <trkpt lat="47.553214" lon="7.989758">
        <ele>302.947905</ele>
        <time>2021-11-22T01:17:40.297Z</time>
      </trkpt>
      <trkpt lat="47.553253" lon="7.989578">
        <ele>302.493928</ele>
        <time>2021-11-22T01:17:41.586Z</time>
      </trkpt>
      <trkpt lat="47.553352" lon="7.989142">
        <ele>301.389260</ele>
        <time>2021-11-22T01:17:44.682Z</time>
      </trkpt>
      <trkpt lat="47.553424" lon="7.988762">
        <ele>300.441458</ele>
        <time>2021-11-22T01:17:47.328Z</time>
      </trkpt>
      <trkpt lat="47.553410" lon="7.988607">
        <ele>300.065927</ele>
        <time>2021-11-22T01:17:48.360Z</time>
      </trkpt>
      <trkpt lat="47.553343" lon="7.988401">
        <ele>299.516798</ele>
        <time>2021-11-22T01:17:49.881Z</time>
      </trkpt>
      <trkpt lat="47.553232" lon="7.988247">
        <ele>298.975737</ele>
        <time>2021-11-22T01:17:51.353Z</time>
      </trkpt>
      <trkpt lat="47.552867" lon="7.987810">
        <ele>297.306037</ele>
        <time>2021-11-22T01:17:55.921Z</time>
      </trkpt>
      <trkpt lat="47.552713" lon="7.987638">
        <ele>296.775502</ele>
        <time>2021-11-22T01:17:57.759Z</time>
      </trkpt>
      <trkpt lat="47.552504" lon="7.987369">
        <ele>296.162174</ele>
        <time>2021-11-22T01:18:00.469Z</time>
      </trkpt>
      <trkpt lat="47.552436" lon="7.987273">
        <ele>295.954089</ele>
        <time>2021-11-22T01:18:01.413Z</time>
      </trkpt>
      <trkpt lat="47.552224" lon="7.986975">
        <ele>295.306684</ele>
        <time>2021-11-22T01:18:04.397Z</time>
      </trkpt>
      <trkpt lat="47.552152" lon="7.986883">
        <ele>295.096049</ele>
        <time>2021-11-22T01:18:05.378Z</time>
      </trkpt>
      <trkpt lat="47.551971" lon="7.986555">
        <ele>294.462546</ele>
        <time>2021-11-22T01:18:08.376Z</time>
      </trkpt>
      <trkpt lat="47.551917" lon="7.986288">
        <ele>294.045777</ele>
        <time>2021-11-22T01:18:10.457Z</time>
      </trkpt>
      <trkpt lat="47.551915" lon="7.986209">
        <ele>293.927569</ele>
        <time>2021-11-22T01:18:11.017Z</time>
      </trkpt>
      <trkpt lat="47.551898" lon="7.985654">
        <ele>293.096854</ele>
        <time>2021-11-22T01:18:16.525Z</time>
      </trkpt>
      <trkpt lat="47.551939" lon="7.985151">
        <ele>293.656304</ele>
        <time>2021-11-22T01:18:22.680Z</time>
      </trkpt>
      <trkpt lat="47.551934" lon="7.984260">
        <ele>294.801412</ele>
        <time>2021-11-22T01:18:36.262Z</time>
      </trkpt>
      <trkpt lat="47.551993" lon="7.984014">
        <ele>295.136927</ele>
        <time>2021-11-22T01:18:39.867Z</time>
      </trkpt>
      <trkpt lat="47.552007" lon="7.983931">
        <ele>295.246875</ele>
        <time>2021-11-22T01:18:41.441Z</time>
      </trkpt>
      <trkpt lat="47.552005" lon="7.983849">
        <ele>295.352326</ele>
        <time>2021-11-22T01:18:43.523Z</time>
      </trkpt>
      <trkpt lat="47.551911" lon="7.983632">
        <ele>295.683702</ele>
        <time>2021-11-22T01:18:47.716Z</time>
      </trkpt>
      <trkpt lat="47.551892" lon="7.983447">
        <ele>295.924192</ele>
        <time>2021-11-22T01:18:51.060Z</time>
      </trkpt>
      <trkpt lat="47.551861" lon="7.981113">
        <ele>299.471797</ele>
        <time>2021-11-22T01:19:34.350Z</time>
      </trkpt>
      <trkpt lat="47.551865" lon="7.980584">
        <ele>300.303497</ele>
        <time>2021-11-22T01:19:40.991Z</time>
      </trkpt>
      <trkpt lat="47.551873" lon="7.980135">
        <ele>300.617935</ele>
        <time>2021-11-22T01:19:45.747Z</time>
      </trkpt>
      <trkpt lat="47.551933" lon="7.979363">
        <ele>300.462852</ele>
        <time>2021-11-22T01:19:54.105Z</time>
      </trkpt>
      <trkpt lat="47.551923" lon="7.979308">
        <ele>300.451484</ele>
        <time>2021-11-22T01:19:54.473Z</time>
      </trkpt>
      <trkpt lat="47.551901" lon="7.979190">
        <ele>300.427054</ele>
        <time>2021-11-22T01:19:55.444Z</time>
      </trkpt>
      <trkpt lat="47.551829" lon="7.976305">
        <ele>299.989513</ele>
        <time>2021-11-22T01:20:20.493Z</time>
      </trkpt>
      <trkpt lat="47.551793" lon="7.974325">
        <ele>299.864215</ele>
        <time>2021-11-22T01:20:42.606Z</time>
      </trkpt>
      <trkpt lat="47.551755" lon="7.972603">
        <ele>299.868837</ele>
        <time>2021-11-22T01:20:59.905Z</time>
      </trkpt>
      <trkpt lat="47.551725" lon="7.970823">
        <ele>299.305019</ele>
        <time>2021-11-22T01:21:15.134Z</time>
      </trkpt>
      <trkpt lat="47.551734" lon="7.970034">
        <ele>299.018379</ele>
        <time>2021-11-22T01:21:22.093Z</time>
      </trkpt>
      <trkpt lat="47.551750" lon="7.968659">
        <ele>298.926256</ele>
        <time>2021-11-22T01:21:35.283Z</time>
      </trkpt>
      <trkpt lat="47.551825" lon="7.968445">
        <ele>298.931944</ele>
        <time>2021-11-22T01:21:37.535Z</time>
      </trkpt>
      <trkpt lat="47.551847" lon="7.968315">
        <ele>298.935105</ele>
        <time>2021-11-22T01:21:39.006Z</time>
      </trkpt>
      <trkpt lat="47.551839" lon="7.968208">
        <ele>298.937644</ele>
        <time>2021-11-22T01:21:40.208Z</time>
      </trkpt>
      <trkpt lat="47.551767" lon="7.967910">
        <ele>298.945110</ele>
        <time>2021-11-22T01:21:43.441Z</time>
      </trkpt>
      <trkpt lat="47.551902" lon="7.964650">
        <ele>299.564795</ele>
        <time>2021-11-22T01:22:19.836Z</time>
      </trkpt>
      <trkpt lat="47.551911" lon="7.964138">
        <ele>299.567344</ele>
        <time>2021-11-22T01:22:25.089Z</time>
      </trkpt>
      <trkpt lat="47.551918" lon="7.963725">
        <ele>299.499863</ele>
        <time>2021-11-22T01:22:29.235Z</time>
      </trkpt>
      <trkpt lat="47.551906" lon="7.962453">
        <ele>299.292073</ele>
        <time>2021-11-22T01:22:41.164Z</time>
      </trkpt>
      <trkpt lat="47.551859" lon="7.961133">
        <ele>298.983540</ele>
        <time>2021-11-22T01:22:52.758Z</time>
      </trkpt>
      <trkpt lat="47.551894" lon="7.960729">
        <ele>298.858340</ele>
        <time>2021-11-22T01:22:56.508Z</time>
      </trkpt>
      <trkpt lat="47.551882" lon="7.960631">
        <ele>298.827725</ele>
        <time>2021-11-22T01:22:57.278Z</time>
      </trkpt>
      <trkpt lat="47.551865" lon="7.960528">
        <ele>298.795132</ele>
        <time>2021-11-22T01:22:58.225Z</time>
      </trkpt>
      <trkpt lat="47.551677" lon="7.960100">
        <ele>298.638166</ele>
        <time>2021-11-22T01:23:02.749Z</time>
      </trkpt>
      <trkpt lat="47.551374" lon="7.959092">
        <ele>298.360652</ele>
        <time>2021-11-22T01:23:12.788Z</time>
      </trkpt>
      <trkpt lat="47.551300" lon="7.958844">
        <ele>298.358811</ele>
        <time>2021-11-22T01:23:15.758Z</time>
      </trkpt>
      <trkpt lat="47.550869" lon="7.957700">
        <ele>298.349913</ele>
        <time>2021-11-22T01:23:29.126Z</time>
      </trkpt>
      <trkpt lat="47.550745" lon="7.957569">
        <ele>298.348380</ele>
        <time>2021-11-22T01:23:31.360Z</time>
      </trkpt>
      <trkpt lat="47.550735" lon="7.957541">
        <ele>298.348165</ele>
        <time>2021-11-22T01:23:31.801Z</time>
      </trkpt>
      <trkpt lat="47.550613" lon="7.957254">
        <ele>298.345861</ele>
        <time>2021-11-22T01:23:35.140Z</time>
      </trkpt>
      <trkpt lat="47.550549" lon="7.957126">
        <ele>298.344779</ele>
        <time>2021-11-22T01:23:36.683Z</time>
      </trkpt>
      <trkpt lat="47.550445" lon="7.956918">
        <ele>298.356653</ele>
        <time>2021-11-22T01:23:39.354Z</time>
      </trkpt>
      <trkpt lat="47.550380" lon="7.956806">
        <ele>298.370433</ele>
        <time>2021-11-22T01:23:40.838Z</time>
      </trkpt>
      <trkpt lat="47.550205" lon="7.956552">
        <ele>298.404294</ele>
        <time>2021-11-22T01:23:44.548Z</time>
      </trkpt>
      <trkpt lat="47.549444" lon="7.955496">
        <ele>298.548409</ele>
        <time>2021-11-22T01:24:00.914Z</time>
      </trkpt>
      <trkpt lat="47.549157" lon="7.955099">
        <ele>298.608393</ele>
        <time>2021-11-22T01:24:06.715Z</time>
      </trkpt>
      <trkpt lat="47.549042" lon="7.954942">
        <ele>298.642200</ele>
        <time>2021-11-22T01:24:09.067Z</time>
      </trkpt>
      <trkpt lat="47.548833" lon="7.954652">
        <ele>298.704105</ele>
        <time>2021-11-22T01:24:13.423Z</time>
      </trkpt>
      <trkpt lat="47.548542" lon="7.954269">
        <ele>298.788255</ele>
        <time>2021-11-22T01:24:19.441Z</time>
      </trkpt>
      <trkpt lat="47.548342" lon="7.954009">
        <ele>298.845778</ele>
        <time>2021-11-22T01:24:23.623Z</time>
      </trkpt>
      <trkpt lat="47.548251" lon="7.953895">
        <ele>298.871541</ele>
        <time>2021-11-22T01:24:25.551Z</time>
      </trkpt>
      <trkpt lat="47.548115" lon="7.953729">
        <ele>298.909636</ele>
        <time>2021-11-22T01:24:28.420Z</time>
      </trkpt>
      <trkpt lat="47.547994" lon="7.953584">
        <ele>298.943281</ele>
        <time>2021-11-22T01:24:30.982Z</time>
      </trkpt>
      <trkpt lat="47.547871" lon="7.953437">
        <ele>298.977445</ele>
        <time>2021-11-22T01:24:33.573Z</time>
      </trkpt>
      <trkpt lat="47.547797" lon="7.953355">
        <ele>299.010964</ele>
        <time>2021-11-22T01:24:35.076Z</time>
      </trkpt>
      <trkpt lat="47.547624" lon="7.953160">
        <ele>299.097674</ele>
        <time>2021-11-22T01:24:38.570Z</time>
      </trkpt>
      <trkpt lat="47.547550" lon="7.953078">
        <ele>299.134535</ele>
        <time>2021-11-22T01:24:40.094Z</time>
      </trkpt>
      <trkpt lat="47.547458" lon="7.952975">
        <ele>299.180533</ele>
        <time>2021-11-22T01:24:42.107Z</time>
      </trkpt>
      <trkpt lat="47.547400" lon="7.952910">
        <ele>299.209542</ele>
        <time>2021-11-22T01:24:43.389Z</time>
      </trkpt>
      <trkpt lat="47.547090" lon="7.952543">
        <ele>299.367830</ele>
        <time>2021-11-22T01:24:49.837Z</time>
      </trkpt>
      <trkpt lat="47.546935" lon="7.952372">
        <ele>299.444917</ele>
        <time>2021-11-22T01:24:52.729Z</time>
      </trkpt>
      <trkpt lat="47.546776" lon="7.952185">
        <ele>299.525896</ele>
        <time>2021-11-22T01:24:56.053Z</time>
      </trkpt>
      <trkpt lat="47.546695" lon="7.952091">
        <ele>299.566939</ele>
        <time>2021-11-22T01:24:57.861Z</time>
      </trkpt>
      <trkpt lat="47.546634" lon="7.952024">
        <ele>299.597229</ele>
        <time>2021-11-22T01:24:59.304Z</time>
      </trkpt>
      <trkpt lat="47.546421" lon="7.951793">
        <ele>299.697408</ele>
        <time>2021-11-22T01:25:03.715Z</time>
      </trkpt>
      <trkpt lat="47.546231" lon="7.951558">
        <ele>299.658115</ele>
        <time>2021-11-22T01:25:08.268Z</time>
      </trkpt>
      <trkpt lat="47.546212" lon="7.951535">
        <ele>299.654220</ele>
        <time>2021-11-22T01:25:08.514Z</time>
      </trkpt>
      <trkpt lat="47.546135" lon="7.951406">
        <ele>299.635767</ele>
        <time>2021-11-22T01:25:10.323Z</time>
      </trkpt>
      <trkpt lat="47.545886" lon="7.951110">
        <ele>299.585085</ele>
        <time>2021-11-22T01:25:15.143Z</time>
      </trkpt>
      <trkpt lat="47.545824" lon="7.951061">
        <ele>299.573929</ele>
        <time>2021-11-22T01:25:16.284Z</time>
      </trkpt>
      <trkpt lat="47.545759" lon="7.950982">
        <ele>299.560582</ele>
        <time>2021-11-22T01:25:17.690Z</time>
      </trkpt>
      <trkpt lat="47.545727" lon="7.950947">
        <ele>299.554267</ele>
        <time>2021-11-22T01:25:18.491Z</time>
      </trkpt>
      <trkpt lat="47.545625" lon="7.950829">
        <ele>299.533722</ele>
        <time>2021-11-22T01:25:20.046Z</time>
      </trkpt>
      <trkpt lat="47.545567" lon="7.950765">
        <ele>299.522241</ele>
        <time>2021-11-22T01:25:21.080Z</time>
      </trkpt>
      <trkpt lat="47.545494" lon="7.950684">
        <ele>299.507762</ele>
        <time>2021-11-22T01:25:22.447Z</time>
      </trkpt>
      <trkpt lat="47.545434" lon="7.950668">
        <ele>299.498084</ele>
        <time>2021-11-22T01:25:23.533Z</time>
      </trkpt>
      <trkpt lat="47.545166" lon="7.950366">
        <ele>299.444629</ele>
        <time>2021-11-22T01:25:27.873Z</time>
      </trkpt>
      <trkpt lat="47.544901" lon="7.950044">
        <ele>299.400361</ele>
        <time>2021-11-22T01:25:32.006Z</time>
      </trkpt>
      <trkpt lat="47.544521" lon="7.949558">
        <ele>299.355645</ele>
        <time>2021-11-22T01:25:38.196Z</time>
      </trkpt>
      <trkpt lat="47.544239" lon="7.949202">
        <ele>299.322644</ele>
        <time>2021-11-22T01:25:43.103Z</time>
      </trkpt>
      <trkpt lat="47.543864" lon="7.948694">
        <ele>299.277383</ele>
        <time>2021-11-22T01:25:51.067Z</time>
      </trkpt>
      <trkpt lat="47.543760" lon="7.948548">
        <ele>299.264621</ele>
        <time>2021-11-22T01:25:53.309Z</time>
      </trkpt>
      <trkpt lat="47.543579" lon="7.948287">
        <ele>299.533066</ele>
        <time>2021-11-22T01:25:59.027Z</time>
      </trkpt>
      <trkpt lat="47.543532" lon="7.948214">
        <ele>299.687505</ele>
        <time>2021-11-22T01:26:00.153Z</time>
      </trkpt>
      <trkpt lat="47.543435" lon="7.948000">
        <ele>300.082126</ele>
        <time>2021-11-22T01:26:03.215Z</time>
      </trkpt>
      <trkpt lat="47.543407" lon="7.947938">
        <ele>300.196326</ele>
        <time>2021-11-22T01:26:05.072Z</time>
      </trkpt>
      <trkpt lat="47.543280" lon="7.947656">
        <ele>300.715306</ele>
        <time>2021-11-22T01:26:09.559Z</time>
      </trkpt>
      <trkpt lat="47.543142" lon="7.947250">
        <ele>301.411208</ele>
        <time>2021-11-22T01:26:17.023Z</time>
      </trkpt>
      <trkpt lat="47.543086" lon="7.947052">
        <ele>301.739862</ele>
        <time>2021-11-22T01:26:20.452Z</time>
      </trkpt>
      <trkpt lat="47.543056" lon="7.946935">
        <ele>301.931467</ele>
        <time>2021-11-22T01:26:23.294Z</time>
      </trkpt>
      <trkpt lat="47.543045" lon="7.946881">
        <ele>302.017819</ele>
        <time>2021-11-22T01:26:24.450Z</time>
      </trkpt>
      <trkpt lat="47.542982" lon="7.946547">
        <ele>302.548735</ele>
        <time>2021-11-22T01:26:29.850Z</time>
      </trkpt>
      <trkpt lat="47.542974" lon="7.946495">
        <ele>302.630385</ele>
        <time>2021-11-22T01:26:31.491Z</time>
      </trkpt>
      <trkpt lat="47.542960" lon="7.946400">
        <ele>302.779248</ele>
        <time>2021-11-22T01:26:33.557Z</time>
      </trkpt>
      <trkpt lat="47.542916" lon="7.945730">
        <ele>303.740225</ele>
        <time>2021-11-22T01:26:46.222Z</time>
      </trkpt>
      <trkpt lat="47.542913" lon="7.945267">
        <ele>304.345779</ele>
        <time>2021-11-22T01:26:54.717Z</time>
      </trkpt>
      <trkpt lat="47.543007" lon="7.943867">
        <ele>306.185777</ele>
        <time>2021-11-22T01:27:15.884Z</time>
      </trkpt>
      <trkpt lat="47.543161" lon="7.942213">
        <ele>306.460937</ele>
        <time>2021-11-22T01:27:34.290Z</time>
      </trkpt>
      <trkpt lat="47.543435" lon="7.940670">
        <ele>305.883791</ele>
        <time>2021-11-22T01:27:47.239Z</time>
      </trkpt>
      <trkpt lat="47.543826" lon="7.939433">
        <ele>304.333324</ele>
        <time>2021-11-22T01:27:57.640Z</time>
      </trkpt>
      <trkpt lat="47.544472" lon="7.937932">
        <ele>302.282775</ele>
        <time>2021-11-22T01:28:10.964Z</time>
      </trkpt>
      <trkpt lat="47.544705" lon="7.937395">
        <ele>301.526319</ele>
        <time>2021-11-22T01:28:15.803Z</time>
      </trkpt>
      <trkpt lat="47.544903" lon="7.936917">
        <ele>300.861755</ele>
        <time>2021-11-22T01:28:20.064Z</time>
      </trkpt>
      <trkpt lat="47.545074" lon="7.936484">
        <ele>300.267300</ele>
        <time>2021-11-22T01:28:23.895Z</time>
      </trkpt>
      <trkpt lat="47.545457" lon="7.935110">
        <ele>299.106668</ele>
        <time>2021-11-22T01:28:35.263Z</time>
      </trkpt>
      <trkpt lat="47.545674" lon="7.933625">
        <ele>298.119752</ele>
        <time>2021-11-22T01:28:48.343Z</time>
      </trkpt>
      <trkpt lat="47.545702" lon="7.933290">
        <ele>298.357158</ele>
        <time>2021-11-22T01:28:51.923Z</time>
      </trkpt>
      <trkpt lat="47.545724" lon="7.932758">
        <ele>298.784704</ele>
        <time>2021-11-22T01:28:58.190Z</time>
      </trkpt>
      <trkpt lat="47.545721" lon="7.931992">
        <ele>299.399164</ele>
        <time>2021-11-22T01:29:08.230Z</time>
      </trkpt>
      <trkpt lat="47.545696" lon="7.931497">
        <ele>299.797340</ele>
        <time>2021-11-22T01:29:15.435Z</time>
      </trkpt>
      <trkpt lat="47.545661" lon="7.930955">
        <ele>300.234092</ele>
        <time>2021-11-22T01:29:24.130Z</time>
      </trkpt>
      <trkpt lat="47.545563" lon="7.929641">
        <ele>301.527279</ele>
        <time>2021-11-22T01:29:46.470Z</time>
      </trkpt>
      <trkpt lat="47.545475" lon="7.928419">
        <ele>302.731118</ele>
        <time>2021-11-22T01:30:02.772Z</time>
      </trkpt>
      <trkpt lat="47.545421" lon="7.927686">
        <ele>301.941881</ele>
        <time>2021-11-22T01:30:08.876Z</time>
      </trkpt>
      <trkpt lat="47.545406" lon="7.927306">
        <ele>301.376816</ele>
        <time>2021-11-22T01:30:11.780Z</time>
      </trkpt>
      <trkpt lat="47.545407" lon="7.927001">
        <ele>300.924046</ele>
        <time>2021-11-22T01:30:14.066Z</time>
      </trkpt>
      <trkpt lat="47.545409" lon="7.926773">
        <ele>300.585557</ele>
        <time>2021-11-22T01:30:15.696Z</time>
      </trkpt>
      <trkpt lat="47.545417" lon="7.925848">
        <ele>299.212304</ele>
        <time>2021-11-22T01:30:22.031Z</time>
      </trkpt>
      <trkpt lat="47.545446" lon="7.925350">
        <ele>298.201836</ele>
        <time>2021-11-22T01:30:25.322Z</time>
      </trkpt>
      <trkpt lat="47.545466" lon="7.924880">
        <ele>297.062856</ele>
        <time>2021-11-22T01:30:28.376Z</time>
      </trkpt>
      <trkpt lat="47.545481" lon="7.924396">
        <ele>295.891039</ele>
        <time>2021-11-22T01:30:31.459Z</time>
      </trkpt>
      <trkpt lat="47.545521" lon="7.923709">
        <ele>294.223319</ele>
        <time>2021-11-22T01:30:35.997Z</time>
      </trkpt>
      <trkpt lat="47.545536" lon="7.923407">
        <ele>293.490940</ele>
        <time>2021-11-22T01:30:38.360Z</time>
      </trkpt>
      <trkpt lat="47.545553" lon="7.923142">
        <ele>292.847135</ele>
        <time>2021-11-22T01:30:40.087Z</time>
      </trkpt>
      <trkpt lat="47.545587" lon="7.922895">
        <ele>292.372459</ele>
        <time>2021-11-22T01:30:42.434Z</time>
      </trkpt>
      <trkpt lat="47.545641" lon="7.922610">
        <ele>292.106327</ele>
        <time>2021-11-22T01:30:44.441Z</time>
      </trkpt>
      <trkpt lat="47.545690" lon="7.922369">
        <ele>291.880041</ele>
        <time>2021-11-22T01:30:47.062Z</time>
      </trkpt>
      <trkpt lat="47.545699" lon="7.922325">
        <ele>291.838707</ele>
        <time>2021-11-22T01:30:47.323Z</time>
      </trkpt>
      <trkpt lat="47.545714" lon="7.922249">
        <ele>291.767519</ele>
        <time>2021-11-22T01:30:47.955Z</time>
      </trkpt>
      <trkpt lat="47.545778" lon="7.921947">
        <ele>291.482940</ele>
        <time>2021-11-22T01:30:51.017Z</time>
      </trkpt>
      <trkpt lat="47.545791" lon="7.921869">
        <ele>291.410709</ele>
        <time>2021-11-22T01:30:51.942Z</time>
      </trkpt>
      <trkpt lat="47.545810" lon="7.921755">
        <ele>291.305140</ele>
        <time>2021-11-22T01:30:52.673Z</time>
      </trkpt>
      <trkpt lat="47.545810" lon="7.921755">
        <ele>291.305140</ele>
        <time>2021-11-22T01:30:52.711Z</time>
      </trkpt>
      <trkpt lat="47.545881" lon="7.921096">
        <ele>290.705171</ele>
        <time>2021-11-22T01:30:58.036Z</time>
      </trkpt>
      <trkpt lat="47.545913" lon="7.920765">
        <ele>290.404551</ele>
        <time>2021-11-22T01:31:00.861Z</time>
      </trkpt>
      <trkpt lat="47.545973" lon="7.920313">
        <ele>290.037341</ele>
        <time>2021-11-22T01:31:06.023Z</time>
      </trkpt>
      <trkpt lat="47.546128" lon="7.919617">
        <ele>289.844977</ele>
        <time>2021-11-22T01:31:12.548Z</time>
      </trkpt>
      <trkpt lat="47.546262" lon="7.919081">
        <ele>289.694955</ele>
        <time>2021-11-22T01:31:18.395Z</time>
      </trkpt>
      <trkpt lat="47.546821" lon="7.916867">
        <ele>289.031508</ele>
        <time>2021-11-22T01:31:39.143Z</time>
      </trkpt>
      <trkpt lat="47.547032" lon="7.916218">
        <ele>288.813672</ele>
        <time>2021-11-22T01:31:45.634Z</time>
      </trkpt>
      <trkpt lat="47.547091" lon="7.916039">
        <ele>288.753434</ele>
        <time>2021-11-22T01:31:47.452Z</time>
      </trkpt>
      <trkpt lat="47.547113" lon="7.915971">
        <ele>288.730631</ele>
        <time>2021-11-22T01:31:48.050Z</time>
      </trkpt>
      <trkpt lat="47.547423" lon="7.915080">
        <ele>288.633171</ele>
        <time>2021-11-22T01:31:57.694Z</time>
      </trkpt>
      <trkpt lat="47.547994" lon="7.913433">
        <ele>289.001975</ele>
        <time>2021-11-22T01:32:17.414Z</time>
      </trkpt>
      <trkpt lat="47.548027" lon="7.913334">
        <ele>289.023968</ele>
        <time>2021-11-22T01:32:18.773Z</time>
      </trkpt>
      <trkpt lat="47.548412" lon="7.912168">
        <ele>289.811450</ele>
        <time>2021-11-22T01:32:35.176Z</time>
      </trkpt>
      <trkpt lat="47.549012" lon="7.910340">
        <ele>291.360953</ele>
        <time>2021-11-22T01:33:02.119Z</time>
      </trkpt>
      <trkpt lat="47.549102" lon="7.910058">
        <ele>291.650015</ele>
        <time>2021-11-22T01:33:06.280Z</time>
      </trkpt>
      <trkpt lat="47.549195" lon="7.909756">
        <ele>291.957620</ele>
        <time>2021-11-22T01:33:10.538Z</time>
      </trkpt>
      <trkpt lat="47.549248" lon="7.909580">
        <ele>292.136210</ele>
        <time>2021-11-22T01:33:13.094Z</time>
      </trkpt>
      <trkpt lat="47.549378" lon="7.909148">
        <ele>292.574516</ele>
        <time>2021-11-22T01:33:19.203Z</time>
      </trkpt>
      <trkpt lat="47.549520" lon="7.908678">
        <ele>293.051691</ele>
        <time>2021-11-22T01:33:25.851Z</time>
      </trkpt>
      <trkpt lat="47.549539" lon="7.908625">
        <ele>293.107302</ele>
        <time>2021-11-22T01:33:26.608Z</time>
      </trkpt>
      <trkpt lat="47.550497" lon="7.905558">
        <ele>298.455124</ele>
        <time>2021-11-22T01:34:21.473Z</time>
      </trkpt>
      <trkpt lat="47.550283" lon="7.905413">
        <ele>299.313523</ele>
        <time>2021-11-22T01:34:29.640Z</time>
      </trkpt>
      <trkpt lat="47.550067" lon="7.905245">
        <ele>300.203430</ele>
        <time>2021-11-22T01:34:38.326Z</time>
      </trkpt>
      <trkpt lat="47.549867" lon="7.905155">
        <ele>300.965909</ele>
        <time>2021-11-22T01:34:45.954Z</time>
      </trkpt>
      <trkpt lat="47.549868" lon="7.905010">
        <ele>301.322934</ele>
        <time>2021-11-22T01:34:49.359Z</time>
      </trkpt>
      <trkpt lat="47.550025" lon="7.904774">
        <ele>302.138794</ele>
        <time>2021-11-22T01:34:57.511Z</time>
      </trkpt>
      <trkpt lat="47.550302" lon="7.904164">
        <ele>303.948948</ele>
        <time>2021-11-22T01:35:15.810Z</time>
      </trkpt>
      <trkpt lat="47.550498" lon="7.903445">
        <ele>305.862502</ele>
        <time>2021-11-22T01:35:35.382Z</time>
      </trkpt>
      <trkpt lat="47.550688" lon="7.902451">
        <ele>308.413024</ele>
        <time>2021-11-22T01:35:57.930Z</time>
      </trkpt>
      <trkpt lat="47.550757" lon="7.901591">
        <ele>310.551153</ele>
        <time>2021-11-22T01:36:17.726Z</time>
      </trkpt>
      <trkpt lat="47.550769" lon="7.901362">
        <ele>311.164157</ele>
        <time>2021-11-22T01:36:23.634Z</time>
      </trkpt>
      <trkpt lat="47.550801" lon="7.900244">
        <ele>314.380189</ele>
        <time>2021-11-22T01:36:48.031Z</time>
      </trkpt>
      <trkpt lat="47.550819" lon="7.898109">
        <ele>319.821820</ele>
        <time>2021-11-22T01:37:35.072Z</time>
      </trkpt>
      <trkpt lat="47.550648" lon="7.896481">
        <ele>322.927704</ele>
        <time>2021-11-22T01:38:02.727Z</time>
      </trkpt>
      <trkpt lat="47.550639" lon="7.896345">
        <ele>323.185308</ele>
        <time>2021-11-22T01:38:05.102Z</time>
      </trkpt>
      <trkpt lat="47.550660" lon="7.896255">
        <ele>323.364819</ele>
        <time>2021-11-22T01:38:05.903Z</time>
      </trkpt>
      <trkpt lat="47.550838" lon="7.895509">
        <ele>324.116272</ele>
        <time>2021-11-22T01:38:16.071Z</time>
      </trkpt>
      <trkpt lat="47.550878" lon="7.895158">
        <ele>324.415432</ele>
        <time>2021-11-22T01:38:20.133Z</time>
      </trkpt>
      <trkpt lat="47.550908" lon="7.894308">
        <ele>325.130756</ele>
        <time>2021-11-22T01:38:30.605Z</time>
      </trkpt>
      <trkpt lat="47.550892" lon="7.893176">
        <ele>326.788519</ele>
        <time>2021-11-22T01:38:45.323Z</time>
      </trkpt>
      <trkpt lat="47.550904" lon="7.891725">
        <ele>330.684224</ele>
        <time>2021-11-22T01:39:15.085Z</time>
      </trkpt>
      <trkpt lat="47.550915" lon="7.890600">
        <ele>334.155157</ele>
        <time>2021-11-22T01:39:43.925Z</time>
      </trkpt>
      <trkpt lat="47.550833" lon="7.889069">
        <ele>340.629124</ele>
        <time>2021-11-22T01:40:26.558Z</time>
      </trkpt>
      <trkpt lat="47.550831" lon="7.888611">
        <ele>342.559789</ele>
        <time>2021-11-22T01:40:39.129Z</time>
      </trkpt>
      <trkpt lat="47.550789" lon="7.887816">
        <ele>345.771203</ele>
        <time>2021-11-22T01:40:59.740Z</time>
      </trkpt>
      <trkpt lat="47.550758" lon="7.887295">
        <ele>347.789342</ele>
        <time>2021-11-22T01:41:13.562Z</time>
      </trkpt>
      <trkpt lat="47.550677" lon="7.886476">
        <ele>350.983306</ele>
        <time>2021-11-22T01:41:35.051Z</time>
      </trkpt>
      <trkpt lat="47.550548" lon="7.885799">
        <ele>353.697709</ele>
        <time>2021-11-22T01:41:52.254Z</time>
      </trkpt>
      <trkpt lat="47.550391" lon="7.885109">
        <ele>356.024758</ele>
        <time>2021-11-22T01:42:09.891Z</time>
      </trkpt>
      <trkpt lat="47.550332" lon="7.884727">
        <ele>357.185357</ele>
        <time>2021-11-22T01:42:18.581Z</time>
      </trkpt>
      <trkpt lat="47.550234" lon="7.883221">
        <ele>361.666307</ele>
        <time>2021-11-22T01:42:51.413Z</time>
      </trkpt>
      <trkpt lat="47.549927" lon="7.881490">
        <ele>366.129132</ele>
        <time>2021-11-22T01:43:23.875Z</time>
      </trkpt>
      <trkpt lat="47.549726" lon="7.880786">
        <ele>367.984522</ele>
        <time>2021-11-22T01:43:39.788Z</time>
      </trkpt>
      <trkpt lat="47.549698" lon="7.880701">
        <ele>368.214101</ele>
        <time>2021-11-22T01:43:42.232Z</time>
      </trkpt>
      <trkpt lat="47.549628" lon="7.880482">
        <ele>368.803961</ele>
        <time>2021-11-22T01:43:46.934Z</time>
      </trkpt>
      <trkpt lat="47.549327" lon="7.879547">
        <ele>371.733011</ele>
        <time>2021-11-22T01:44:09.633Z</time>
      </trkpt>
      <trkpt lat="47.549318" lon="7.879398">
        <ele>372.155997</ele>
        <time>2021-11-22T01:44:12.779Z</time>
      </trkpt>
      <trkpt lat="47.549140" lon="7.879391">
        <ele>372.901939</ele>
        <time>2021-11-22T01:44:19.762Z</time>
      </trkpt>
      <trkpt lat="47.548718" lon="7.879258">
        <ele>374.709344</ele>
        <time>2021-11-22T01:44:33.370Z</time>
      </trkpt>
      <trkpt lat="47.548422" lon="7.878959">
        <ele>376.210141</ele>
        <time>2021-11-22T01:44:43.880Z</time>
      </trkpt>
      <trkpt lat="47.548234" lon="7.878638">
        <ele>376.599813</ele>
        <time>2021-11-22T01:44:52.260Z</time>
      </trkpt>
      <trkpt lat="47.547992" lon="7.877974">
        <ele>377.136555</ele>
        <time>2021-11-22T01:45:05.343Z</time>
      </trkpt>
      <trkpt lat="47.547574" lon="7.876801">
        <ele>378.080029</ele>
        <time>2021-11-22T01:45:19.106Z</time>
      </trkpt>
      <trkpt lat="47.547126" lon="7.875801">
        <ele>375.794282</ele>
        <time>2021-11-22T01:45:27.889Z</time>
      </trkpt>
      <trkpt lat="47.546309" lon="7.874154">
        <ele>370.143603</ele>
        <time>2021-11-22T01:45:41.078Z</time>
      </trkpt>
      <trkpt lat="47.546135" lon="7.873859">
        <ele>368.481195</ele>
        <time>2021-11-22T01:45:43.460Z</time>
      </trkpt>
      <trkpt lat="47.546077" lon="7.873763">
        <ele>367.934475</ele>
        <time>2021-11-22T01:45:44.271Z</time>
      </trkpt>
      <trkpt lat="47.545934" lon="7.873549">
        <ele>366.656654</ele>
        <time>2021-11-22T01:45:46.075Z</time>
      </trkpt>
      <trkpt lat="47.545832" lon="7.873415">
        <ele>365.799614</ele>
        <time>2021-11-22T01:45:47.325Z</time>
      </trkpt>
      <trkpt lat="47.545746" lon="7.873302">
        <ele>365.076956</ele>
        <time>2021-11-22T01:45:48.364Z</time>
      </trkpt>
      <trkpt lat="47.545515" lon="7.873015">
        <ele>363.181658</ele>
        <time>2021-11-22T01:45:51.066Z</time>
      </trkpt>
      <trkpt lat="47.545478" lon="7.872968">
        <ele>362.875254</ele>
        <time>2021-11-22T01:45:51.508Z</time>
      </trkpt>
      <trkpt lat="47.545375" lon="7.872836">
        <ele>362.019073</ele>
        <time>2021-11-22T01:45:52.703Z</time>
      </trkpt>
      <trkpt lat="47.545131" lon="7.872664">
        <ele>360.446295</ele>
        <time>2021-11-22T01:45:55.173Z</time>
      </trkpt>
      <trkpt lat="47.544883" lon="7.872555">
        <ele>360.446295</ele>
        <time>2021-11-22T01:45:57.524Z</time>
      </trkpt>
      <trkpt lat="47.544390" lon="7.872423">
        <ele>360.446295</ele>
        <time>2021-11-22T01:46:02.147Z</time>
      </trkpt>
      <trkpt lat="47.543754" lon="7.872311">
        <ele>360.446295</ele>
        <time>2021-11-22T01:46:08.352Z</time>
      </trkpt>
    </trkseg>
  </trk>
</gpx>